[[{"header":{"parameterUnit":"m.s-1","parameterCategory":1,"la1":31.0,"la2":29.5877,"lo1":-88.7671,"lo2":-86.6584,"dx":0.0162,"dy":0.0185,"nx":115,"ny":88,"refTime":"2023-01-20T06:00:00:Z","depth":0,"parameterNumber":2,"parameterNumberName":"U-component_of_WINDS"},"data":[0.0,0.0,0.0,0.0,0.0,0.0,0.0,0.0,0.0,0.0,0.0,0.0,0.0,0.0,0.0,0.0,0.0,0.0,0.0,0.0,0.0,0.0,0.0,0.0,0.0,0.0,0.0,0.0,0.0,0.0,0.0,0.0,0.0,0.0,0.0,0.0,0.0,0.0,0.0,0.0,0.0,0.0,0.0,0.0,0.0,0.0,0.0,0.0,0.0,0.0,0.0,0.0,0.0,0.0,0.0,0.0,0.0,0.0,0.0,0.0,0.0,0.0,0.0,0.0,0.0,0.0,0.0,0.0,0.0,0.0,0.0,0.0,0.0,0.0,0.0,0.0,0.0,0.0,0.0,0.0,0.0,0.0,0.0,0.0,0.0,0.0,0.0,0.0,0.0,0.0,0.0,0.0,0.0,0.0,0.0,0.0,0.0,0.0,0.0,0.0,0.0,0.0,0.0,0.0,0.0,0.0,0.0,0.0,0.0,0.0,0.0,0.0,0.0,0.0,0.0,0.0,0.0,0.0,0.0,0.0,0.0,0.0,0.0,0.0,0.0,0.0,0.0,0.0,0.0,0.0,0.0,0.0,0.0,0.0,0.0,0.0,0.0,0.0,0.0,0.0,0.0,0.0,0.0,0.0,0.0,0.0,0.0,0.0,0.0,0.0,0.0,0.0,0.0,0.0,0.0,0.0,0.0,0.0,0.0,0.0,0.0,0.0,0.0,0.0,0.0,0.0,0.0,0.0,0.0,0.0,0.0,0.0,0.0,0.0,0.0,0.0,0.0,0.0,0.0,0.0,0.0,0.0,0.0,0.0,0.0,0.0,0.0,0.0,0.0,0.0,0.0,0.0,0.0,0.0,0.0,0.0,0.0,0.0,0.0,0.0,0.0,0.0,0.0,0.0,0.0,0.0,0.0,0.0,0.0,0.0,0.0,0.0,0.0,0.0,0.0,0.0,0.0,0.0,0.0,0.0,0.0,0.0,0.0,0.0,0.0,0.0,0.0,0.0,0.0,0.0,0.0,0.0,0.0,0.0,0.0,0.0,0.0,0.0,0.0,0.0,0.0,0.0,0.0,0.0,0.0,0.0,0.0,0.0,0.0,0.0,0.0,0.0,0.0,0.0,0.0,0.0,0.0,0.0,0.0,0.0,0.0,0.0,0.0,0.0,0.0,0.0,0.0,0.0,0.0,0.0,0.0,0.0,0.0,0.0,0.0,0.0,0.0,0.0,0.0,0.0,0.0,0.0,0.0,0.0,0.0,0.0,0.0,0.0,0.0,0.0,0.0,0.0,0.0,0.0,0.0,0.0,0.0,0.0,0.0,0.0,0.0,0.0,0.0,0.0,0.0,0.0,0.0,0.0,0.0,0.0,0.0,0.0,0.0,0.0,0.0,0.0,0.0,0.0,0.0,0.0,0.0,0.0,0.0,0.0,0.0,0.0,0.0,0.0,0.0,0.0,0.0,0.0,0.0,0.0,0.0,0.0,0.0,0.0,0.0,0.0,0.0,0.0,0.0,0.0,0.0,0.0,0.0,0.0,0.0,0.0,0.0,0.0,0.0,0.0,0.0,0.0,0.0,0.0,0.0,0.0,0.0,0.0,0.0,0.0,0.0,0.0,0.0,0.0,0.0,0.0,0.0,0.0,0.0,0.0,0.0,0.0,0.0,0.0,0.0,0.0,0.0,0.0,0.0,0.0,0.0,0.0,0.0,0.0,0.0,0.0,0.0,0.0,0.0,0.0,0.0,0.0,0.0,0.0,0.0,0.0,0.0,0.0,0.0,0.0,0.0,0.0,0.0,0.0,0.0,0.0,0.0,0.0,0.0,0.0,0.0,0.0,0.0,0.0,0.0,0.0,0.0,0.0,0.0,0.0,0.0,0.0,0.0,0.0,0.0,0.0,0.0,0.0,0.0,0.0,0.0,0.0,0.0,0.0,0.0,0.0,0.0,0.0,0.0,0.0,0.0,0.0,0.0,0.0,0.0,0.0,0.0,0.0,0.0,0.0,0.0,0.0,0.0,0.0,0.0,0.0,0.0,0.0,0.0,0.0,0.0,0.0,0.0,0.0,0.0,0.0,0.0,0.0,0.0,0.0,0.0,0.0,0.0,0.0,0.0,0.0,0.0,0.0,0.0,0.0,0.0,0.0,0.0,0.0,0.0,0.0,0.0,0.0,0.0,0.0,0.0,0.0,0.0,0.0,0.0,0.0,0.0,0.0,0.0,0.0,0.0,0.0,0.0,0.0,0.0,0.0,0.0,0.0,0.0,0.0,0.0,0.0,0.0,0.0,0.0,0.0,0.0,0.0,0.0,0.0,0.0,0.0,0.0,0.0,0.0,0.0,0.0,0.0,0.0,0.0,0.0,0.0,0.0,0.0,0.0,0.0,0.0,0.0,0.0,0.0,0.0,0.0,0.0,0.0,0.0,0.0,0.0,0.0,0.0,0.0,0.0,0.0,0.0,0.0,0.0,0.0,0.0,0.0,0.0,0.0,0.0,0.0,0.0,0.0,0.0,0.0,0.0,0.0,0.0,0.0,0.0,0.0,0.0,0.0,0.0,0.0,0.0,0.0,0.0,0.0,0.0,0.0,0.0,0.0,0.0,0.0,0.0,0.0,0.0,0.0,0.0,0.0,0.0,0.0,0.0,0.0,0.0,0.0,0.0,0.0,0.0,0.0,0.0,0.0,0.0,0.0,0.0,0.0,0.0,0.0,0.0,0.0,0.0,0.0,0.0,0.0,0.0,0.0,0.0,0.0,0.0,0.0,0.0,0.0,0.0,0.0,0.0,0.0,0.0,0.0,0.0,0.0,0.0,0.0,0.0,0.0,0.0,0.0,0.0,0.0,0.0,0.0,0.0,0.0,0.0,0.0,0.0,0.0,0.0,0.0,0.0,0.0,0.0,0.0,0.0,0.0,0.0,0.0,0.0,0.0,0.0,0.0,0.0,0.0,0.0,0.0,0.0,0.0,0.0,0.0,0.0,0.0,0.0,0.0,0.0,0.0,0.0,0.0,0.0,0.0,0.0,0.0,0.0,0.0,0.0,0.0,0.0,0.0,0.0,0.0,0.0,0.0,0.0,0.0,0.0,0.0,0.0,0.0,0.0,0.0,0.0,0.0,0.0,0.0,0.0,0.0,0.0,0.0,0.0,0.0,0.0,0.0,0.0,0.0,0.0,0.0,0.0,0.0,0.0,0.0,0.0,0.0,0.0,0.0,0.0,0.0,0.0,0.0,0.0,0.0,0.0,0.0,0.0,0.0,0.0,0.0,0.0,0.0,0.0,0.0,0.0,0.0,0.0,0.0,0.0,0.0,0.0,0.0,0.0,0.0,0.0,0.0,0.0,0.0,0.0,0.0,0.0,0.0,0.0,0.0,0.0,0.0,0.0,0.0,0.0,0.0,0.0,0.0,0.0,0.0,0.0,0.0,0.0,0.0,0.0,0.0,0.0,0.0,0.0,0.0,0.0,0.0,0.0,0.0,0.0,0.0,0.0,0.0,0.0,0.0,0.0,0.0,0.0,0.0,0.0,0.0,0.0,0.0,0.0,0.0,0.0,0.0,0.0,0.0,0.0,0.0,0.0,0.0,0.0,0.0,0.0,0.0,0.0,0.0,0.0,0.0,0.0,0.0,0.0,0.0,0.0,0.0,0.0,0.0,0.0,0.0,0.0,0.0,0.0,0.0,0.0,0.0,0.0,0.0,0.0,0.0,0.0,0.0,0.0,0.0,0.0,0.0,0.0,0.0,0.0,0.0,0.0,0.0,0.0,0.0,0.0,0.0,0.0,0.0,0.0,0.0,0.0,0.0,0.0,0.0,0.0,0.0,0.0,0.0,0.0,0.0,0.0,0.0,0.0,0.0,0.0,0.0,0.0,0.0,0.0,0.0,0.0,0.0,0.0,0.0,0.0,0.0,0.0,0.0,0.0,0.0,0.0,0.0,0.0,0.0,0.0,0.0,0.0,0.0,0.0,0.0,0.0,0.0,0.0,0.0,0.0,0.0,0.0,0.0,0.0,0.0,0.0,0.0,0.0,0.0,0.0,0.0,0.0,0.0,0.0,0.0,0.0,0.0,0.0,0.0,0.0,0.0,0.0,0.0,0.0,0.0,0.0,0.0,0.0,0.0,0.0,0.0,0.0,0.0,0.0,0.0,0.0,0.0,0.0,0.0,0.0,0.0,0.0,0.0,0.0,0.0,0.0,0.0,0.0,0.0,0.0,0.0,0.0,0.0,0.0,0.0,0.0,0.0,0.0,0.0,0.0,0.0,0.9375,0.0,0.0,0.0,0.0,0.0,0.0,0.0,0.0,0.0,0.0,0.0,0.0,0.0,0.0,0.0,0.0,0.0,0.0,0.0,0.0,0.0,0.0,0.0,0.0,0.0,0.0,0.0,0.0,0.0,0.0,0.0,0.0,0.0,0.0,0.0,0.0,0.0,0.0,0.0,0.0,0.0,0.0,0.0,0.0,0.0,0.0,0.0,0.0,0.0,0.0,0.0,0.0,0.0,0.0,0.0,0.0,0.0,0.0,0.0,0.0,0.0,0.0,0.0,0.0,0.0,0.0,0.0,0.0,0.0,0.0,0.0,0.0,0.0,0.0,0.0,0.0,0.0,0.0,0.0,0.0,0.0,0.0,0.0,0.0,0.0,0.0,0.0,0.0,0.0,0.0,0.0,0.0,0.0,0.0,0.0,0.0,0.0,0.0,0.0,0.0,0.0,0.0,0.0,0.0,0.0,0.0,0.0,0.0,0.0,0.0,1.0257,1.0249,1.0054,0.9892,0.9791,0.0,0.0,0.0,0.0,0.0,0.0,0.0,0.0,0.0,0.0,0.0,0.0,0.0,0.0,0.0,0.0,0.0,0.0,0.0,0.0,0.0,0.0,0.0,0.0,0.0,0.0,0.0,0.0,0.0,0.0,0.0,0.0,0.0,0.0,0.0,0.0,0.0,0.0,0.0,0.0,0.0,0.0,0.0,0.0,0.0,0.0,0.0,0.0,0.0,0.0,0.0,0.0,0.0,0.0,0.0,0.0,0.0,0.0,0.0,0.0,0.0,0.0,0.0,0.0,0.0,0.0,0.0,0.0,0.0,0.0,0.0,0.0,0.0,0.0,0.0,0.0,0.0,0.0,0.0,0.0,0.0,0.0,0.0,0.0,0.0,0.0,0.0,0.0,0.0,0.0,0.0,0.0,0.0,0.0,0.0,0.0,0.0,0.0,0.0,0.0,0.0,0.0,0.0,0.0,0.0,0.0,0.0,0.0,0.0,0.0,0.0,0.0,1.0452,1.0249,1.0036,0.0,0.0,0.0,0.0,0.0,0.0,0.0,0.0,0.0,0.0,0.0,0.0,0.0,0.0,0.0,0.0,0.0,0.0,0.0,0.0,0.0,0.0,0.0,0.0,0.0,0.0,0.0,0.0,0.0,0.0,0.0,0.0,0.0,0.0,0.0,0.0,0.0,0.0,0.0,0.0,0.0,0.0,0.0,0.0,0.0,0.0,0.0,0.0,0.0,0.0,0.0,0.0,0.0,0.0,0.0,0.0,0.0,0.0,0.0,0.0,0.0,0.0,0.0,0.0,0.0,0.0,0.0,0.0,0.0,0.0,0.0,0.0,0.0,0.0,0.0,0.0,0.0,0.0,0.0,0.0,0.0,0.0,0.0,0.0,0.0,0.0,0.0,0.0,0.0,0.0,0.0,0.0,0.0,0.0,0.0,0.0,0.0,0.0,0.0,0.0,0.0,0.0,0.0,0.0,0.0,0.0,0.0,0.0,0.0,0.0,1.1833,1.1629,1.1326,0.0,1.0072,0.0,0.0,0.0,0.0,0.0,0.0,0.0,0.0,0.0,0.0,0.0,0.0,0.0,0.0,0.0,0.0,0.0,0.0,0.0,0.0,0.0,0.0,0.0,0.0,0.0,0.0,0.0,0.0,0.0,0.0,0.0,0.0,0.0,0.0,0.0,0.0,0.0,0.0,0.0,0.0,0.0,0.0,0.0,0.0,0.0,0.0,0.0,0.0,0.0,0.0,0.0,0.0,0.0,0.0,0.0,0.0,0.0,0.0,0.0,0.0,0.0,0.0,0.0,0.0,0.0,0.0,0.0,0.0,0.0,0.0,0.0,0.0,0.0,0.0,0.0,0.0,0.0,0.0,0.0,0.0,0.0,0.0,0.0,0.0,0.0,0.0,0.0,0.0,0.0,0.0,0.0,0.0,0.0,0.0,0.0,0.0,0.0,0.0,0.0,0.0,0.0,0.0,0.0,0.0,0.0,0.0,0.0,0.0,0.0,0.0,1.2779,1.2477,1.1746,1.0968,0.0,0.0,0.0,0.0,0.0,0.0,0.0,0.0,0.0,0.0,0.0,0.0,0.0,0.0,0.0,0.0,0.0,0.0,0.0,0.0,0.0,0.0,0.0,0.0,0.0,0.0,0.0,0.0,0.0,0.0,0.0,0.0,0.0,0.0,0.0,0.0,0.0,0.0,0.0,0.0,0.0,0.0,0.0,0.0,0.0,0.0,0.0,0.0,0.0,0.0,0.0,0.0,0.0,0.0,0.0,0.0,0.0,0.0,0.0,0.0,0.0,0.0,0.0,0.0,0.0,0.0,0.0,0.0,0.0,0.0,0.0,0.0,0.0,0.0,0.0,0.0,0.0,0.0,0.0,0.0,0.0,0.0,0.0,0.0,0.0,0.0,0.0,0.0,0.0,0.0,0.0,0.0,0.0,0.0,0.0,0.0,0.0,0.0,0.0,0.0,0.0,0.0,0.0,0.0,0.0,0.0,0.0,0.0,0.0,0.0,1.3832,1.3442,1.2962,1.2013,1.1151,1.0323,0.0,0.0,0.0,0.0,0.0,0.0,0.0,0.0,0.0,0.0,0.0,0.0,0.0,0.0,0.0,0.0,0.0,0.0,0.0,0.0,0.0,0.0,0.0,0.0,0.0,0.0,0.0,0.0,0.0,0.0,0.0,0.0,0.0,0.0,0.0,0.0,0.0,0.0,0.0,0.0,0.0,0.0,0.0,0.0,0.0,0.0,0.0,0.0,0.0,0.0,0.0,0.0,0.0,0.0,0.0,0.0,0.0,0.0,0.0,0.0,0.0,0.0,0.0,0.0,0.0,0.0,0.0,0.0,0.0,0.0,0.0,0.0,0.0,0.0,0.0,0.0,0.0,0.0,0.0,0.0,0.0,0.0,0.0,0.0,0.0,0.0,0.0,0.0,0.0,0.0,0.0,0.0,0.0,0.0,0.0,0.0,0.0,0.0,0.0,0.0,0.0,0.0,0.0,0.0,0.0,0.0,0.0,0.0,0.0,1.4577,1.3819,1.2813,1.2001,1.1404,0.0,0.0,0.0,0.0,0.0,0.0,0.0,0.0,0.0,0.0,0.0,0.0,0.0,0.0,0.0,0.0,0.0,0.0,0.0,0.0,0.0,0.0,0.0,0.0,0.0,0.0,0.0,0.0,0.0,0.0,0.0,0.0,0.0,0.0,0.0,0.0,0.0,0.0,0.0,0.0,0.0,0.0,0.0,0.0,0.0,0.0,0.0,0.0,0.0,0.0,0.0,0.0,0.0,0.0,0.0,0.0,0.0,0.0,0.0,0.0,0.0,0.0,0.0,0.0,0.0,0.0,0.0,0.0,0.0,0.0,0.0,0.0,0.0,0.0,0.0,0.0,0.0,0.0,0.0,0.0,0.0,0.0,0.0,0.0,0.0,0.0,0.0,0.0,0.0,0.0,0.0,0.0,0.0,0.0,0.0,0.0,0.0,0.0,0.0,0.0,0.0,0.0,0.0,0.0,0.0,0.0,0.0,0.0,0.0,1.5482,1.4728,1.411,1.3727,1.2856,1.2175,0.0,0.0,0.0,0.0,0.0,0.0,0.0,0.0,0.0,0.0,0.0,0.0,0.0,0.0,0.0,0.0,0.0,0.0,0.0,0.0,0.0,0.0,0.0,0.0,0.0,0.0,0.0,0.0,0.0,0.0,0.0,0.0,0.0,0.0,0.0,0.0,0.0,0.0,0.0,0.0,0.0,0.0,0.0,0.0,0.0,0.0,0.0,0.0,0.0,0.0,0.0,0.0,0.0,0.0,0.0,0.0,0.0,0.0,0.0,0.0,0.0,0.0,0.0,0.0,0.0,0.0,0.0,0.0,0.0,0.0,0.0,0.0,0.0,0.0,0.0,0.0,0.0,0.0,0.0,0.0,0.0,0.0,0.0,0.0,0.0,0.0,0.0,0.0,0.0,0.0,0.0,0.0,0.0,0.0,0.0,0.0,0.0,0.0,0.0,0.0,0.0,0.0,0.0,0.0,0.0,0.0,0.0,0.0,0.0,1.546,0.0,1.458,0.0,1.3522,1.2856,0.0,0.0,0.0,0.0,0.0,0.0,0.0,0.0,0.0,0.0,0.0,0.0,0.0,0.0,0.0,0.0,0.0,0.0,0.0,0.0,0.0,0.0,0.0,0.0,0.0,0.0,0.0,0.0,0.0,0.0,0.0,0.0,0.0,0.0,0.0,0.0,0.0,0.0,0.0,0.0,0.0,0.0,0.0,0.0,0.0,0.0,0.0,0.0,0.0,0.0,0.0,0.0,0.0,0.0,0.0,0.0,0.0,0.0,0.0,0.0,0.0,0.0,0.0,0.0,0.0,0.0,0.0,0.0,0.0,0.0,0.0,0.0,0.0,0.0,0.0,0.0,0.0,0.0,0.0,0.0,0.0,0.0,0.0,0.0,0.0,0.0,0.0,0.0,0.0,0.0,0.0,0.0,0.0,0.0,0.0,0.0,0.0,0.0,0.0,0.0,0.0,0.0,0.0,0.0,0.0,0.0,0.0,0.0,1.6308,1.5573,1.5452,1.507,1.4304,1.4004,1.3522,0.0,0.0,0.0,0.0,0.0,0.0,0.0,0.0,0.0,0.0,0.0,0.0,0.0,0.0,0.0,0.0,0.0,0.0,0.0,0.0,0.0,0.0,0.0,0.0,0.0,0.0,0.0,0.0,0.0,0.0,0.0,0.0,0.0,0.0,0.0,0.0,0.0,0.0,0.0,0.0,0.0,0.0,0.0,0.0,0.0,0.0,0.0,0.0,0.0,0.0,0.0,0.0,0.0,0.0,0.0,0.0,0.0,0.0,0.0,0.0,0.0,0.0,0.0,0.0,0.0,0.0,0.0,0.0,0.0,0.0,0.0,0.0,0.0,0.0,0.0,0.0,0.0,0.0,0.0,0.0,0.0,0.0,0.0,0.0,0.0,0.0,0.0,0.0,0.0,0.0,0.0,0.0,0.0,0.0,0.0,0.0,0.0,0.0,0.0,0.0,0.0,0.0,0.0,0.0,0.0,0.0,0.0,0.0,0.0,1.5737,1.5547,1.5343,1.5153,1.4484,1.4004,0.0,0.0,0.0,0.0,0.0,0.0,0.0,0.0,0.0,0.0,0.0,0.0,0.0,0.0,0.0,0.0,0.0,0.0,0.0,0.0,0.0,0.0,0.0,0.0,0.0,0.0,0.0,0.0,0.0,0.0,0.0,0.0,0.0,0.0,0.0,0.0,0.0,0.0,0.0,0.0,0.0,0.0,0.0,0.0,0.0,0.0,0.0,0.0,0.0,0.0,0.0,0.0,0.0,0.0,0.0,0.0,0.0,0.0,0.0,0.0,0.0,0.0,0.0,0.0,0.0,0.0,0.0,0.0,0.0,0.0,0.0,0.0,0.0,0.0,0.0,0.0,0.0,0.0,0.0,0.0,0.0,0.0,0.0,0.0,0.0,0.0,0.0,0.0,0.0,0.0,0.0,0.0,0.0,0.0,0.0,0.0,0.0,0.0,0.0,0.0,0.0,0.0,0.0,0.0,0.0,0.0,0.0,0.0,0.0,1.5832,1.5642,1.5547,1.5547,1.4962,1.4484,1.41,0.0,0.0,0.0,0.0,0.0,0.0,0.0,0.0,0.0,0.0,0.0,0.0,0.0,0.0,0.0,0.0,0.0,0.0,0.0,0.0,0.0,0.0,0.0,0.0,0.0,0.0,0.0,0.0,0.0,0.0,0.0,0.0,0.0,0.0,0.0,0.0,0.0,0.0,0.0,0.0,0.0,0.0,0.0,0.0,0.0,0.0,0.0,0.0,0.0,0.0,0.0,0.0,0.0,0.0,0.0,0.0,0.0,0.0,0.0,0.0,0.0,0.0,0.0,0.0,0.0,0.0,0.0,0.0,0.0,0.0,0.0,0.0,0.0,0.0,0.0,0.0,0.0,0.0,0.0,0.0,0.0,0.0,0.0,0.0,0.0,0.0,0.0,0.0,0.0,0.0,0.0,0.0,0.0,0.0,0.0,0.0,0.0,0.0,0.0,0.0,0.0,0.0,0.0,0.0,0.0,0.0,0.0,0.0,1.5832,1.5832,1.5737,1.5534,1.5534,1.5166,0.0,0.0,0.0,0.0,0.0,0.0,0.0,0.0,0.0,0.0,0.0,0.0,0.0,0.0,0.0,0.0,0.0,0.0,0.0,0.0,0.0,0.0,0.0,0.0,0.0,0.0,0.0,0.0,0.0,0.0,0.0,0.0,0.0,0.0,0.0,0.0,0.0,0.0,0.0,0.0,0.0,0.0,0.0,0.0,0.0,0.0,0.0,0.0,0.0,0.0,0.0,0.0,0.0,0.0,0.0,0.0,0.0,0.0,0.0,0.0,0.0,0.0,0.0,0.0,0.0,0.0,0.0,0.0,0.0,0.0,0.0,0.0,0.0,0.0,0.0,0.0,0.0,0.0,0.0,0.0,0.0,0.0,0.0,0.0,0.0,0.0,0.0,0.0,0.0,0.0,0.0,0.0,0.0,0.0,0.0,0.0,0.0,0.0,0.0,0.0,0.0,0.0,0.0,0.0,0.0,0.0,0.0,0.0,0.0,1.5832,1.5832,1.5737,1.5737,1.5547,1.5452,0.0,0.0,0.0,0.0,0.0,0.0,0.0,0.0,0.0,0.0,0.0,0.0,0.0,0.0,0.0,0.0,0.0,0.0,0.0,0.0,0.0,0.0,0.0,0.0,0.0,0.0,0.0,0.0,0.0,0.0,0.0,0.0,0.0,0.0,0.0,0.0,0.0,0.0,0.0,0.0,0.0,0.0,0.0,0.0,0.0,0.0,0.0,0.0,0.0,0.0,0.0,0.0,0.0,0.0,0.0,0.0,0.0,0.0,0.0,0.0,0.0,0.0,0.0,0.0,0.0,0.0,0.0,0.0,0.0,0.0,0.0,0.0,0.0,0.0,0.0,0.0,0.0,0.0,0.0,0.0,0.0,0.0,0.0,0.0,0.0,0.0,0.0,0.0,0.0,0.0,0.0,0.0,0.0,0.0,0.0,0.0,0.0,0.0,0.0,0.0,0.0,0.0,0.0,0.0,0.0,0.0,0.0,0.0,1.5832,1.5832,1.5832,1.5832,1.5832,1.5642,1.5642,0.0,0.0,0.0,0.0,0.0,0.0,0.0,0.0,0.0,0.0,0.0,0.0,0.0,0.0,0.0,0.0,0.0,0.0,0.0,0.0,0.0,0.0,0.0,0.0,0.0,0.0,0.0,0.0,0.0,0.0,0.0,0.0,0.0,0.0,0.0,0.0,0.0,0.0,0.0,0.0,0.0,0.0,0.0,0.0,0.0,0.0,0.0,0.0,0.0,0.0,0.0,0.0,0.0,0.0,0.0,0.0,0.0,0.0,0.0,0.0,0.0,0.0,0.0,0.0,0.0,0.0,0.0,0.0,0.0,0.0,0.0,0.0,0.0,0.0,0.0,0.0,0.0,0.0,0.0,0.0,0.0,0.0,0.0,0.0,0.0,0.0,0.0,0.0,0.0,0.0,0.0,0.0,0.0,0.0,0.0,0.0,0.0,0.0,0.0,0.0,0.0,0.0,0.0,0.0,0.0,0.0,0.0,0.0,1.5832,1.5832,1.5832,1.5832,1.5832,1.5832,1.5724,0.0,0.0,0.0,0.0,0.0,0.0,0.0,0.0,0.0,0.0,0.0,0.0,0.0,0.0,0.0,0.0,0.0,0.0,0.0,0.0,0.0,0.0,0.0,0.0,0.0,0.0,0.0,0.0,0.0,0.0,0.0,0.0,0.0,0.0,0.0,0.0,0.0,0.0,0.0,0.0,0.0,0.0,0.0,0.0,0.0,0.0,0.0,0.0,0.0,0.0,0.0,0.0,0.0,0.0,0.0,0.0,0.0,0.0,0.0,0.0,0.0,0.0,0.0,0.0,0.0,0.0,0.0,0.0,0.0,0.0,0.0,0.0,0.0,0.0,0.0,0.0,0.0,0.0,0.0,0.0,0.0,0.0,0.0,0.0,0.0,0.0,0.0,0.0,0.0,0.0,0.0,0.0,0.0,0.0,0.0,0.0,0.0,0.0,0.0,0.0,0.0,0.0,0.0,0.0,0.0,0.0,0.0,0.0,1.5832,1.5832,1.5832,1.5832,1.5832,1.5832,1.5737,0.0,0.0,0.0,0.0,0.0,0.0,0.0,0.0,0.0,0.0,0.0,0.0,0.0,0.0,0.0,0.0,0.0,0.0,0.0,0.0,0.0,0.0,0.0,0.0,0.0,0.0,0.0,0.0,0.0,0.0,0.0,0.0,0.0,0.0,0.0,0.0,0.0,0.0,0.0,0.0,0.0,0.0,0.0,0.0,0.0,0.0,0.0,0.0,1.9181,0.0,0.0,0.0,0.0,0.0,0.0,0.0,0.0,0.0,0.0,0.0,0.0,0.0,0.0,0.0,0.0,0.0,0.0,0.0,0.0,0.0,0.0,0.0,0.0,0.0,0.0,0.0,0.0,0.0,0.0,0.0,0.0,0.0,0.0,0.0,0.0,0.0,0.0,0.0,0.0,0.0,0.0,0.0,0.0,0.0,0.0,0.0,0.0,0.0,0.0,0.0,0.0,0.0,0.0,0.0,0.0,0.0,0.0,0.0,1.5832,1.5832,1.5832,1.5832,1.5832,1.5832,1.5832,0.0,0.0,0.0,0.0,0.0,0.0,0.0,0.0,0.0,0.0,0.0,0.0,0.0,0.0,0.0,0.0,0.0,0.0,0.0,0.0,0.0,0.0,0.0,0.0,0.0,0.0,0.0,0.0,0.0,0.0,0.0,0.0,0.0,0.0,0.0,0.0,0.0,0.0,0.0,0.0,0.0,0.0,0.0,0.0,0.0,0.0,0.0,0.0,0.0,0.0,0.0,0.0,0.0,0.0,0.0,0.0,0.0,0.0,0.0,0.0,0.0,0.0,0.0,0.0,0.0,0.0,0.0,0.0,0.0,0.0,0.0,0.0,0.0,0.0,0.0,0.0,0.0,0.0,0.0,0.0,0.0,0.0,0.0,0.0,0.0,0.0,0.0,0.0,0.0,0.0,0.0,0.0,0.0,0.0,0.0,0.0,0.0,0.0,0.0,0.0,0.0,0.0,0.0,0.0,0.0,0.0,0.0,1.5832,1.5832,1.5832,1.5832,1.5927,1.5927,1.5927,1.5927,1.5927,0.0,0.0,0.0,0.0,0.0,0.0,0.0,0.0,0.0,0.0,0.0,0.0,0.0,0.0,0.0,0.0,0.0,0.0,0.0,0.0,0.0,0.0,0.0,0.0,0.0,0.0,0.0,0.0,0.0,0.0,0.0,0.0,0.0,0.0,0.0,0.0,0.0,0.0,1.8584,1.9092,0.0,0.0,0.0,0.0,0.0,0.0,0.0,0.0,2.0347,0.0,0.0,0.0,0.0,0.0,0.0,0.0,0.0,0.0,0.0,0.0,0.0,0.0,0.0,0.0,0.0,0.0,0.0,0.0,0.0,0.0,0.0,0.0,0.0,0.0,0.0,0.0,0.0,0.0,0.0,0.0,0.0,0.0,0.0,0.0,0.0,0.0,0.0,0.0,0.0,0.0,0.0,0.0,0.0,0.0,0.0,0.0,0.0,0.0,0.0,0.0,0.0,0.0,0.0,0.0,0.0,1.5832,1.5832,1.5927,1.6116,1.613,1.6211,1.6494,1.6494,1.6494,1.648,0.0,0.0,0.0,0.0,0.0,0.0,0.0,0.0,0.0,0.0,0.0,0.0,0.0,0.0,0.0,0.0,0.0,0.0,0.0,0.0,0.0,0.0,0.0,0.0,0.0,0.0,0.0,0.0,0.0,0.0,0.0,0.0,0.0,0.0,0.0,0.0,0.0,0.0,0.0,1.9519,1.9733,0.0,0.0,0.0,0.0,0.0,0.0,0.0,0.0,2.0762,0.0,0.0,0.0,0.0,0.0,0.0,0.0,0.0,0.0,0.0,0.0,0.0,0.0,0.0,0.0,0.0,0.0,0.0,0.0,0.0,0.0,0.0,0.0,0.0,0.0,0.0,0.0,0.0,0.0,0.0,0.0,0.0,0.0,0.0,0.0,0.0,0.0,0.0,0.0,0.0,0.0,0.0,0.0,0.0,0.0,0.0,0.0,0.0,0.0,0.0,0.0,0.0,0.0,0.0,0.0,1.5858,1.5979,1.6155,1.6471,1.6607,1.6704,1.6826,1.6826,1.6756,0.0,0.0,0.0,0.0,0.0,0.0,0.0,0.0,0.0,0.0,0.0,0.0,0.0,0.0,0.0,0.0,0.0,0.0,0.0,0.0,0.0,0.0,0.0,0.0,0.0,0.0,0.0,0.0,0.0,0.0,0.0,0.0,0.0,0.0,0.0,0.0,0.0,0.0,0.0,0.0,1.9706,1.9853,2.0,0.0,0.0,0.0,0.0,0.0,0.0,2.0802,2.0949,0.0,0.0,0.0,0.0,0.0,0.0,0.0,0.0,0.0,0.0,0.0,0.0,0.0,0.0,0.0,0.0,0.0,0.0,0.0,0.0,0.0,0.0,0.0,0.0,0.0,0.0,0.0,0.0,0.0,0.0,0.0,0.0,0.0,0.0,0.0,0.0,0.0,0.0,0.0,0.0,0.0,0.0,0.0,0.0,0.0,0.0,0.0,0.0,0.0,0.0,0.0,0.0,0.0,0.0,0.0,1.6034,1.6152,1.6495,1.6869,1.709,1.7301,1.744,1.7369,1.7227,0.0,0.0,0.0,0.0,0.0,0.0,0.0,0.0,0.0,0.0,0.0,0.0,0.0,0.0,0.0,0.0,0.0,0.0,0.0,0.0,0.0,0.0,0.0,0.0,0.0,0.0,0.0,0.0,0.0,0.0,0.0,0.0,0.0,0.0,0.0,0.0,0.0,0.0,0.0,0.0,0.0,1.9987,2.0281,2.0374,0.0,0.0,0.0,0.0,2.0775,2.0962,0.0,0.0,0.0,0.0,0.0,0.0,0.0,0.0,0.0,0.0,0.0,0.0,0.0,0.0,0.0,0.0,0.0,0.0,0.0,0.0,0.0,0.0,0.0,0.0,0.0,0.0,0.0,0.0,0.0,0.0,0.0,0.0,0.0,0.0,0.0,0.0,0.0,0.0,0.0,0.0,0.0,0.0,0.0,0.0,0.0,0.0,0.0,0.0,0.0,0.0,0.0,0.0,0.0,0.0,0.0,0.0,1.6538,1.637,1.6687,1.7343,1.7484,1.7782,1.8528,1.8275,1.8097,0.0,0.0,0.0,0.0,0.0,0.0,0.0,0.0,0.0,0.0,0.0,0.0,0.0,0.0,0.0,0.0,0.0,0.0,0.0,0.0,0.0,0.0,0.0,0.0,0.0,0.0,0.0,0.0,0.0,0.0,0.0,0.0,0.0,0.0,0.0,0.0,0.0,0.0,0.0,0.0,0.0,2.0294,2.0588,2.0855,2.1002,0.0,0.0,2.1069,2.1056,2.1082,0.0,0.0,0.0,0.0,0.0,0.0,0.0,0.0,0.0,0.0,0.0,0.0,0.0,0.0,0.0,0.0,0.0,0.0,0.0,0.0,0.0,0.0,0.0,0.0,0.0,0.0,0.0,0.0,0.0,0.0,0.0,0.0,0.0,0.0,0.0,0.0,0.0,0.0,0.0,0.0,0.0,0.0,0.0,0.0,0.0,0.0,0.0,0.0,0.0,0.0,0.0,0.0,0.0,0.0,0.0,1.6249,1.6717,1.6919,1.7237,1.7764,1.8252,1.8658,1.897,1.8754,1.8595,0.0,0.0,0.0,0.0,0.0,0.0,0.0,0.0,0.0,0.0,0.0,0.0,0.0,0.0,0.0,0.0,0.0,0.0,0.0,0.0,0.0,0.0,0.0,0.0,0.0,0.0,0.0,0.0,0.0,0.0,0.0,0.0,0.0,0.0,0.0,0.0,0.0,0.0,0.0,0.0,0.0,0.0,2.0882,2.1029,0.0,0.0,0.0,2.1109,2.1109,0.0,0.0,0.0,0.0,0.0,0.0,0.0,0.0,0.0,0.0,0.0,0.0,0.0,0.0,0.0,0.0,0.0,0.0,0.0,0.0,0.0,0.0,0.0,0.0,0.0,0.0,0.0,0.0,0.0,0.0,0.0,0.0,0.0,0.0,0.0,0.0,0.0,0.0,0.0,0.0,0.0,0.0,0.0,0.0,0.0,0.0,0.0,0.0,0.0,0.0,0.0,0.0,0.0,0.0,0.0,0.0,0.0,1.6936,1.736,1.7709,1.8086,1.883,1.9361,1.94,1.9384,0.0,0.0,0.0,0.0,0.0,0.0,0.0,0.0,0.0,0.0,0.0,0.0,0.0,0.0,0.0,0.0,0.0,0.0,0.0,0.0,0.0,0.0,0.0,0.0,0.0,0.0,0.0,1.7025,0.0,0.0,0.0,0.0,0.0,0.0,0.0,0.0,0.0,0.0,0.0,0.0,0.0,0.0,2.0788,2.1069,2.1109,2.1109,0.0,0.0,2.1109,2.1109,2.1109,2.1109,0.0,0.0,0.0,0.0,0.0,0.0,0.0,0.0,0.0,0.0,0.0,0.0,0.0,0.0,0.0,0.0,0.0,0.0,0.0,0.0,0.0,0.0,0.0,0.0,0.0,0.0,0.0,0.0,0.0,0.0,0.0,0.0,0.0,0.0,0.0,0.0,0.0,0.0,0.0,0.0,0.0,0.0,0.0,0.0,0.0,0.0,0.0,0.0,0.0,0.0,0.0,0.0,0.0,0.0,0.0,1.7524,1.7565,1.7805,1.838,1.8945,1.9569,2.004,2.0241,2.0194,0.0,0.0,0.0,0.0,0.0,0.0,0.0,0.0,0.0,0.0,0.0,0.0,0.0,0.0,0.0,0.0,0.0,0.0,0.0,0.0,0.0,0.0,0.0,0.0,0.0,0.0,0.0,0.0,0.0,0.0,0.0,0.0,0.0,0.0,0.0,0.0,0.0,0.0,0.0,0.0,0.0,2.0775,2.1069,2.1109,2.1109,0.0,0.0,2.1109,2.1109,2.1109,2.1109,2.1109,0.0,0.0,0.0,0.0,0.0,0.0,0.0,0.0,0.0,0.0,0.0,0.0,0.0,0.0,0.0,0.0,0.0,0.0,0.0,0.0,0.0,0.0,0.0,0.0,0.0,0.0,0.0,0.0,0.0,0.0,0.0,0.0,0.0,0.0,0.0,0.0,0.0,0.0,0.0,0.0,0.0,0.0,0.0,0.0,0.0,0.0,0.0,0.0,0.0,0.0,0.0,0.0,0.0,1.7144,1.7606,1.7964,1.8206,1.8422,1.9361,1.9879,2.0086,2.0474,2.0619,0.0,0.0,0.0,0.0,0.0,0.0,0.0,0.0,0.0,0.0,0.0,0.0,0.0,0.0,0.0,0.0,0.0,0.0,0.0,0.0,0.0,0.0,0.0,0.0,0.0,0.0,0.0,0.0,1.7702,1.7582,1.7582,0.0,0.0,0.0,0.0,0.0,0.0,0.0,0.0,0.0,0.0,2.0989,2.1096,2.1109,0.0,0.0,2.1109,2.1109,2.1109,2.1109,2.1109,2.1109,2.1109,0.0,0.0,0.0,0.0,0.0,0.0,0.0,0.0,0.0,0.0,0.0,0.0,0.0,0.0,0.0,0.0,0.0,0.0,0.0,0.0,0.0,0.0,0.0,0.0,0.0,0.0,0.0,0.0,0.0,0.0,0.0,0.0,0.0,0.0,0.0,0.0,0.0,0.0,0.0,0.0,0.0,0.0,0.0,0.0,0.0,0.0,0.0,0.0,0.0,0.0,0.0,0.0,1.7311,1.7626,1.8011,1.8318,1.8422,1.9465,2.0086,2.0189,2.0772,2.1096,0.0,0.0,0.0,0.0,0.0,0.0,0.0,0.0,0.0,0.0,0.0,0.0,0.0,0.0,0.0,0.0,0.0,0.0,0.0,0.0,0.0,0.0,0.0,0.0,0.0,0.0,0.0,0.0,1.7983,1.7809,1.7729,0.0,0.0,0.0,0.0,0.0,0.0,0.0,0.0,0.0,0.0,2.1109,2.1109,2.1109,2.1109,2.1109,2.1109,2.1109,2.1109,2.1109,2.1136,2.1229,0.0,0.0,0.0,0.0,0.0,0.0,0.0,0.0,0.0,0.0,0.0,0.0,0.0,0.0,0.0,0.0,0.0,0.0,0.0,0.0,0.0,0.0,0.0,0.0,0.0,0.0,0.0,0.0,0.0,0.0,1.9372,0.0,0.0,0.0,0.0,0.0,0.0,0.0,0.0,0.0,0.0,0.0,0.0,0.0,0.0,0.0,0.0,0.0,0.0,0.0,0.0,0.0,0.0,1.7288,1.7569,1.7911,1.8122,1.8422,1.9257,1.9983,2.0411,2.1216,2.1762,2.2004,0.0,0.0,0.0,0.0,0.0,0.0,0.0,0.0,0.0,0.0,0.0,0.0,0.0,0.0,0.0,0.0,0.0,0.0,0.0,0.0,0.0,0.0,0.0,0.0,0.0,0.0,1.8504,1.8477,1.8343,0.0,0.0,0.0,0.0,0.0,0.0,0.0,0.0,0.0,0.0,2.0735,2.1109,2.1109,2.1109,2.1109,2.1109,2.1109,2.1109,2.1109,2.1109,2.1216,0.0,0.0,0.0,0.0,0.0,0.0,0.0,0.0,0.0,0.0,0.0,0.0,0.0,0.0,0.0,0.0,0.0,0.0,0.0,0.0,0.0,0.0,0.0,0.0,0.0,0.0,0.0,1.9372,1.9372,0.0,0.0,0.0,0.0,0.0,0.0,0.0,0.0,0.0,0.0,0.0,1.9372,1.9372,0.0,0.0,0.0,0.0,0.0,0.0,0.0,0.0,0.0,0.0,0.0,0.0,1.7488,1.7582,1.7911,1.8122,1.8422,1.9257,1.9879,2.0205,2.1216,2.1862,2.2201,0.0,0.0,0.0,0.0,0.0,0.0,0.0,0.0,0.0,0.0,0.0,0.0,0.0,0.0,0.0,0.0,0.0,0.0,0.0,0.0,0.0,0.0,0.0,0.0,0.0,1.8811,0.0,0.0,0.0,0.0,0.0,0.0,0.0,0.0,0.0,0.0,0.0,2.0307,2.0508,2.0869,2.1109,2.1109,2.1109,2.1109,0.0,0.0,0.0,0.0,0.0,0.0,0.0,0.0,0.0,0.0,0.0,0.0,0.0,0.0,1.9435,1.7819,1.6496,1.5046,1.3792,0.0,0.0,0.0,0.0,0.0,0.0,0.0,0.0,0.0,0.0,0.0,0.0,0.0,0.0,1.9613,0.0,1.9519,0.0,0.0,0.0,0.0,0.0,0.0,0.0,0.0,1.9372,1.9372,1.9372,1.9372,1.9265,0.0,1.8971,1.8731,0.0,0.0,0.0,0.0,0.0,0.0,0.0,0.0,1.7582,1.7582,1.7793,1.8003,1.8422,1.9049,1.9672,2.0189,2.1302,2.2231,2.2687,2.2617,2.2617,0.0,0.0,0.0,0.0,0.0,0.0,0.0,0.0,0.0,0.0,0.0,0.0,0.0,0.0,0.0,0.0,0.0,0.0,0.0,0.0,0.0,0.0,0.0,1.8971,0.0,0.0,0.0,0.0,0.0,0.0,0.0,0.0,0.0,1.9786,2.0054,2.0334,2.0641,2.0922,2.1109,2.1109,0.0,0.0,0.0,0.0,0.0,0.0,0.0,2.1617,2.1817,2.2004,2.2271,2.2659,2.2493,2.2358,2.2306,0.0,0.0,1.8465,1.6957,1.5457,1.4164,1.3282,1.267,1.2038,1.1993,1.206,0.0,0.0,0.0,0.0,0.0,0.0,0.0,0.0,1.9973,1.992,0.0,1.9681,0.0,0.0,0.0,0.0,0.0,1.9386,0.0,0.0,1.9412,1.9399,1.9399,1.9399,1.9386,1.9359,1.9092,1.8931,1.8891,1.8343,0.0,0.0,0.0,0.0,0.0,0.0,1.7582,1.7582,1.7582,1.7898,1.8318,1.8617,1.9361,2.0514,2.1725,2.2736,2.3338,2.3203,2.3302,2.3755,2.3038,0.0,0.0,0.0,0.0,0.0,0.0,0.0,0.0,0.0,0.0,0.0,0.0,0.0,0.0,0.0,0.0,0.0,0.0,0.0,0.0,1.9372,0.0,0.0,0.0,0.0,0.0,0.0,0.0,0.0,0.0,0.0,1.9853,2.008,2.0361,2.0655,0.0,0.0,0.0,0.0,2.1109,2.1109,2.1109,2.1229,2.151,2.1577,2.1777,2.2325,0.0,0.0,2.322,2.3034,2.2717,2.2574,2.1643,2.0607,1.9289,1.7769,1.6306,1.4703,1.3675,1.2962,1.2373,1.2108,1.2121,2.0294,0.0,0.0,0.0,0.0,2.0067,1.9973,1.9719,2.0066,2.0187,2.0241,2.0107,0.0,0.0,0.0,0.0,0.0,0.0,1.9786,1.9973,1.9987,1.9987,1.9973,1.9773,1.9666,1.9666,1.9372,1.9132,1.8918,1.8758,1.841,1.7916,0.0,0.0,0.0,0.0,1.7582,1.7582,1.7582,1.7793,1.8122,1.8527,1.945,2.0719,2.1522,2.2232,2.2736,2.3473,2.3773,2.3555,2.3691,0.0,0.0,0.0,0.0,0.0,0.0,0.0,0.0,0.0,0.0,0.0,0.0,0.0,0.0,0.0,0.0,0.0,0.0,0.0,1.9372,1.9372,1.9332,0.0,0.0,0.0,0.0,0.0,0.0,0.0,0.0,0.0,2.0374,2.0494,2.0655,0.0,0.0,2.1109,2.1109,2.1109,2.1109,2.1109,2.1296,0.0,2.1537,2.1897,2.2231,2.2392,2.2592,2.2873,2.326,2.3219,2.3015,2.2866,2.2044,2.098,1.9767,1.801,1.6361,1.4728,1.3932,1.3159,1.2505,1.2461,1.2569,2.0748,2.0561,2.0334,2.0241,2.0241,2.0361,2.0265,2.0007,2.0398,2.0658,2.0686,2.055,2.0347,2.0227,2.0054,0.0,0.0,0.0,2.0067,2.0241,2.0241,2.0241,2.0214,2.0054,1.9907,1.98,1.9626,1.9386,1.9105,1.8985,1.8744,1.8384,0.0,0.0,1.7595,1.7582,1.7582,1.7582,1.7582,1.7687,1.8016,1.8632,1.9569,2.0719,2.113,2.1725,2.2434,2.3173,2.3591,2.3555,2.3655,2.3456,0.0,0.0,0.0,0.0,0.0,0.0,0.0,0.0,0.0,0.0,0.0,1.9372,0.0,0.0,0.0,0.0,1.9372,1.9372,1.9372,1.9372,0.0,0.0,0.0,0.0,0.0,0.0,0.0,1.9773,2.0,2.0281,2.0628,2.0775,2.0909,2.1082,2.1109,2.1109,2.1109,0.0,2.1149,2.1269,2.143,2.163,2.1871,2.2191,2.2458,2.2579,2.2739,2.302,2.3434,2.3519,2.3327,2.3108,2.2447,2.1349,1.9995,1.8251,1.6618,1.5035,1.4228,1.3436,1.2807,1.2759,1.2847,2.1109,2.1056,2.0521,2.0307,2.0334,2.0601,2.0571,2.0309,2.085,2.1101,2.1135,2.0846,2.0548,2.0267,2.0267,0.0,2.0267,2.0267,2.0281,2.0294,2.0294,2.0307,2.0294,2.0281,2.012,1.9867,1.9826,1.9666,1.9399,1.9105,1.8945,1.8905,1.8384,1.7956,1.7635,1.7622,1.7609,1.7582,1.7582,1.7701,1.8016,1.8855,1.9583,2.0426,2.0719,2.1318,2.2316,2.2535,2.2955,2.3637,2.3302,2.3203,2.3338,0.0,0.0,0.0,0.0,0.0,0.0,0.0,0.0,0.0,0.0,0.0,0.0,0.0,0.0,0.0,1.9372,0.0,1.9372,1.9372,0.0,0.0,0.0,1.9399,1.9399,1.9653,1.984,1.9867,0.0,0.0,2.0708,2.0949,2.1109,2.1109,2.1109,2.1109,2.1109,2.1109,2.1216,2.1496,2.1577,2.179,2.2271,2.2432,2.2552,2.2792,2.2859,2.3086,2.3621,2.3754,2.3707,2.3472,2.2694,2.1648,2.0135,1.8451,1.7014,1.5491,1.4602,1.3877,1.3241,1.2976,1.299,2.1109,2.1096,2.0962,2.0895,2.0909,2.0975,2.1002,2.0876,2.1069,2.1069,2.1141,2.1015,2.0842,2.0575,2.0575,2.0575,2.0575,2.0575,2.0695,2.0895,2.0895,2.0909,2.0895,2.0681,2.0535,2.0441,2.0013,1.976,1.9679,1.9399,1.9145,1.8931,1.8784,1.845,1.7956,1.7929,1.7822,1.7582,1.7582,1.7687,1.8016,1.8436,1.8959,1.9583,2.0205,2.0822,2.1216,2.2131,2.2636,2.2837,2.3003,2.3103,2.3038,2.2937,0.0,0.0,0.0,0.0,0.0,0.0,0.0,0.0,0.0,1.9591,1.9372,0.0,1.9372,0.0,1.9372,1.9372,1.9372,1.9372,0.0,0.0,1.9559,1.9693,1.9693,1.996,2.0214,2.0441,2.0588,2.0762,2.0989,2.1069,2.1109,2.1109,2.1109,2.1109,2.1109,2.1109,2.1216,2.151,2.1737,2.2004,2.2365,2.2619,2.2766,2.2846,2.2859,2.3073,2.3674,2.3781,2.3667,2.3459,2.2694,2.1648,2.0135,1.8471,1.7023,1.5819,1.4774,1.3922,1.371,1.3443,1.3159,2.1229,2.1109,2.1109,2.1109,2.1109,2.1109,2.1109,2.1109,2.1109,2.1109,2.1109,2.1109,2.1015,2.0869,2.0869,2.0869,2.0869,2.0869,2.0962,2.1109,2.1109,2.1109,2.1096,2.0949,2.0802,2.0668,2.0347,2.0054,1.98,1.9639,1.9412,1.9132,1.9118,1.8891,1.845,1.8303,1.8156,1.7996,1.7862,1.7835,1.8016,1.8122,1.8541,1.9272,1.9687,2.0205,2.0719,2.1436,2.1928,2.2131,2.2518,2.2619,2.2636,2.2808,2.2605,0.0,0.0,0.0,0.0,0.0,0.0,0.0,0.0,0.0,0.0,0.0,1.9372,1.9372,1.9372,1.9372,1.9372,1.9372,1.9426,1.9546,1.9706,1.984,1.9973,2.0254,2.0494,2.0655,2.0788,2.0922,2.1082,2.1109,2.1109,2.1109,2.1109,2.1109,2.1109,2.1109,2.1256,2.154,2.1871,2.2138,2.2552,2.2752,2.2859,2.2859,2.2859,2.3033,2.3487,2.3688,2.3628,2.3318,2.2621,2.1648,2.0135,1.8471,1.7167,1.6268,1.4931,1.4117,1.376,1.3554,1.3308,2.1456,2.1216,2.1229,2.1229,2.1229,2.1216,2.1176,2.1109,2.1109,2.1109,2.1109,2.1109,2.1109,2.1109,2.1109,2.1109,2.1109,2.1109,2.1109,2.1109,2.1109,2.1109,2.1109,2.1109,2.0975,2.0735,2.0695,2.0414,1.992,1.988,1.9706,1.9439,1.9426,1.9265,1.8985,1.8731,1.8571,1.849,1.8237,1.809,1.8047,1.814,1.8429,1.9136,1.933,1.9628,2.0308,2.0719,2.1027,2.1522,2.186,2.1995,2.1995,2.2361,2.2474,0.0,2.206,0.0,0.0,0.0,0.0,0.0,0.0,0.0,0.0,1.9372,1.9372,1.9372,1.9372,1.9372,1.9372,1.9399,1.9519,1.9773,1.9867,2.0013,2.0267,2.0548,2.0735,2.0735,2.0949,2.1109,2.1109,2.1109,2.1109,2.1109,2.1109,2.1109,2.1109,2.1109,2.1296,2.17,2.1991,2.2405,2.2712,2.2859,2.2859,2.2859,2.2859,2.2979,2.3287,2.3541,2.3535,2.3126,2.2645,2.1751,2.0124,1.8471,1.7158,1.6561,1.5063,1.3944,1.3908,1.3589,1.337,2.1871,2.1817,2.183,2.1817,2.1817,2.1817,2.155,2.1109,2.1109,2.1109,2.1109,2.1109,2.1109,2.1109,2.1109,2.1109,2.1109,2.1109,2.1109,2.1109,2.1109,2.1109,2.1109,2.1109,2.1082,2.1015,2.0788,2.0615,2.0508,2.0267,2.0,1.972,1.972,1.9573,1.9292,0.0,0.0,0.0,1.8437,1.8384,1.844,1.8646,1.8741,1.8721,1.9227,0.0,1.9494,2.0205,2.0617,2.0735,2.1195,0.0,0.0,0.0,0.0,0.0,0.0,0.0,0.0,0.0,0.0,0.0,1.9924,1.9693,1.9475,1.9372,1.9372,1.9372,1.9372,1.9372,1.9372,1.9573,1.9733,1.98,2.0214,2.0535,2.0601,2.0842,2.1029,2.1029,2.1069,2.1109,2.1109,2.1109,2.1109,2.1109,2.1109,2.1109,2.1109,2.1109,2.1243,2.159,2.2176,2.2754,2.2806,2.2859,2.2859,2.2859,2.2859,2.2979,2.3247,2.3367,2.3324,2.3049,2.2655,2.1882,2.0102,1.8471,1.7121,1.641,1.4991,1.4094,1.4246,1.3683,1.3254,2.2111,0.0,2.1991,2.1991,0.0,2.1991,2.1817,2.1537,2.139,2.1243,2.1109,2.1109,2.1109,2.1109,2.1109,2.1189,2.1336,2.1323,2.1403,2.1537,2.1248,2.1182,2.1323,2.1176,2.1109,2.1096,2.0962,2.0815,2.0668,2.0521,2.0307,2.0013,2.0013,1.9947,1.98,1.9653,1.9292,1.8704,1.8704,1.8637,1.849,1.8588,1.8741,1.87,1.9122,0.0,0.0,0.0,0.0,0.0,0.0,0.0,0.0,0.0,0.0,2.1572,2.1547,2.1519,2.1195,2.0759,2.0399,2.0053,1.9822,1.9591,1.9372,1.9372,1.9372,1.9372,1.9372,1.9426,1.9573,1.972,1.992,2.0201,2.0494,2.0722,2.0869,2.1015,2.1109,2.1109,2.1109,2.1109,2.1109,2.1109,2.1109,2.1109,2.1109,2.1109,2.1109,2.1109,2.1256,2.184,2.2416,2.2836,2.2942,2.2859,2.2859,2.2859,2.2859,2.2926,2.3073,2.322,2.3153,2.2729,2.2563,2.1933,1.9938,1.8391,1.7102,1.6365,1.4895,1.3945,1.4199,1.3717,1.3193,2.2352,2.2138,2.2138,2.2138,2.2138,2.2138,2.2111,2.2044,0.0,0.0,0.0,2.1269,2.1269,2.1269,2.1269,2.1403,2.163,2.163,2.175,2.1977,2.145,2.1474,2.1617,2.1323,2.1176,2.1189,2.1136,2.0989,2.0762,2.0762,2.0601,2.0334,2.0307,2.0281,2.0214,2.0,1.9639,1.9172,1.9052,1.8891,1.8664,1.8637,1.8722,1.8891,1.8891,1.9071,1.9236,1.9456,1.98,2.0019,2.0281,2.0639,2.0858,2.1173,2.1354,2.1369,2.1171,2.0974,2.0974,2.027,1.9822,1.9693,1.9475,1.9372,1.9372,1.9372,1.9372,1.9372,1.9372,1.9492,1.9773,1.9853,2.0094,2.0615,2.0722,2.0855,2.1069,2.1109,2.1109,2.1109,2.1109,2.1109,2.1109,2.1109,2.1109,2.1109,2.1109,2.1109,2.1109,2.1036,2.1248,2.1871,2.2525,2.2836,2.2929,2.2859,2.2859,2.2859,2.2859,2.2859,2.2899,2.3073,2.2955,2.2358,2.235,2.1471,1.9796,1.817,1.7084,1.6357,1.4822,1.3781,1.3781,1.3568,1.3132,2.2779,2.2739,2.2739,2.2739,2.2739,2.2739,2.2592,2.2338,2.2044,2.1897,2.1857,2.1857,2.1857,2.1857,2.1857,2.1884,2.1924,2.1924,2.1951,2.1991,2.1937,2.1911,2.1911,2.1331,2.1199,2.147,2.1229,2.1082,2.1056,2.1042,2.0895,2.0641,2.0615,2.0494,2.0254,2.0187,2.0134,2.004,1.9559,1.9279,1.9252,1.9239,1.9118,1.8878,1.9077,1.9179,1.8919,1.925,1.9346,1.9456,1.971,1.9962,1.9977,2.026,2.043,2.0444,2.0472,2.0385,2.0385,2.004,1.9707,1.9488,1.9359,1.9372,1.9372,1.9372,1.9372,1.9372,1.9372,1.9492,1.9773,2.0027,2.0307,2.0641,2.0895,2.1069,2.1109,2.1109,2.1109,2.1109,2.1109,2.1109,2.1109,2.1109,2.1109,2.1109,2.1109,2.1109,2.1162,2.1054,2.1318,2.1924,2.2538,2.2836,2.2929,2.2859,2.2859,2.2859,2.2859,2.2859,2.2859,2.2913,2.2757,2.2269,2.2032,2.1293,1.973,1.7679,1.6581,1.6033,1.4822,1.3759,1.3649,1.3268,1.303,2.3354,2.3354,2.3354,2.3354,2.334,2.318,2.2939,2.2659,2.2525,2.2285,2.1991,2.1991,2.1991,2.1991,2.1991,2.2071,2.2218,2.2218,2.2311,2.2445,2.2459,2.2364,2.2191,2.2069,2.1934,2.1764,2.1483,2.1349,2.1336,2.1189,2.1042,2.0922,2.0922,2.0842,2.0708,2.0548,2.0468,2.0468,2.0054,1.976,1.9613,1.9599,1.9466,1.9172,1.9273,1.9334,1.9185,1.9299,1.9398,1.9624,1.9763,1.9832,2.006,2.02,2.027,2.027,2.0155,2.004,2.004,1.9707,1.9475,1.9372,1.9372,1.9372,1.9372,1.9372,1.9372,1.9372,1.9506,1.972,2.0,2.0294,2.0588,2.0882,2.1042,2.1096,2.1109,2.1109,2.1109,2.1109,2.1109,2.1109,2.1109,2.1109,2.1109,2.1109,2.1109,2.1162,2.1323,2.1162,2.1385,2.1977,2.2525,2.2836,2.2942,2.2859,2.2859,2.2859,2.2859,2.2859,2.2859,2.2722,2.2362,2.2077,2.1807,2.1078,1.9555,1.7514,1.6313,1.5718,1.4669,1.3744,1.3465,1.3218,1.3017,2.3781,2.3781,2.3781,2.3781,2.3754,2.3527,2.3287,2.3073,2.306,2.2806,2.2405,2.2245,2.2178,2.2178,2.2178,2.2311,2.2498,2.2512,2.2645,2.2819,2.293,2.2822,2.2498,2.2685,2.2535,2.2058,2.179,2.1643,2.1617,2.1349,2.1176,2.1109,2.1109,2.1109,2.1109,2.0882,2.0775,2.0762,2.0548,2.0254,1.9907,1.9893,1.9786,1.9586,1.9506,1.9466,1.9466,1.9399,1.9475,1.9707,1.9707,1.9822,2.004,2.004,2.0053,2.004,1.9809,1.9707,1.9707,1.9475,1.9372,1.9372,1.9372,1.9372,1.9372,1.9372,1.9372,1.9399,1.9626,1.9907,2.0187,2.0494,2.0788,2.1056,2.1109,2.1109,2.1109,2.1109,2.1109,2.1109,2.1109,2.1109,2.1109,2.1109,2.1109,2.1109,2.1162,2.1309,2.1537,2.1398,2.1608,2.1992,2.2485,2.2903,2.2832,2.2859,2.2859,2.2859,2.2859,2.2859,2.2859,2.2585,2.2173,2.1823,2.181,2.0959,1.9101,1.7379,1.625,1.5531,1.4507,1.3597,1.3035,1.3089,1.3051,2.3781,2.3781,2.3794,2.3781,2.3781,2.3741,2.3701,2.3661,2.3688,2.3661,2.35,2.3033,2.2779,2.2779,2.2779,2.2806,2.2832,2.2819,2.2859,2.2886,2.2832,2.2832,2.2792,2.2525,2.2378,2.2352,2.2084,2.1951,2.1937,2.1657,2.1376,2.1136,2.1109,2.1109,2.1109,2.1082,2.1069,2.1069,2.1042,2.0762,2.0241,2.0201,2.0187,2.016,1.9893,1.976,1.976,1.9506,1.9372,1.9488,1.9488,1.9488,1.9488,1.9488,1.9488,1.9488,1.9475,1.9475,1.9488,1.9372,1.9372,1.9372,1.9372,1.9372,1.9386,1.9386,1.9372,1.9439,1.9653,1.9947,2.0201,2.0521,2.0815,2.1069,2.1109,2.1109,2.1109,2.1109,2.1109,2.1109,2.1109,2.1109,2.1109,2.1109,2.1109,2.1149,2.1336,2.151,2.167,2.1727,2.191,2.2271,2.2632,2.2929,2.2859,2.2859,2.2859,2.2859,2.2859,2.2859,2.2722,2.2448,2.2035,2.1521,2.148,2.0626,1.8799,1.6953,1.594,1.5184,1.4191,1.3472,1.2991,1.284,1.3057,2.4275,2.4275,2.4289,2.4182,2.4048,2.4022,2.3928,2.3781,2.3781,2.3781,2.3754,2.3514,2.3407,2.3394,2.3407,2.3394,2.3394,2.3394,2.3407,2.3394,2.324,2.3147,2.3126,2.302,2.2873,2.2659,2.2378,2.2245,2.2191,2.1951,2.175,2.1617,2.147,2.1376,2.1363,2.1203,2.1109,2.1109,2.1109,2.0989,2.0762,2.0575,2.0401,2.0241,2.0107,2.0054,2.0054,1.9933,1.988,1.9867,1.972,1.9626,1.9626,1.9466,1.9372,1.9372,1.9372,1.9372,1.9372,1.9372,1.9372,1.9372,1.9372,1.9555,1.9861,1.9757,1.9679,1.9867,1.9987,2.0174,2.0468,2.0762,2.0989,2.1082,2.1109,2.1109,2.1109,2.1109,2.1109,2.1109,2.1109,2.1109,2.1109,2.1109,2.1189,2.1323,2.1496,2.167,2.1991,2.1978,2.2163,2.2632,2.2792,2.2846,2.2859,2.2859,2.2859,2.2859,2.2859,2.2859,2.2585,2.231,2.176,2.1081,2.0822,2.0014,1.8156,1.6462,1.5308,1.4454,1.3707,1.2859,1.2698,1.2854,1.3037,2.4756,2.4743,2.4676,2.4516,2.4329,2.4315,2.4209,2.4022,2.4008,2.4008,2.4008,2.4008,2.4008,2.3981,2.3848,2.3781,2.3781,2.3781,2.3781,2.3768,2.3612,2.3492,2.346,2.346,2.344,2.3006,2.2779,2.2579,2.2418,2.2218,2.2071,2.1964,2.1777,2.167,2.163,2.1376,2.1216,2.1075,2.1149,2.1109,2.1069,2.0909,2.0695,2.0481,2.0388,2.0347,2.0347,2.0267,2.0241,2.0227,2.0027,1.992,1.9907,1.972,1.9599,1.9613,1.9613,1.9599,1.9599,1.9599,1.9599,1.9599,1.9599,1.9824,2.0132,2.0053,2.0054,2.0307,2.0361,2.0454,2.0655,2.0935,2.1096,2.1109,2.1109,2.1109,2.1109,2.1109,2.1109,2.1109,2.1109,2.1109,2.1122,2.1189,2.1323,2.1496,2.1697,2.1897,2.2325,2.2324,2.247,2.2819,2.2859,2.2859,2.2859,2.2859,2.2859,2.2859,2.2859,2.2722,2.231,2.1897,2.1358,2.0665,2.0005,1.8986,1.7345,1.5903,1.4489,1.3801,1.3202,1.2535,1.2623,1.2793,1.2935,2.5064,2.5024,2.4756,2.4663,2.4623,2.4636,2.4623,2.4596,2.4596,2.4596,2.4596,2.4596,2.4596,2.4556,2.4102,2.3808,2.3794,2.3821,2.3821,2.3834,2.3808,2.3781,2.3754,2.3741,2.3594,2.3327,2.3273,2.2979,2.2485,2.2418,2.2258,2.2017,2.1991,2.1819,2.1766,2.167,2.1394,2.1212,2.1155,2.1136,2.1122,2.1109,2.1082,2.1029,2.0802,2.0655,2.0628,2.0388,2.0254,2.0241,2.0227,2.0214,2.0214,2.0187,2.016,2.016,2.0174,2.0174,2.016,2.0147,2.0026,1.9905,1.9986,2.0201,2.0483,2.0348,2.0347,2.0628,2.0655,2.0681,2.0722,2.0962,2.1096,2.1109,2.1109,2.1109,2.1109,2.1109,2.1109,2.1109,2.1109,2.1109,2.1109,2.1363,2.1496,2.167,2.2017,2.2378,2.2458,2.2659,2.2806,2.2846,2.2859,2.2859,2.2859,2.2859,2.2859,2.2859,2.2859,2.2722,2.2173,2.176,2.0943,2.0412,1.9901,1.8736,1.674,1.5199,1.3948,1.3232,1.2902,1.2535,1.2562,1.2657,1.2807,2.5358,2.5344,2.5251,2.5197,2.5197,2.5197,2.5197,2.5197,2.5197,2.5197,2.5197,2.5197,2.5197,2.5184,2.4983,2.4676,2.4342,2.4329,2.4329,2.4315,2.4315,2.4222,2.4062,2.4048,2.3901,2.3647,2.3607,2.3407,2.302,2.2806,2.2659,2.2525,2.2352,2.2258,2.2058,2.1964,2.1686,2.1516,2.1567,2.167,2.163,2.1496,2.139,2.1376,2.1109,2.0962,2.0949,2.0855,2.0788,2.0788,2.0615,2.0521,2.0494,2.0334,2.0241,2.0241,2.0241,2.0241,2.0241,2.0241,2.0241,2.0241,2.0241,2.0469,2.0753,2.0671,2.0628,2.0869,2.0949,2.0962,2.0975,2.1056,2.1109,2.1109,2.1109,2.1109,2.1109,2.1109,2.1109,2.1109,2.1109,2.1109,2.1176,2.1376,2.1617,2.183,2.2164,2.2458,2.2672,2.2806,2.2859,2.2859,2.2859,2.2859,2.2859,2.2859,2.2859,2.2859,2.2722,2.231,2.1897,2.1346,2.0665,1.9703,1.9352,1.829,1.6271,1.462,1.3372,1.2998,1.2656,1.2501,1.2501,1.263,1.2773,2.5598,2.5518,2.5518,2.5518,2.5518,2.5518,2.5518,2.5518,2.5518,2.5518,2.5518,2.5518,2.5518,2.5518,2.5518,2.5317,2.4943,2.4917,2.4877,2.4783,2.4783,2.4623,2.4382,2.4342,2.4182,2.3928,2.3808,2.3661,2.3474,2.326,2.3113,2.2993,2.2806,2.2659,2.2525,2.2271,2.2124,2.2111,2.2031,2.1977,2.1964,2.1804,2.1683,2.167,2.1496,2.1296,2.1122,2.1109,2.1109,2.1082,2.0922,2.0815,2.0802,2.0628,2.0521,2.0508,2.0521,2.0521,2.0521,2.0521,2.0521,2.0658,2.0535,2.0752,2.1078,2.0953,2.0922,2.1056,2.1109,2.1109,2.1109,2.1109,2.1109,2.1109,2.1109,2.1109,2.1109,2.1109,2.1109,2.1122,2.1216,2.1243,2.1309,2.1617,2.1897,2.2111,2.2378,2.2645,2.2806,2.2859,2.2859,2.2859,2.2859,2.2859,2.2859,2.2859,2.2859,2.2859,2.2585,2.2173,2.1622,2.0943,2.011,1.9284,1.8206,1.7278,1.5858,1.404,1.3251,1.3055,1.2811,1.2501,1.2549,1.263,1.2773,2.5798,2.5585,2.5531,2.5585,2.5598,2.5598,2.5545,2.5585,2.5571,2.5611,2.5638,2.5571,2.5611,2.5571,2.5625,2.5545,2.5518,2.5518,2.5358,2.5104,2.5077,2.4943,2.469,2.4649,2.4489,2.4195,2.3928,2.3794,2.3768,2.3701,2.3554,2.3367,2.33,2.314,2.2873,2.2645,2.262,2.2714,2.2391,2.2071,2.1991,2.2004,2.1991,2.1991,2.1937,2.1683,2.1176,2.1136,2.1136,2.1109,2.1096,2.1096,2.1069,2.1042,2.1069,2.1029,2.1069,2.1082,2.1069,2.1042,2.1002,2.1015,2.1069,2.1029,2.1042,2.1069,2.1082,2.1096,2.1109,2.1109,2.1109,2.1109,2.1109,2.1109,2.1109,2.1109,2.1109,2.1109,2.1109,2.1176,2.1349,2.1537,2.1657,2.1977,2.2298,2.2392,2.2619,2.2806,2.2846,2.2859,2.2859,2.2859,2.2859,2.2859,2.2859,2.2859,2.2859,2.2859,2.2448,2.2035,2.1346,2.0665,1.9541,1.8584,1.7116,1.6053,1.4604,1.3177,1.3015,1.2755,1.2622,1.2501,1.2549,1.2623,1.2779,2.6199,2.6119,2.6119,2.6119,2.6119,2.6119,2.6119,2.6119,2.6119,2.6119,2.6119,2.6119,2.6119,2.6119,2.6119,2.6106,2.6119,2.6106,2.5852,2.5451,2.5384,2.5331,2.5211,2.5037,2.4783,2.4489,2.4209,2.4075,2.4048,2.3888,2.3714,2.3647,2.3634,2.3413,2.2986,2.3227,2.326,2.2908,2.2953,2.2819,2.2592,2.2392,2.2285,2.2258,2.2098,2.1884,2.1724,2.1523,2.1323,2.1122,2.1109,2.1109,2.1109,2.1109,2.1109,2.1109,2.1109,2.1109,2.1109,2.1109,2.1109,2.1109,2.1109,2.1109,2.1109,2.1109,2.1109,2.1109,2.1109,2.1109,2.1109,2.1109,2.1109,2.1109,2.1109,2.1109,2.1136,2.1122,2.1203,2.1376,2.1496,2.163,2.1857,2.2231,2.2432,2.2458,2.2686,2.2859,2.2859,2.2859,2.2859,2.2859,2.2859,2.2859,2.2873,2.2913,2.2953,2.2789,2.2349,2.1823,2.1131,2.0296,1.9167,1.7693,1.6349,1.4933,1.3439,1.2705,1.2678,1.2594,1.2488,1.2508,1.2522,1.2637,1.2813,2.64,2.64,2.64,2.64,2.64,2.64,2.64,2.64,2.64,2.64,2.6386,2.6386,2.64,2.64,2.64,2.64,2.64,2.6386,2.6199,2.5852,2.5705,2.5625,2.5518,2.5331,2.5157,2.497,2.4783,2.4623,2.4516,2.4342,2.4155,2.3968,2.3941,2.3705,2.3314,2.3599,2.3647,2.336,2.3474,2.3394,2.3207,2.302,2.2873,2.2752,2.2579,2.2378,2.2164,2.1964,2.1683,2.1336,2.1176,2.1109,2.1109,2.1109,2.1109,2.1109,2.1109,2.1109,2.1109,2.1109,2.1109,2.1109,2.1109,2.1109,2.1109,2.1109,2.1109,2.1109,2.1109,2.1109,2.1109,2.1109,2.1109,2.1109,2.1109,2.1162,2.1229,2.141,2.1545,2.1773,2.1817,2.1964,2.2138,2.2392,2.2565,2.2619,2.2739,2.2859,2.2859,2.2859,2.2859,2.2873,2.2859,2.2873,2.2873,2.2939,2.3046,2.2592,2.2263,2.1761,2.1102,2.0017,1.8899,1.7086,1.5457,1.4547,1.3288,1.2782,1.258,1.2622,1.2508,1.2549,1.2589,1.2732,1.2901,2.64,2.64,2.64,2.64,2.64,2.64,2.64,2.64,2.64,2.64,2.64,2.64,2.6413,2.6413,2.6466,2.648,2.6453,2.6507,2.652,2.6386,2.6199,2.5959,2.5611,2.5558,2.5491,2.5438,2.5424,2.5317,2.5064,2.5024,2.4823,2.4396,2.4356,2.4155,2.4022,2.3875,2.3901,2.3964,2.3794,2.3781,2.3714,2.3714,2.3594,2.334,2.3287,2.3046,2.2592,2.2392,2.2111,2.1617,2.1323,2.1176,2.1149,2.1122,2.1109,2.1109,2.1109,2.1109,2.1109,2.1109,2.1109,2.1109,2.1109,2.1109,2.1109,2.1109,2.1109,2.1109,2.1109,2.1109,2.1109,2.1109,2.1109,2.1136,2.1189,2.1283,2.1639,2.1835,2.1997,2.2109,2.2245,2.2418,2.2432,2.2672,2.2792,2.2832,2.2846,2.2859,2.2859,2.2873,2.2873,2.2913,2.2979,2.3073,2.3153,2.326,2.32,2.2894,2.2409,2.172,2.0886,1.9633,1.8135,1.6278,1.4943,1.4026,1.3376,1.286,1.2608,1.2488,1.2535,1.2589,1.2698,1.2834,1.2976,2.64,2.64,2.64,2.64,2.64,2.64,2.64,2.64,2.64,2.64,2.64,2.64,2.652,2.6694,2.6707,2.6814,2.6961,2.7014,2.7041,2.7028,2.6974,2.648,2.5959,2.5838,2.5732,2.5571,2.5571,2.5478,2.5411,2.5398,2.5304,2.5184,2.509,2.4834,2.4595,2.469,2.4489,2.4142,2.4102,2.3995,2.3834,2.3808,2.3741,2.3674,2.3647,2.346,2.3073,2.2645,2.2271,2.1897,2.159,2.1443,2.1416,2.1256,2.1162,2.1149,2.1122,2.1109,2.1109,2.1109,2.1109,2.1109,2.1109,2.1109,2.1109,2.1109,2.1109,2.1109,2.1109,2.1109,2.1109,2.1109,2.1203,2.1403,2.1456,2.1625,2.1733,2.2038,2.2281,2.2258,2.2378,2.2525,2.2686,2.2792,2.2859,2.2859,2.2886,2.2899,2.2926,2.2979,2.3033,2.3166,2.326,2.338,2.3487,2.3594,2.3506,2.3222,2.2627,2.1914,2.0624,1.8891,1.7096,1.5159,1.4477,1.3672,1.3151,1.2628,1.2494,1.2515,1.2596,1.2678,1.2779,1.2908,1.3051,2.64,2.64,2.64,2.64,2.64,2.64,2.64,2.64,2.64,2.6466,2.6547,2.6573,2.6734,2.6987,2.7014,2.7094,2.7255,2.7268,2.7255,2.7255,2.7241,2.6881,2.644,2.6319,2.6172,2.5905,2.5879,2.5812,2.5718,2.5705,2.5638,2.5504,2.5518,2.5259,2.5073,2.5086,2.5104,2.4783,2.4649,2.4476,2.4329,2.4195,2.4062,2.3995,2.3941,2.3808,2.3487,2.3046,2.2619,2.2218,2.1897,2.1737,2.1724,2.1577,2.1483,2.147,2.1376,2.1296,2.1269,2.1189,2.1109,2.1109,2.1109,2.1109,2.1109,2.1109,2.1109,2.1109,2.1109,2.1109,2.1136,2.1216,2.143,2.1683,2.1975,2.1911,2.1911,2.2362,2.2592,2.2647,2.2619,2.2659,2.2846,2.2859,2.2873,2.2899,2.302,2.3046,2.3086,2.3153,2.326,2.342,2.3527,2.3762,2.3741,2.3848,2.351,2.3222,2.2273,2.1691,2.0174,1.8422,1.6908,1.5345,1.4326,1.3457,1.2909,1.2508,1.2549,1.2596,1.2684,1.28,1.2915,1.3003,1.3152,2.64,2.64,2.64,2.64,2.64,2.64,2.64,2.64,2.644,2.6587,2.6774,2.6841,2.7041,2.7308,2.7308,2.7335,2.7388,2.7455,2.7415,2.7428,2.7402,2.7228,2.6947,2.6827,2.6694,2.6507,2.648,2.636,2.6226,2.6132,2.5932,2.5812,2.5718,2.5598,2.5558,2.5558,2.5545,2.5384,2.517,2.5064,2.4983,2.4823,2.4649,2.4476,2.4275,2.4115,2.3821,2.3474,2.31,2.2592,2.2218,2.2044,2.2017,2.2004,2.1951,2.1897,2.171,2.159,2.1563,2.139,2.1203,2.1216,2.1189,2.1122,2.1122,2.1109,2.1136,2.1203,2.1162,2.1216,2.1323,2.1496,2.175,2.2017,2.2271,2.2432,2.2472,2.2768,2.2876,2.2956,2.2859,2.2859,2.2899,2.2913,2.2939,2.3207,2.3287,2.334,2.3394,2.3447,2.3594,2.3768,2.3834,2.3991,2.3981,2.4102,2.3601,2.3082,2.187,2.0854,1.9713,1.8251,1.7,1.5701,1.4436,1.3516,1.2944,1.269,1.2603,1.2691,1.2786,1.2935,1.3085,1.3152,1.3268,2.64,2.64,2.64,2.64,2.64,2.64,2.64,2.6413,2.6627,2.676,2.6867,2.7068,2.7335,2.7602,2.7615,2.7722,2.7896,2.7909,2.7949,2.7949,2.7949,2.7789,2.7509,2.7295,2.7134,2.7041,2.7068,2.7028,2.6921,2.6694,2.66,2.6507,2.6239,2.6092,2.5905,2.5865,2.5732,2.5545,2.5451,2.5424,2.5411,2.5331,2.5237,2.5117,2.477,2.4409,2.4102,2.3625,2.3682,2.3579,2.3065,2.2539,2.2472,2.2284,2.219,2.2163,2.2096,2.1897,2.1871,2.1804,2.1683,2.1483,2.1443,2.1363,2.1122,2.1149,2.1243,2.139,2.1456,2.155,2.175,2.2058,2.2218,2.2352,2.2565,2.2752,2.2766,2.2916,2.2929,2.2859,2.2899,2.2966,2.3193,2.322,2.3313,2.3514,2.3607,2.3661,2.3714,2.3768,2.3928,2.4102,2.4115,2.4142,2.4249,2.4196,2.3637,2.2953,2.1578,2.0296,1.9156,1.7928,1.6779,1.5573,1.4345,1.3597,1.3021,1.28,1.2725,1.2813,1.2908,1.3051,1.318,1.3275,1.337,2.6507,2.64,2.64,2.64,2.64,2.64,2.6453,2.6427,2.6747,2.6974,2.7215,2.7415,2.7629,2.7896,2.7909,2.8003,2.811,2.815,2.8136,2.8123,2.8123,2.8043,2.7936,2.7722,2.7575,2.7335,2.7255,2.7268,2.7215,2.7134,2.7014,2.7001,2.6734,2.6533,2.6346,2.6226,2.6092,2.5945,2.5785,2.5718,2.5718,2.5585,2.5518,2.5451,2.5241,2.5053,2.4904,2.4417,2.4371,2.4648,2.4526,2.3955,2.3352,2.3092,2.2955,2.2928,2.2777,2.2603,2.2576,2.2322,2.2028,2.1777,2.1764,2.167,2.1563,2.1523,2.1577,2.171,2.1777,2.1871,2.2151,2.2285,2.2445,2.2632,2.2766,2.2913,2.302,2.2966,2.2939,2.302,2.31,2.326,2.3407,2.3514,2.3567,2.3714,2.3915,2.3981,2.4048,2.4115,2.4262,2.4382,2.4396,2.4449,2.4395,2.414,2.3523,2.2633,2.1452,2.0135,1.8895,1.7683,1.6492,1.5445,1.4253,1.3545,1.2977,1.2917,1.2868,1.2983,1.3085,1.318,1.3288,1.3403,1.3492,2.6653,2.64,2.64,2.64,2.64,2.644,2.6414,2.6439,2.6746,2.7255,2.7629,2.7736,2.7909,2.8083,2.8123,2.8136,2.815,2.815,2.815,2.815,2.815,2.8123,2.8083,2.803,2.7869,2.7428,2.7455,2.7455,2.7442,2.7348,2.7335,2.7281,2.7041,2.6881,2.6814,2.6613,2.644,2.6386,2.6146,2.6026,2.5999,2.5966,2.5872,2.5864,2.6019,2.591,2.5689,2.5277,2.5263,2.5682,2.6325,2.6032,2.5264,2.4493,2.4158,2.4144,2.3728,2.344,2.313,2.2965,2.2681,2.2203,2.219,2.2004,2.1964,2.1911,2.1964,2.2044,2.2124,2.2245,2.2458,2.2525,2.2659,2.2859,2.2939,2.3086,2.326,2.3153,2.3207,2.3327,2.3407,2.3527,2.3701,2.3834,2.3861,2.3915,2.4128,2.4275,2.4342,2.4396,2.4489,2.4543,2.4529,2.4529,2.4462,2.4058,2.3464,2.2433,2.136,2.0049,1.8683,1.7358,1.6155,1.5074,1.4182,1.3483,1.3109,1.3061,1.3017,1.3146,1.3234,1.3302,1.341,1.3539,1.362,2.6653,2.64,2.64,2.64,2.6426,2.664,2.6587,2.6545,2.7131,2.7589,2.7709,2.7949,2.8083,2.8136,2.815,2.815,2.815,2.815,2.815,2.815,2.815,2.815,2.815,2.8136,2.8056,2.8043,2.7949,2.7923,2.7869,2.7776,2.7642,2.7562,2.7335,2.7201,2.7108,2.6907,2.6747,2.688,2.6652,2.6531,2.6491,2.6724,2.6703,2.6821,2.6836,2.6889,2.6659,2.6066,2.6149,2.7171,2.7636,2.7737,2.7195,2.6171,2.5505,2.4962,2.4746,2.4424,2.3989,2.3812,2.3375,2.2969,2.2753,2.2484,2.2217,2.2031,2.2178,2.2352,2.2539,2.2712,2.2779,2.2792,2.2953,2.314,2.3273,2.3367,2.3594,2.3634,2.3607,2.3741,2.3754,2.3794,2.3995,2.4155,2.4182,2.4235,2.4369,2.4462,2.4502,2.4529,2.4583,2.4609,2.4609,2.4609,2.4636,2.3909,2.3191,2.2331,2.1151,1.9601,1.8241,1.6897,1.568,1.4798,1.4192,1.3605,1.3401,1.3205,1.3125,1.322,1.3315,1.341,1.3526,1.3641,1.3783,2.68,2.64,2.64,2.64,2.6413,2.6533,2.6774,2.6892,2.7348,2.7655,2.7896,2.8083,2.815,2.815,2.815,2.815,2.815,2.815,2.815,2.815,2.815,2.815,2.815,2.815,2.815,2.8136,2.8136,2.815,2.8136,2.8003,2.7923,2.7869,2.7642,2.766,2.7757,2.7541,2.7554,2.7647,2.7551,2.7456,2.7442,2.7665,2.7717,2.7792,2.7874,2.7936,2.7993,2.7792,2.7894,2.8504,2.9154,2.9266,2.8885,2.8287,2.7324,2.6586,2.6025,2.5559,2.5106,2.4746,2.4274,2.377,2.3472,2.3133,2.2754,2.2606,2.2498,2.2632,2.2739,2.2939,2.3073,2.31,2.326,2.3474,2.3554,2.3701,2.3901,2.3981,2.4048,2.4115,2.4075,2.4142,2.4342,2.4462,2.4502,2.4569,2.4623,2.4649,2.4649,2.4676,2.4703,2.4743,2.4756,2.4608,2.4634,2.4091,2.3204,2.2313,2.1159,1.9584,1.8125,1.6773,1.5614,1.4738,1.4266,1.3625,1.338,1.3186,1.3241,1.3302,1.3417,1.3532,1.3627,1.3743,1.3892,2.6921,2.64,2.64,2.64,2.64,2.6453,2.6734,2.7121,2.7321,2.7629,2.8016,2.811,2.815,2.815,2.815,2.815,2.815,2.815,2.815,2.815,2.815,2.815,2.815,2.815,2.815,2.815,2.815,2.815,2.815,2.811,2.8305,2.8224,2.8036,2.8122,2.84,2.8482,2.8534,2.8641,2.8896,2.8882,2.8972,2.8745,2.8633,2.8846,2.8836,2.9105,2.9367,2.9452,2.9524,2.9936,3.0484,3.0893,3.0409,3.0285,2.9847,2.8702,2.7905,2.7168,2.6512,2.5981,2.5422,2.4746,2.4186,2.3735,2.327,2.3106,2.2939,2.2966,2.306,2.3166,2.338,2.342,2.3567,2.3768,2.3875,2.3955,2.4182,2.4315,2.4369,2.4396,2.4356,2.4422,2.4583,2.4569,2.4583,2.4583,2.4636,2.4756,2.477,2.4796,2.4836,2.489,2.493,2.4781,2.4684,2.4363,2.3466,2.2424,2.1266,1.9813,1.8327,1.6827,1.5811,1.4769,1.4009,1.3526,1.3432,1.3308,1.3356,1.3437,1.3553,1.3675,1.3797,1.3892,1.4014,2.6921,2.64,2.64,2.64,2.6426,2.664,2.6613,2.6571,2.7388,2.7669,2.7802,2.803,2.815,2.815,2.815,2.815,2.815,2.815,2.815,2.815,2.815,2.815,2.815,2.815,2.8305,2.8318,2.8318,2.815,2.8305,2.8305,2.8473,2.8628,2.8769,2.8923,2.9341,2.9599,2.9457,2.9563,2.9702,3.0057,3.0319,3.0067,3.0062,3.0323,3.0562,3.056,3.0798,3.0964,3.1153,3.1376,3.176,3.197,3.191,3.1789,3.1755,3.1077,2.9838,2.8292,2.7739,2.7338,2.6786,2.5933,2.5338,2.463,2.3901,2.343,2.3273,2.3287,2.346,2.3621,2.3688,2.3714,2.3875,2.4035,2.4155,2.4302,2.4502,2.4596,2.4663,2.4743,2.473,2.4676,2.473,2.4676,2.4623,2.4636,2.4676,2.4823,2.493,2.4983,2.505,2.513,2.517,2.517,2.4757,2.4431,2.3741,2.2686,2.1391,2.0064,1.8548,1.7038,1.5813,1.4758,1.3988,1.3535,1.3397,1.3437,1.3485,1.3573,1.3688,1.3838,1.3994,1.4075,1.4136,2.6774,2.64,2.64,2.64,2.6413,2.6533,2.6494,2.6532,2.7091,2.7549,2.7722,2.8003,2.815,2.815,2.815,2.815,2.815,2.815,2.815,2.8136,2.8136,2.8136,2.8318,2.8487,2.8655,2.8655,2.8824,2.8992,2.881,2.8642,2.8824,2.9146,2.9495,2.9816,3.0317,3.0836,3.1108,3.1556,3.1777,3.1934,3.1926,3.174,3.1651,3.1763,3.2039,3.2074,3.2254,3.2576,3.2855,3.2982,3.3064,3.3091,3.3144,3.3106,3.3085,3.291,3.1966,3.07,2.951,2.876,2.7893,2.7108,2.6354,2.5197,2.4247,2.3882,2.3708,2.3581,2.3688,2.3834,2.3981,2.4022,2.4182,2.4342,2.4449,2.4636,2.4796,2.485,2.493,2.5024,2.5104,2.5064,2.5024,2.4997,2.501,2.505,2.509,2.5184,2.5264,2.5139,2.5192,2.5411,2.5438,2.5451,2.5045,2.4662,2.386,2.2827,2.1726,2.0366,1.8798,1.7249,1.5835,1.4735,1.3964,1.3665,1.3526,1.3559,1.36,1.3702,1.3817,1.3953,1.4089,1.4177,1.4231,2.6587,2.64,2.64,2.64,2.64,2.64,2.6334,2.6547,2.7108,2.7388,2.7642,2.7949,2.815,2.815,2.815,2.815,2.815,2.815,2.8318,2.8305,2.8305,2.8292,2.8642,2.8992,2.8992,2.8992,2.9495,2.9663,2.9649,2.9649,2.9816,2.9816,3.0499,3.0832,3.1497,3.2113,3.2757,3.3413,3.3871,3.3921,3.3904,3.3597,3.3509,3.3446,3.3459,3.3566,3.3517,3.403,3.4302,3.428,3.4378,3.4484,3.4408,3.436,3.4316,3.4103,3.3659,3.2767,3.1409,3.0371,2.9306,2.8221,2.7013,2.5538,2.4706,2.4492,2.429,2.3875,2.4008,2.4128,2.4249,2.4315,2.4462,2.4623,2.4743,2.4943,2.5104,2.5157,2.5197,2.5251,2.5358,2.5491,2.5438,2.5384,2.5398,2.5464,2.5531,2.5558,2.5598,2.5471,2.5577,2.5812,2.5825,2.5684,2.5114,2.4697,2.3842,2.2964,2.1845,2.0475,1.8711,1.7269,1.583,1.4885,1.3937,1.3858,1.3763,1.3736,1.3729,1.3844,1.396,1.4048,1.415,1.4245,1.4292,2.6413,2.64,2.64,2.64,2.64,2.64,2.64,2.6507,2.7028,2.7308,2.7495,2.7856,2.8318,2.8318,2.8305,2.8305,2.8305,2.8136,2.8487,2.8642,2.8446,2.8783,2.9132,2.93,2.9467,2.9649,3.0165,3.0499,3.0832,3.1316,3.0984,3.0832,3.1647,3.2144,3.2803,3.3624,3.4441,3.5092,3.5578,3.5884,3.5731,3.5526,3.5151,3.4933,3.4865,3.4672,3.4441,3.5085,3.5537,3.5559,3.5758,3.5824,3.5811,3.5576,3.5527,3.5312,3.4984,3.4399,3.34,3.1966,3.0691,2.9147,2.7522,2.6008,2.5186,2.4768,2.4575,2.434,2.4356,2.4516,2.4596,2.4636,2.4823,2.493,2.5077,2.5224,2.5371,2.5451,2.5491,2.5504,2.5611,2.5785,2.5852,2.5798,2.5732,2.5798,2.5785,2.5825,2.5959,2.6012,2.6159,2.6239,2.6253,2.5806,2.5212,2.4627,2.384,2.2602,2.1416,2.0025,1.8597,1.7135,1.5653,1.4894,1.4288,1.4057,1.3973,1.3939,1.3939,1.4014,1.4089,1.4156,1.4204,1.4265,1.4292,2.64,2.64,2.64,2.64,2.64,2.64,2.64,2.6493,2.7014,2.766,2.8315,2.8547,2.8655,2.8978,2.8978,2.8978,2.8978,2.8978,2.9146,2.9146,2.9132,2.9467,2.983,3.0527,3.089,3.0998,3.1331,3.1828,3.2159,3.2639,3.3132,3.3281,3.3132,3.346,3.4115,3.5092,3.6063,3.6707,3.7188,3.7348,3.7614,3.7524,3.7238,3.6862,3.6777,3.6685,3.6321,3.6478,3.659,3.6698,3.6783,3.6865,3.6962,3.672,3.6669,3.647,3.6119,3.5622,3.4929,3.3408,3.1474,2.9567,2.8237,2.7132,2.5812,2.5562,2.5034,2.485,2.4743,2.4903,2.4917,2.5064,2.5251,2.5317,2.5411,2.5518,2.5665,2.5772,2.5905,2.5972,2.6039,2.6146,2.6186,2.6199,2.6146,2.6106,2.6079,2.6106,2.6266,2.636,2.648,2.6374,2.6215,2.5961,2.5359,2.4591,2.3806,2.2397,2.0982,1.9561,1.8121,1.6969,1.5655,1.4885,1.4442,1.418,1.4068,1.4109,1.4136,1.4163,1.4197,1.4238,1.4278,1.4299,1.4312,2.64,2.64,2.64,2.64,2.64,2.64,2.644,2.66,2.7203,2.8098,2.8978,2.8992,2.916,2.9495,2.9495,2.9663,2.9663,2.9663,2.9816,2.9788,2.9759,3.0122,3.1194,3.21,3.2628,3.252,3.2968,3.346,3.346,3.4278,3.4767,3.4913,3.4929,3.5075,3.5399,3.6546,3.7667,3.8145,3.8481,3.8621,3.8919,3.8901,3.8697,3.8365,3.834,3.7912,3.7633,3.7594,3.7554,3.7658,3.7594,3.7731,3.7681,3.7631,3.7539,3.73,3.708,3.6739,3.5821,3.4015,3.189,3.0463,2.8995,2.7795,2.6692,2.6017,2.5497,2.4945,2.5024,2.5211,2.5211,2.5344,2.5518,2.5571,2.5638,2.5758,2.6012,2.6186,2.6333,2.6453,2.6547,2.6653,2.6653,2.668,2.6573,2.6507,2.6453,2.652,2.6694,2.6587,2.6573,2.6439,2.6105,2.5698,2.5301,2.4347,2.3399,2.176,2.0336,1.9091,1.7791,1.6633,1.5676,1.5089,1.4451,1.4129,1.4156,1.4197,1.4238,1.4278,1.4292,1.4278,1.4285,1.4306,1.4346,2.64,2.64,2.64,2.6386,2.6386,2.64,2.6547,2.6961,2.7649,2.8606,2.9453,2.9495,2.9649,2.9649,2.9998,3.0165,3.0499,3.0513,3.0665,3.112,3.0505,3.1031,3.2505,3.38,3.4326,3.382,3.4262,3.475,3.475,3.5561,3.6207,3.6689,3.685,3.701,3.685,3.7986,3.8798,3.9254,3.9588,3.9745,3.9902,3.9902,3.9656,3.9448,3.922,3.8956,3.8557,3.8307,3.8374,3.8144,3.8263,3.8312,3.8398,3.8105,3.793,3.7891,3.7578,3.6977,3.6171,3.4054,3.2498,3.1293,2.9937,2.8313,2.6807,2.62,2.5949,2.5391,2.5331,2.5478,2.5504,2.5558,2.5745,2.5919,2.5999,2.6132,2.6413,2.6587,2.6734,2.6974,2.7203,2.7215,2.7215,2.7175,2.7028,2.6934,2.6841,2.6907,2.7068,2.6905,2.6839,2.6664,2.6326,2.5967,2.5388,2.4105,2.2799,2.1138,1.9702,1.8623,1.7484,1.6301,1.5526,1.4928,1.4583,1.4217,1.4251,1.4292,1.4299,1.4299,1.4299,1.4292,1.4299,1.4333,1.4401,2.64,2.64,2.64,2.6544,2.6716,2.6544,2.6719,2.7377,2.8316,2.9269,3.0245,3.0317,3.0832,3.1164,3.1331,3.1497,3.1828,3.1994,3.2324,3.2608,3.1811,3.2663,3.4131,3.5472,3.5994,3.5629,3.5884,3.6046,3.6046,3.685,3.7508,3.7986,3.8463,3.878,3.8621,3.9114,3.9745,4.004,4.0197,4.0372,4.0704,4.0685,4.0608,4.0434,4.0221,3.9893,3.9526,3.929,3.8922,3.8651,3.8789,3.8613,3.8594,3.834,3.834,3.834,3.8144,3.7856,3.6891,3.5321,3.3669,3.2312,3.0616,2.9004,2.791,2.6922,2.6405,2.5881,2.5792,2.5772,2.5812,2.6012,2.6226,2.6466,2.6587,2.672,2.6746,2.7014,2.7121,2.7297,2.7431,2.7321,2.7348,2.7455,2.7388,2.7348,2.7268,2.7188,2.7281,2.7241,2.7188,2.7038,2.6738,2.6223,2.5483,2.403,2.2594,2.1129,1.9656,1.8539,1.7355,1.5943,1.5272,1.4794,1.4462,1.4299,1.4306,1.4306,1.4299,1.4299,1.4346,1.438,1.4401,1.4448,1.4516,2.6544,2.6544,2.6558,2.686,2.7175,2.6702,2.7237,2.8333,2.9236,3.0296,3.1286,3.1497,3.1828,3.2489,3.2654,3.2819,3.3312,3.3476,3.3624,3.4099,3.3839,3.4506,3.5629,3.6933,3.7239,3.708,3.733,3.7649,3.7649,3.8304,3.878,3.9254,3.9745,3.9902,3.9902,4.0216,4.0216,4.0529,4.0841,4.0841,4.1016,4.1172,4.1172,4.1074,4.0918,4.0664,4.041,4.0,3.9492,3.9258,3.8965,3.8711,3.8652,3.8574,3.8574,3.8574,3.8428,3.797,3.7123,3.5981,3.4493,3.35,3.1564,2.9884,2.8582,2.7553,2.6864,2.6361,2.6256,2.6276,2.6253,2.648,2.664,2.6867,2.7001,2.7121,2.7188,2.7295,2.7593,2.7606,2.7687,2.7687,2.7535,2.7629,2.7696,2.7696,2.7696,2.7602,2.7509,2.7495,2.7482,2.7178,2.6887,2.6184,2.5108,2.3789,2.2525,2.1078,1.9718,1.8156,1.692,1.5652,1.4985,1.4476,1.4476,1.4306,1.4319,1.4326,1.4367,1.4414,1.4468,1.4496,1.4516,1.4577,1.4645,2.6702,2.7032,2.7032,2.7333,2.7633,2.7518,2.833,2.9895,3.0525,3.1647,3.2819,3.2819,3.3132,3.3444,3.3608,3.3952,3.4278,3.475,3.5092,3.5578,3.5706,3.6368,3.7063,3.8006,3.8308,3.8536,3.8621,3.8938,3.9272,3.9411,3.9883,4.0353,4.0509,4.0685,4.0685,4.0685,4.0841,4.0997,4.1016,4.1172,4.1172,4.1172,4.1172,4.1133,4.1074,4.0898,4.0684,4.0391,3.9961,3.959,3.9199,3.8945,3.875,3.8594,3.8574,3.8574,3.8302,3.7862,3.7402,3.6275,3.542,3.4346,3.2126,3.0356,2.8852,2.7994,2.7326,2.6831,2.654,2.6652,2.672,2.6827,2.6947,2.7121,2.7255,2.7348,2.7402,2.7522,2.7848,2.7956,2.8103,2.7976,2.7949,2.8003,2.7909,2.7949,2.7936,2.7936,2.7883,2.7909,2.7742,2.7252,2.6799,2.6004,2.4861,2.363,2.2084,2.0761,1.9021,1.7622,1.6401,1.5352,1.4999,1.4469,1.4476,1.4319,1.4367,1.4428,1.4489,1.4543,1.4611,1.4658,1.4692,1.4719,1.4787,2.7018,2.749,2.749,2.779,2.8617,2.9591,3.0265,3.0876,3.1854,3.2819,3.3804,3.4115,3.4441,3.4929,3.5254,3.5561,3.5884,3.6207,3.6707,3.7045,3.7561,3.8022,3.8695,3.9244,3.9542,3.9486,3.9588,3.9745,3.9745,4.0216,4.0529,4.0841,4.0997,4.1016,4.1016,4.0997,4.1172,4.1172,4.1172,4.1172,4.1172,4.1172,4.1172,4.1172,4.1172,4.1035,4.0937,4.0684,4.0312,4.0156,3.9492,3.9121,3.9062,3.8769,3.8574,3.8574,3.8428,3.8136,3.7402,3.6812,3.6088,3.4928,3.2961,3.1029,2.9456,2.8438,2.7806,2.7291,2.6797,2.672,2.6947,2.7094,2.7268,2.7468,2.7575,2.7642,2.7696,2.7802,2.8117,2.8144,2.8123,2.8123,2.8136,2.8123,2.8043,2.811,2.815,2.815,2.815,2.815,2.7812,2.7474,2.6406,2.5361,2.4726,2.3503,2.1964,2.025,1.8672,1.7271,1.6225,1.5352,1.4822,1.4483,1.4326,1.4387,1.4634,1.4709,1.4624,1.4706,1.478,1.4828,1.4869,1.4916,1.4964,2.7647,2.8104,2.8104,2.873,3.0035,3.1433,3.2235,3.2793,3.3177,3.3969,3.4929,3.5399,3.5723,3.6241,3.6546,3.7028,3.7188,3.7649,3.7986,3.8322,3.8853,3.9152,3.9644,4.0135,4.0116,4.0235,4.0372,4.0548,4.0372,4.0529,4.1016,4.1172,4.1172,4.1172,4.1172,4.1172,4.1172,4.1172,4.1172,4.1172,4.1172,4.1172,4.1172,4.1172,4.1172,4.1172,4.1152,4.084,4.0723,4.0566,3.9863,3.9648,3.9492,3.9082,3.8691,3.8652,3.8574,3.8136,3.7549,3.696,3.6256,3.5078,3.3719,3.1977,3.0238,2.9027,2.8361,2.7829,2.72,2.6907,2.7121,2.7335,2.7589,2.7843,2.7896,2.7949,2.803,2.811,2.8136,2.8123,2.8136,2.8136,2.815,2.815,2.815,2.815,2.815,2.815,2.815,2.815,2.7812,2.7135,2.5871,2.462,2.3995,2.3193,2.1455,1.9892,1.8147,1.6753,1.5873,1.5183,1.4659,1.451,1.436,1.4441,1.4723,1.4672,1.4774,1.4869,1.4984,1.5086,1.514,1.516,1.5215,2.8261,2.9042,2.9197,3.0129,3.1581,3.2675,3.397,3.4967,3.4727,3.508,3.619,3.6707,3.7028,3.7365,3.7845,3.8163,3.8322,3.878,3.9096,3.943,3.9588,3.9902,4.0216,4.0372,4.0548,4.0685,4.0841,4.086,4.1172,4.1172,4.1172,4.1172,4.1172,4.1172,4.1172,4.1172,4.1172,4.1172,4.1172,4.1172,4.1172,4.1172,4.1172,4.1172,4.1172,4.1172,4.1172,4.1094,4.0996,4.0723,4.0449,4.0254,3.9824,3.9492,3.9082,3.8809,3.873,3.829,3.7849,3.7406,3.6552,3.5503,3.4225,3.2715,3.1246,2.9576,2.8848,2.8283,2.7675,2.7378,2.7428,2.7615,2.7856,2.7976,2.803,2.8056,2.8096,2.815,2.815,2.815,2.815,2.815,2.815,2.815,2.815,2.815,2.815,2.815,2.815,2.815,2.7643,2.6965,2.5507,2.4268,2.3492,2.2492,2.1108,1.937,1.7622,1.6577,1.5881,1.5013,1.4326,1.4387,1.4455,1.4536,1.4812,1.4774,1.4923,1.5059,1.5187,1.535,1.5411,1.5418,1.5418,2.9523,3.0438,3.1363,3.1977,3.2501,3.3907,3.5054,3.6058,3.6916,3.7151,3.7312,3.7845,3.8163,3.8322,3.9114,3.9272,3.943,3.9588,3.9883,4.004,4.0372,4.0529,4.0841,4.0841,4.0997,4.0997,4.1172,4.1172,4.1172,4.1172,4.1172,4.1172,4.1172,4.1172,4.1172,4.1172,4.1172,4.1172,4.1172,4.1172,4.1172,4.1172,4.1172,4.1172,4.1172,4.1172,4.1172,4.1152,4.1113,4.0996,4.0664,4.0332,3.9922,3.9785,3.9512,3.916,3.9043,3.8767,3.8322,3.7895,3.7052,3.6174,3.4865,3.3536,3.1937,3.049,2.9427,2.874,2.8152,2.8016,2.7875,2.7896,2.803,2.8096,2.815,2.815,2.815,2.815,2.815,2.815,2.815,2.815,2.815,2.815,2.815,2.815,2.815,2.815,2.8163,2.8177,2.7656,2.6783,2.5313,2.4097,2.3148,2.1974,2.0588,1.9021,1.7447,1.6577,1.5712,1.5098,1.4468,1.4509,1.439,1.4679,1.497,1.4889,1.5038,1.5221,1.5364,1.5506,1.5615,1.5642,1.5628,3.0623,3.167,3.2892,3.35,3.3871,3.5281,3.6282,3.714,3.8161,3.8568,3.8603,3.8956,3.9114,3.9272,3.9902,4.0216,4.0216,4.0391,4.0529,4.0685,4.0841,4.0997,4.1172,4.1172,4.1172,4.1172,4.1172,4.1172,4.1172,4.1172,4.1172,4.1172,4.1172,4.1172,4.1172,4.1172,4.1172,4.1172,4.1172,4.1172,4.1172,4.1172,4.1172,4.1172,4.1172,4.1172,4.1172,4.1172,4.1172,4.1152,4.0937,4.0625,4.0332,4.0176,3.9941,3.9648,3.9512,3.9362,3.8913,3.8481,3.7781,3.6741,3.5694,3.4239,3.3065,3.1471,3.0188,2.9463,2.8509,2.8179,2.8036,2.8056,2.8096,2.8136,2.815,2.815,2.815,2.815,2.815,2.815,2.815,2.815,2.815,2.815,2.815,2.815,2.815,2.815,2.8163,2.8021,2.7682,2.6613,2.4985,2.3778,2.2998,2.1628,2.0066,1.8672,1.7279,1.6118,1.5291,1.4889,1.4624,1.4658,1.474,1.5066,1.5169,1.5086,1.5242,1.5438,1.5554,1.5655,1.575,1.5845,1.5859,3.182,3.3028,3.4105,3.4857,3.5378,3.6563,3.7555,3.8232,3.9144,3.9698,4.0021,4.0059,4.0059,4.0059,4.0353,4.0509,4.0685,4.086,4.1016,4.1172,4.1172,4.1172,4.1172,4.1172,4.1172,4.1172,4.1172,4.1172,4.1172,4.1172,4.1172,4.1172,4.1172,4.1172,4.1172,4.1172,4.1172,4.1172,4.1172,4.1172,4.1172,4.1172,4.1172,4.1172,4.1172,4.1172,4.1172,4.1172,4.1172,4.1152,4.1133,4.0918,4.0742,4.0586,4.0332,4.0098,3.9961,3.981,3.9507,3.9051,3.8173,3.7285,3.6319,3.5189,3.3885,3.2498,3.1197,2.99,2.8938,2.8343,2.8365,2.8123,2.8136,2.815,2.815,2.815,2.815,2.815,2.815,2.815,2.815,2.815,2.815,2.815,2.815,2.815,2.815,2.815,2.815,2.8034,2.7709,2.6298,2.4679,2.3675,2.2848,2.1302,1.9737,1.8357,1.6977,1.5839,1.4875,1.4847,1.4767,1.4808,1.4903,1.5272,1.5396,1.5499,1.5479,1.5635,1.5689,1.5771,1.5893,1.5988,1.6069,3.346,3.4539,3.5456,3.6052,3.6608,3.7746,3.8576,3.9242,3.9912,4.0452,4.0821,4.086,4.0841,4.0353,4.0841,4.1016,4.0997,4.1172,4.1172,4.1172,4.1172,4.1172,4.1172,4.1172,4.1172,4.1172,4.1172,4.1172,4.1172,4.1172,4.1172,4.1172,4.1172,4.1172,4.1172,4.1172,4.1172,4.1172,4.1172,4.1172,4.1172,4.1172,4.1172,4.1172,4.1172,4.1172,4.1172,4.1172,4.1172,4.1172,4.1172,4.1094,4.1035,4.0937,4.0742,4.0527,4.041,4.041,4.0104,3.9471,3.8738,3.8024,3.6922,3.5543,3.4423,3.3138,3.1662,3.0339,2.9355,2.8687,2.8473,2.8305,2.815,2.815,2.815,2.815,2.815,2.815,2.815,2.815,2.815,2.815,2.815,2.815,2.815,2.815,2.815,2.815,2.8163,2.7865,2.7761,2.6007,2.4418,2.3514,2.2675,2.0985,1.9425,1.804,1.6719,1.5629,1.5056,1.5011,1.4916,1.4984,1.514,1.5323,1.5438,1.5712,1.5642,1.5771,1.5798,1.5872,1.6008,1.6137,1.6225]},{"header":{"parameterUnit":"m.s-1","parameterCategory":1,"la1":31.0,"la2":29.5877,"lo1":-88.7671,"lo2":-86.6584,"dx":0.0162,"dy":0.0185,"nx":115,"ny":88,"refTime":"2023-01-20T06:00:00:Z","depth":0,"parameterNumber":3,"parameterNumberName":"V-component_of_WINDS"},"data":[0.0,0.0,0.0,0.0,0.0,0.0,0.0,0.0,0.0,0.0,0.0,0.0,0.0,0.0,0.0,0.0,0.0,0.0,0.0,0.0,0.0,0.0,0.0,0.0,0.0,0.0,0.0,0.0,0.0,0.0,0.0,0.0,0.0,0.0,0.0,0.0,0.0,0.0,0.0,0.0,0.0,0.0,0.0,0.0,0.0,0.0,0.0,0.0,0.0,0.0,0.0,0.0,0.0,0.0,0.0,0.0,0.0,0.0,0.0,0.0,0.0,0.0,0.0,0.0,0.0,0.0,0.0,0.0,0.0,0.0,0.0,0.0,0.0,0.0,0.0,0.0,0.0,0.0,0.0,0.0,0.0,0.0,0.0,0.0,0.0,0.0,0.0,0.0,0.0,0.0,0.0,0.0,0.0,0.0,0.0,0.0,0.0,0.0,0.0,0.0,0.0,0.0,0.0,0.0,0.0,0.0,0.0,0.0,0.0,0.0,0.0,0.0,0.0,0.0,0.0,0.0,0.0,0.0,0.0,0.0,0.0,0.0,0.0,0.0,0.0,0.0,0.0,0.0,0.0,0.0,0.0,0.0,0.0,0.0,0.0,0.0,0.0,0.0,0.0,0.0,0.0,0.0,0.0,0.0,0.0,0.0,0.0,0.0,0.0,0.0,0.0,0.0,0.0,0.0,0.0,0.0,0.0,0.0,0.0,0.0,0.0,0.0,0.0,0.0,0.0,0.0,0.0,0.0,0.0,0.0,0.0,0.0,0.0,0.0,0.0,0.0,0.0,0.0,0.0,0.0,0.0,0.0,0.0,0.0,0.0,0.0,0.0,0.0,0.0,0.0,0.0,0.0,0.0,0.0,0.0,0.0,0.0,0.0,0.0,0.0,0.0,0.0,0.0,0.0,0.0,0.0,0.0,0.0,0.0,0.0,0.0,0.0,0.0,0.0,0.0,0.0,0.0,0.0,0.0,0.0,0.0,0.0,0.0,0.0,0.0,0.0,0.0,0.0,0.0,0.0,0.0,0.0,0.0,0.0,0.0,0.0,0.0,0.0,0.0,0.0,0.0,0.0,0.0,0.0,0.0,0.0,0.0,0.0,0.0,0.0,0.0,0.0,0.0,0.0,0.0,0.0,0.0,0.0,0.0,0.0,0.0,0.0,0.0,0.0,0.0,0.0,0.0,0.0,0.0,0.0,0.0,0.0,0.0,0.0,0.0,0.0,0.0,0.0,0.0,0.0,0.0,0.0,0.0,0.0,0.0,0.0,0.0,0.0,0.0,0.0,0.0,0.0,0.0,0.0,0.0,0.0,0.0,0.0,0.0,0.0,0.0,0.0,0.0,0.0,0.0,0.0,0.0,0.0,0.0,0.0,0.0,0.0,0.0,0.0,0.0,0.0,0.0,0.0,0.0,0.0,0.0,0.0,0.0,0.0,0.0,0.0,0.0,0.0,0.0,0.0,0.0,0.0,0.0,0.0,0.0,0.0,0.0,0.0,0.0,0.0,0.0,0.0,0.0,0.0,0.0,0.0,0.0,0.0,0.0,0.0,0.0,0.0,0.0,0.0,0.0,0.0,0.0,0.0,0.0,0.0,0.0,0.0,0.0,0.0,0.0,0.0,0.0,0.0,0.0,0.0,0.0,0.0,0.0,0.0,0.0,0.0,0.0,0.0,0.0,0.0,0.0,0.0,0.0,0.0,0.0,0.0,0.0,0.0,0.0,0.0,0.0,0.0,0.0,0.0,0.0,0.0,0.0,0.0,0.0,0.0,0.0,0.0,0.0,0.0,0.0,0.0,0.0,0.0,0.0,0.0,0.0,0.0,0.0,0.0,0.0,0.0,0.0,0.0,0.0,0.0,0.0,0.0,0.0,0.0,0.0,0.0,0.0,0.0,0.0,0.0,0.0,0.0,0.0,0.0,0.0,0.0,0.0,0.0,0.0,0.0,0.0,0.0,0.0,0.0,0.0,0.0,0.0,0.0,0.0,0.0,0.0,0.0,0.0,0.0,0.0,0.0,0.0,0.0,0.0,0.0,0.0,0.0,0.0,0.0,0.0,0.0,0.0,0.0,0.0,0.0,0.0,0.0,0.0,0.0,0.0,0.0,0.0,0.0,0.0,0.0,0.0,0.0,0.0,0.0,0.0,0.0,0.0,0.0,0.0,0.0,0.0,0.0,0.0,0.0,0.0,0.0,0.0,0.0,0.0,0.0,0.0,0.0,0.0,0.0,0.0,0.0,0.0,0.0,0.0,0.0,0.0,0.0,0.0,0.0,0.0,0.0,0.0,0.0,0.0,0.0,0.0,0.0,0.0,0.0,0.0,0.0,0.0,0.0,0.0,0.0,0.0,0.0,0.0,0.0,0.0,0.0,0.0,0.0,0.0,0.0,0.0,0.0,0.0,0.0,0.0,0.0,0.0,0.0,0.0,0.0,0.0,0.0,0.0,0.0,0.0,0.0,0.0,0.0,0.0,0.0,0.0,0.0,0.0,0.0,0.0,0.0,0.0,0.0,0.0,0.0,0.0,0.0,0.0,0.0,0.0,0.0,0.0,0.0,0.0,0.0,0.0,0.0,0.0,0.0,0.0,0.0,0.0,0.0,0.0,0.0,0.0,0.0,0.0,0.0,0.0,0.0,0.0,0.0,0.0,0.0,0.0,0.0,0.0,0.0,0.0,0.0,0.0,0.0,0.0,0.0,0.0,0.0,0.0,0.0,0.0,0.0,0.0,0.0,0.0,0.0,0.0,0.0,0.0,0.0,0.0,0.0,0.0,0.0,0.0,0.0,0.0,0.0,0.0,0.0,0.0,0.0,0.0,0.0,0.0,0.0,0.0,0.0,0.0,0.0,0.0,0.0,0.0,0.0,0.0,0.0,0.0,0.0,0.0,0.0,0.0,0.0,0.0,0.0,0.0,0.0,0.0,0.0,0.0,0.0,0.0,0.0,0.0,0.0,0.0,0.0,0.0,0.0,0.0,0.0,0.0,0.0,0.0,0.0,0.0,0.0,0.0,0.0,0.0,0.0,0.0,0.0,0.0,0.0,0.0,0.0,0.0,0.0,0.0,0.0,0.0,0.0,0.0,0.0,0.0,0.0,0.0,0.0,0.0,0.0,0.0,0.0,0.0,0.0,0.0,0.0,0.0,0.0,0.0,0.0,0.0,0.0,0.0,0.0,0.0,0.0,0.0,0.0,0.0,0.0,0.0,0.0,0.0,0.0,0.0,0.0,0.0,0.0,0.0,0.0,0.0,0.0,0.0,0.0,0.0,0.0,0.0,0.0,0.0,0.0,0.0,0.0,0.0,0.0,0.0,0.0,0.0,0.0,0.0,0.0,0.0,0.0,0.0,0.0,0.0,0.0,0.0,0.0,0.0,0.0,0.0,0.0,0.0,0.0,0.0,0.0,0.0,0.0,0.0,0.0,0.0,0.0,0.0,0.0,0.0,0.0,0.0,0.0,0.0,0.0,0.0,0.0,0.0,0.0,0.0,0.0,0.0,0.0,0.0,0.0,0.0,0.0,0.0,0.0,0.0,0.0,0.0,0.0,0.0,0.0,0.0,0.0,0.0,0.0,0.0,0.0,0.0,0.0,0.0,0.0,0.0,0.0,0.0,0.0,0.0,0.0,0.0,0.0,0.0,0.0,0.0,0.0,0.0,0.0,0.0,0.0,0.0,0.0,0.0,0.0,0.0,0.0,0.0,0.0,0.0,0.0,0.0,0.0,0.0,0.0,0.0,0.0,0.0,0.0,0.0,0.0,0.0,0.0,0.0,0.0,0.0,0.0,0.0,0.0,0.0,0.0,0.0,0.0,0.0,0.0,0.0,0.0,0.0,0.0,0.0,0.0,0.0,0.0,0.0,0.0,0.0,0.0,0.0,0.0,0.0,0.0,0.0,0.0,0.0,0.0,0.0,0.0,0.0,0.0,0.0,0.0,0.0,0.0,0.0,0.0,0.0,0.0,0.0,0.0,0.0,0.0,0.0,0.0,0.0,0.0,0.0,0.0,0.0,0.0,0.0,0.0,0.0,0.0,0.0,0.0,0.0,0.0,0.0,0.0,0.0,0.0,0.0,0.0,0.0,0.0,0.0,0.0,0.0,0.0,0.0,0.0,0.0,0.0,0.0,0.0,0.0,0.0,0.0,0.0,0.0,0.0,0.0,0.0,0.0,0.0,0.0,0.0,0.0,0.0,0.0,0.0,0.0,0.0,0.0,0.0,0.0,0.0,0.0,0.0,0.0,0.0,0.0,0.0,0.0,0.0,0.0,0.0,-5.0584,0.0,0.0,0.0,0.0,0.0,0.0,0.0,0.0,0.0,0.0,0.0,0.0,0.0,0.0,0.0,0.0,0.0,0.0,0.0,0.0,0.0,0.0,0.0,0.0,0.0,0.0,0.0,0.0,0.0,0.0,0.0,0.0,0.0,0.0,0.0,0.0,0.0,0.0,0.0,0.0,0.0,0.0,0.0,0.0,0.0,0.0,0.0,0.0,0.0,0.0,0.0,0.0,0.0,0.0,0.0,0.0,0.0,0.0,0.0,0.0,0.0,0.0,0.0,0.0,0.0,0.0,0.0,0.0,0.0,0.0,0.0,0.0,0.0,0.0,0.0,0.0,0.0,0.0,0.0,0.0,0.0,0.0,0.0,0.0,0.0,0.0,0.0,0.0,0.0,0.0,0.0,0.0,0.0,0.0,0.0,0.0,0.0,0.0,0.0,0.0,0.0,0.0,0.0,0.0,0.0,0.0,0.0,0.0,0.0,0.0,-5.0412,-5.0374,-4.9975,-4.9729,-4.9789,0.0,0.0,0.0,0.0,0.0,0.0,0.0,0.0,0.0,0.0,0.0,0.0,0.0,0.0,0.0,0.0,0.0,0.0,0.0,0.0,0.0,0.0,0.0,0.0,0.0,0.0,0.0,0.0,0.0,0.0,0.0,0.0,0.0,0.0,0.0,0.0,0.0,0.0,0.0,0.0,0.0,0.0,0.0,0.0,0.0,0.0,0.0,0.0,0.0,0.0,0.0,0.0,0.0,0.0,0.0,0.0,0.0,0.0,0.0,0.0,0.0,0.0,0.0,0.0,0.0,0.0,0.0,0.0,0.0,0.0,0.0,0.0,0.0,0.0,0.0,0.0,0.0,0.0,0.0,0.0,0.0,0.0,0.0,0.0,0.0,0.0,0.0,0.0,0.0,0.0,0.0,0.0,0.0,0.0,0.0,0.0,0.0,0.0,0.0,0.0,0.0,0.0,0.0,0.0,0.0,0.0,0.0,0.0,0.0,0.0,0.0,0.0,-4.9175,-4.8739,-4.8783,0.0,0.0,0.0,0.0,0.0,0.0,0.0,0.0,0.0,0.0,0.0,0.0,0.0,0.0,0.0,0.0,0.0,0.0,0.0,0.0,0.0,0.0,0.0,0.0,0.0,0.0,0.0,0.0,0.0,0.0,0.0,0.0,0.0,0.0,0.0,0.0,0.0,0.0,0.0,0.0,0.0,0.0,0.0,0.0,0.0,0.0,0.0,0.0,0.0,0.0,0.0,0.0,0.0,0.0,0.0,0.0,0.0,0.0,0.0,0.0,0.0,0.0,0.0,0.0,0.0,0.0,0.0,0.0,0.0,0.0,0.0,0.0,0.0,0.0,0.0,0.0,0.0,0.0,0.0,0.0,0.0,0.0,0.0,0.0,0.0,0.0,0.0,0.0,0.0,0.0,0.0,0.0,0.0,0.0,0.0,0.0,0.0,0.0,0.0,0.0,0.0,0.0,0.0,0.0,0.0,0.0,0.0,0.0,0.0,0.0,-4.8821,-4.891,-4.8099,0.0,-4.7898,0.0,0.0,0.0,0.0,0.0,0.0,0.0,0.0,0.0,0.0,0.0,0.0,0.0,0.0,0.0,0.0,0.0,0.0,0.0,0.0,0.0,0.0,0.0,0.0,0.0,0.0,0.0,0.0,0.0,0.0,0.0,0.0,0.0,0.0,0.0,0.0,0.0,0.0,0.0,0.0,0.0,0.0,0.0,0.0,0.0,0.0,0.0,0.0,0.0,0.0,0.0,0.0,0.0,0.0,0.0,0.0,0.0,0.0,0.0,0.0,0.0,0.0,0.0,0.0,0.0,0.0,0.0,0.0,0.0,0.0,0.0,0.0,0.0,0.0,0.0,0.0,0.0,0.0,0.0,0.0,0.0,0.0,0.0,0.0,0.0,0.0,0.0,0.0,0.0,0.0,0.0,0.0,0.0,0.0,0.0,0.0,0.0,0.0,0.0,0.0,0.0,0.0,0.0,0.0,0.0,0.0,0.0,0.0,0.0,0.0,-4.7692,-4.7813,-4.7112,-4.6578,0.0,0.0,0.0,0.0,0.0,0.0,0.0,0.0,0.0,0.0,0.0,0.0,0.0,0.0,0.0,0.0,0.0,0.0,0.0,0.0,0.0,0.0,0.0,0.0,0.0,0.0,0.0,0.0,0.0,0.0,0.0,0.0,0.0,0.0,0.0,0.0,0.0,0.0,0.0,0.0,0.0,0.0,0.0,0.0,0.0,0.0,0.0,0.0,0.0,0.0,0.0,0.0,0.0,0.0,0.0,0.0,0.0,0.0,0.0,0.0,0.0,0.0,0.0,0.0,0.0,0.0,0.0,0.0,0.0,0.0,0.0,0.0,0.0,0.0,0.0,0.0,0.0,0.0,0.0,0.0,0.0,0.0,0.0,0.0,0.0,0.0,0.0,0.0,0.0,0.0,0.0,0.0,0.0,0.0,0.0,0.0,0.0,0.0,0.0,0.0,0.0,0.0,0.0,0.0,0.0,0.0,0.0,0.0,0.0,0.0,-4.7072,-4.6494,-4.6346,-4.6036,-4.5569,-4.5163,0.0,0.0,0.0,0.0,0.0,0.0,0.0,0.0,0.0,0.0,0.0,0.0,0.0,0.0,0.0,0.0,0.0,0.0,0.0,0.0,0.0,0.0,0.0,0.0,0.0,0.0,0.0,0.0,0.0,0.0,0.0,0.0,0.0,0.0,0.0,0.0,0.0,0.0,0.0,0.0,0.0,0.0,0.0,0.0,0.0,0.0,0.0,0.0,0.0,0.0,0.0,0.0,0.0,0.0,0.0,0.0,0.0,0.0,0.0,0.0,0.0,0.0,0.0,0.0,0.0,0.0,0.0,0.0,0.0,0.0,0.0,0.0,0.0,0.0,0.0,0.0,0.0,0.0,0.0,0.0,0.0,0.0,0.0,0.0,0.0,0.0,0.0,0.0,0.0,0.0,0.0,0.0,0.0,0.0,0.0,0.0,0.0,0.0,0.0,0.0,0.0,0.0,0.0,0.0,0.0,0.0,0.0,0.0,0.0,-4.6233,-4.52,-4.4684,-4.4787,-4.4903,0.0,0.0,0.0,0.0,0.0,0.0,0.0,0.0,0.0,0.0,0.0,0.0,0.0,0.0,0.0,0.0,0.0,0.0,0.0,0.0,0.0,0.0,0.0,0.0,0.0,0.0,0.0,0.0,0.0,0.0,0.0,0.0,0.0,0.0,0.0,0.0,0.0,0.0,0.0,0.0,0.0,0.0,0.0,0.0,0.0,0.0,0.0,0.0,0.0,0.0,0.0,0.0,0.0,0.0,0.0,0.0,0.0,0.0,0.0,0.0,0.0,0.0,0.0,0.0,0.0,0.0,0.0,0.0,0.0,0.0,0.0,0.0,0.0,0.0,0.0,0.0,0.0,0.0,0.0,0.0,0.0,0.0,0.0,0.0,0.0,0.0,0.0,0.0,0.0,0.0,0.0,0.0,0.0,0.0,0.0,0.0,0.0,0.0,0.0,0.0,0.0,0.0,0.0,0.0,0.0,0.0,0.0,0.0,0.0,-4.5938,-4.4994,-4.4414,-4.4207,-4.4468,-4.4659,0.0,0.0,0.0,0.0,0.0,0.0,0.0,0.0,0.0,0.0,0.0,0.0,0.0,0.0,0.0,0.0,0.0,0.0,0.0,0.0,0.0,0.0,0.0,0.0,0.0,0.0,0.0,0.0,0.0,0.0,0.0,0.0,0.0,0.0,0.0,0.0,0.0,0.0,0.0,0.0,0.0,0.0,0.0,0.0,0.0,0.0,0.0,0.0,0.0,0.0,0.0,0.0,0.0,0.0,0.0,0.0,0.0,0.0,0.0,0.0,0.0,0.0,0.0,0.0,0.0,0.0,0.0,0.0,0.0,0.0,0.0,0.0,0.0,0.0,0.0,0.0,0.0,0.0,0.0,0.0,0.0,0.0,0.0,0.0,0.0,0.0,0.0,0.0,0.0,0.0,0.0,0.0,0.0,0.0,0.0,0.0,0.0,0.0,0.0,0.0,0.0,0.0,0.0,0.0,0.0,0.0,0.0,0.0,0.0,-4.4583,0.0,-4.3892,0.0,-4.4229,-4.4468,0.0,0.0,0.0,0.0,0.0,0.0,0.0,0.0,0.0,0.0,0.0,0.0,0.0,0.0,0.0,0.0,0.0,0.0,0.0,0.0,0.0,0.0,0.0,0.0,0.0,0.0,0.0,0.0,0.0,0.0,0.0,0.0,0.0,0.0,0.0,0.0,0.0,0.0,0.0,0.0,0.0,0.0,0.0,0.0,0.0,0.0,0.0,0.0,0.0,0.0,0.0,0.0,0.0,0.0,0.0,0.0,0.0,0.0,0.0,0.0,0.0,0.0,0.0,0.0,0.0,0.0,0.0,0.0,0.0,0.0,0.0,0.0,0.0,0.0,0.0,0.0,0.0,0.0,0.0,0.0,0.0,0.0,0.0,0.0,0.0,0.0,0.0,0.0,0.0,0.0,0.0,0.0,0.0,0.0,0.0,0.0,0.0,0.0,0.0,0.0,0.0,0.0,0.0,0.0,0.0,0.0,0.0,0.0,-4.5111,-4.3674,-4.3634,-4.3767,-4.4023,-4.4079,-4.4229,0.0,0.0,0.0,0.0,0.0,0.0,0.0,0.0,0.0,0.0,0.0,0.0,0.0,0.0,0.0,0.0,0.0,0.0,0.0,0.0,0.0,0.0,0.0,0.0,0.0,0.0,0.0,0.0,0.0,0.0,0.0,0.0,0.0,0.0,0.0,0.0,0.0,0.0,0.0,0.0,0.0,0.0,0.0,0.0,0.0,0.0,0.0,0.0,0.0,0.0,0.0,0.0,0.0,0.0,0.0,0.0,0.0,0.0,0.0,0.0,0.0,0.0,0.0,0.0,0.0,0.0,0.0,0.0,0.0,0.0,0.0,0.0,0.0,0.0,0.0,0.0,0.0,0.0,0.0,0.0,0.0,0.0,0.0,0.0,0.0,0.0,0.0,0.0,0.0,0.0,0.0,0.0,0.0,0.0,0.0,0.0,0.0,0.0,0.0,0.0,0.0,0.0,0.0,0.0,0.0,0.0,0.0,0.0,0.0,-4.3532,-4.36,-4.3631,-4.3697,-4.3923,-4.4079,0.0,0.0,0.0,0.0,0.0,0.0,0.0,0.0,0.0,0.0,0.0,0.0,0.0,0.0,0.0,0.0,0.0,0.0,0.0,0.0,0.0,0.0,0.0,0.0,0.0,0.0,0.0,0.0,0.0,0.0,0.0,0.0,0.0,0.0,0.0,0.0,0.0,0.0,0.0,0.0,0.0,0.0,0.0,0.0,0.0,0.0,0.0,0.0,0.0,0.0,0.0,0.0,0.0,0.0,0.0,0.0,0.0,0.0,0.0,0.0,0.0,0.0,0.0,0.0,0.0,0.0,0.0,0.0,0.0,0.0,0.0,0.0,0.0,0.0,0.0,0.0,0.0,0.0,0.0,0.0,0.0,0.0,0.0,0.0,0.0,0.0,0.0,0.0,0.0,0.0,0.0,0.0,0.0,0.0,0.0,0.0,0.0,0.0,0.0,0.0,0.0,0.0,0.0,0.0,0.0,0.0,0.0,0.0,0.0,-4.3497,-4.3566,-4.36,-4.36,-4.3763,-4.3923,-4.4048,0.0,0.0,0.0,0.0,0.0,0.0,0.0,0.0,0.0,0.0,0.0,0.0,0.0,0.0,0.0,0.0,0.0,0.0,0.0,0.0,0.0,0.0,0.0,0.0,0.0,0.0,0.0,0.0,0.0,0.0,0.0,0.0,0.0,0.0,0.0,0.0,0.0,0.0,0.0,0.0,0.0,0.0,0.0,0.0,0.0,0.0,0.0,0.0,0.0,0.0,0.0,0.0,0.0,0.0,0.0,0.0,0.0,0.0,0.0,0.0,0.0,0.0,0.0,0.0,0.0,0.0,0.0,0.0,0.0,0.0,0.0,0.0,0.0,0.0,0.0,0.0,0.0,0.0,0.0,0.0,0.0,0.0,0.0,0.0,0.0,0.0,0.0,0.0,0.0,0.0,0.0,0.0,0.0,0.0,0.0,0.0,0.0,0.0,0.0,0.0,0.0,0.0,0.0,0.0,0.0,0.0,0.0,0.0,-4.3497,-4.3497,-4.3532,-4.3563,-4.3563,-4.3734,0.0,0.0,0.0,0.0,0.0,0.0,0.0,0.0,0.0,0.0,0.0,0.0,0.0,0.0,0.0,0.0,0.0,0.0,0.0,0.0,0.0,0.0,0.0,0.0,0.0,0.0,0.0,0.0,0.0,0.0,0.0,0.0,0.0,0.0,0.0,0.0,0.0,0.0,0.0,0.0,0.0,0.0,0.0,0.0,0.0,0.0,0.0,0.0,0.0,0.0,0.0,0.0,0.0,0.0,0.0,0.0,0.0,0.0,0.0,0.0,0.0,0.0,0.0,0.0,0.0,0.0,0.0,0.0,0.0,0.0,0.0,0.0,0.0,0.0,0.0,0.0,0.0,0.0,0.0,0.0,0.0,0.0,0.0,0.0,0.0,0.0,0.0,0.0,0.0,0.0,0.0,0.0,0.0,0.0,0.0,0.0,0.0,0.0,0.0,0.0,0.0,0.0,0.0,0.0,0.0,0.0,0.0,0.0,0.0,-4.3497,-4.3497,-4.3532,-4.3532,-4.36,-4.3634,0.0,0.0,0.0,0.0,0.0,0.0,0.0,0.0,0.0,0.0,0.0,0.0,0.0,0.0,0.0,0.0,0.0,0.0,0.0,0.0,0.0,0.0,0.0,0.0,0.0,0.0,0.0,0.0,0.0,0.0,0.0,0.0,0.0,0.0,0.0,0.0,0.0,0.0,0.0,0.0,0.0,0.0,0.0,0.0,0.0,0.0,0.0,0.0,0.0,0.0,0.0,0.0,0.0,0.0,0.0,0.0,0.0,0.0,0.0,0.0,0.0,0.0,0.0,0.0,0.0,0.0,0.0,0.0,0.0,0.0,0.0,0.0,0.0,0.0,0.0,0.0,0.0,0.0,0.0,0.0,0.0,0.0,0.0,0.0,0.0,0.0,0.0,0.0,0.0,0.0,0.0,0.0,0.0,0.0,0.0,0.0,0.0,0.0,0.0,0.0,0.0,0.0,0.0,0.0,0.0,0.0,0.0,0.0,-4.3497,-4.3497,-4.3497,-4.3497,-4.3497,-4.3566,-4.3566,0.0,0.0,0.0,0.0,0.0,0.0,0.0,0.0,0.0,0.0,0.0,0.0,0.0,0.0,0.0,0.0,0.0,0.0,0.0,0.0,0.0,0.0,0.0,0.0,0.0,0.0,0.0,0.0,0.0,0.0,0.0,0.0,0.0,0.0,0.0,0.0,0.0,0.0,0.0,0.0,0.0,0.0,0.0,0.0,0.0,0.0,0.0,0.0,0.0,0.0,0.0,0.0,0.0,0.0,0.0,0.0,0.0,0.0,0.0,0.0,0.0,0.0,0.0,0.0,0.0,0.0,0.0,0.0,0.0,0.0,0.0,0.0,0.0,0.0,0.0,0.0,0.0,0.0,0.0,0.0,0.0,0.0,0.0,0.0,0.0,0.0,0.0,0.0,0.0,0.0,0.0,0.0,0.0,0.0,0.0,0.0,0.0,0.0,0.0,0.0,0.0,0.0,0.0,0.0,0.0,0.0,0.0,0.0,-4.3497,-4.3497,-4.3497,-4.3497,-4.3497,-4.3497,-4.3495,0.0,0.0,0.0,0.0,0.0,0.0,0.0,0.0,0.0,0.0,0.0,0.0,0.0,0.0,0.0,0.0,0.0,0.0,0.0,0.0,0.0,0.0,0.0,0.0,0.0,0.0,0.0,0.0,0.0,0.0,0.0,0.0,0.0,0.0,0.0,0.0,0.0,0.0,0.0,0.0,0.0,0.0,0.0,0.0,0.0,0.0,0.0,0.0,0.0,0.0,0.0,0.0,0.0,0.0,0.0,0.0,0.0,0.0,0.0,0.0,0.0,0.0,0.0,0.0,0.0,0.0,0.0,0.0,0.0,0.0,0.0,0.0,0.0,0.0,0.0,0.0,0.0,0.0,0.0,0.0,0.0,0.0,0.0,0.0,0.0,0.0,0.0,0.0,0.0,0.0,0.0,0.0,0.0,0.0,0.0,0.0,0.0,0.0,0.0,0.0,0.0,0.0,0.0,0.0,0.0,0.0,0.0,0.0,-4.3497,-4.3497,-4.3497,-4.3497,-4.3497,-4.3497,-4.3532,0.0,0.0,0.0,0.0,0.0,0.0,0.0,0.0,0.0,0.0,0.0,0.0,0.0,0.0,0.0,0.0,0.0,0.0,0.0,0.0,0.0,0.0,0.0,0.0,0.0,0.0,0.0,0.0,0.0,0.0,0.0,0.0,0.0,0.0,0.0,0.0,0.0,0.0,0.0,0.0,0.0,0.0,0.0,0.0,0.0,0.0,0.0,0.0,-5.4165,0.0,0.0,0.0,0.0,0.0,0.0,0.0,0.0,0.0,0.0,0.0,0.0,0.0,0.0,0.0,0.0,0.0,0.0,0.0,0.0,0.0,0.0,0.0,0.0,0.0,0.0,0.0,0.0,0.0,0.0,0.0,0.0,0.0,0.0,0.0,0.0,0.0,0.0,0.0,0.0,0.0,0.0,0.0,0.0,0.0,0.0,0.0,0.0,0.0,0.0,0.0,0.0,0.0,0.0,0.0,0.0,0.0,0.0,0.0,-4.3497,-4.3497,-4.3497,-4.3497,-4.3497,-4.3497,-4.3497,0.0,0.0,0.0,0.0,0.0,0.0,0.0,0.0,0.0,0.0,0.0,0.0,0.0,0.0,0.0,0.0,0.0,0.0,0.0,0.0,0.0,0.0,0.0,0.0,0.0,0.0,0.0,0.0,0.0,0.0,0.0,0.0,0.0,0.0,0.0,0.0,0.0,0.0,0.0,0.0,0.0,0.0,0.0,0.0,0.0,0.0,0.0,0.0,0.0,0.0,0.0,0.0,0.0,0.0,0.0,0.0,0.0,0.0,0.0,0.0,0.0,0.0,0.0,0.0,0.0,0.0,0.0,0.0,0.0,0.0,0.0,0.0,0.0,0.0,0.0,0.0,0.0,0.0,0.0,0.0,0.0,0.0,0.0,0.0,0.0,0.0,0.0,0.0,0.0,0.0,0.0,0.0,0.0,0.0,0.0,0.0,0.0,0.0,0.0,0.0,0.0,0.0,0.0,0.0,0.0,0.0,0.0,-4.3497,-4.3497,-4.3497,-4.3497,-4.3463,-4.3463,-4.3463,-4.3463,-4.3463,0.0,0.0,0.0,0.0,0.0,0.0,0.0,0.0,0.0,0.0,0.0,0.0,0.0,0.0,0.0,0.0,0.0,0.0,0.0,0.0,0.0,0.0,0.0,0.0,0.0,0.0,0.0,0.0,0.0,0.0,0.0,0.0,0.0,0.0,0.0,0.0,0.0,0.0,-5.1059,-5.2454,0.0,0.0,0.0,0.0,0.0,0.0,0.0,0.0,-5.5904,0.0,0.0,0.0,0.0,0.0,0.0,0.0,0.0,0.0,0.0,0.0,0.0,0.0,0.0,0.0,0.0,0.0,0.0,0.0,0.0,0.0,0.0,0.0,0.0,0.0,0.0,0.0,0.0,0.0,0.0,0.0,0.0,0.0,0.0,0.0,0.0,0.0,0.0,0.0,0.0,0.0,0.0,0.0,0.0,0.0,0.0,0.0,0.0,0.0,0.0,0.0,0.0,0.0,0.0,0.0,0.0,-4.3497,-4.3497,-4.3463,-4.3393,-4.3429,-4.3358,-4.3251,-4.3251,-4.3251,-4.3214,0.0,0.0,0.0,0.0,0.0,0.0,0.0,0.0,0.0,0.0,0.0,0.0,0.0,0.0,0.0,0.0,0.0,0.0,0.0,0.0,0.0,0.0,0.0,0.0,0.0,0.0,0.0,0.0,0.0,0.0,0.0,0.0,0.0,0.0,0.0,0.0,0.0,0.0,0.0,-5.3628,-5.4216,0.0,0.0,0.0,0.0,0.0,0.0,0.0,0.0,-5.7042,0.0,0.0,0.0,0.0,0.0,0.0,0.0,0.0,0.0,0.0,0.0,0.0,0.0,0.0,0.0,0.0,0.0,0.0,0.0,0.0,0.0,0.0,0.0,0.0,0.0,0.0,0.0,0.0,0.0,0.0,0.0,0.0,0.0,0.0,0.0,0.0,0.0,0.0,0.0,0.0,0.0,0.0,0.0,0.0,0.0,0.0,0.0,0.0,0.0,0.0,0.0,0.0,0.0,0.0,0.0,-4.3571,-4.3901,-4.4086,-4.4053,-4.4419,-4.4382,-4.3834,-4.3834,-4.3652,0.0,0.0,0.0,0.0,0.0,0.0,0.0,0.0,0.0,0.0,0.0,0.0,0.0,0.0,0.0,0.0,0.0,0.0,0.0,0.0,0.0,0.0,0.0,0.0,0.0,0.0,0.0,0.0,0.0,0.0,0.0,0.0,0.0,0.0,0.0,0.0,0.0,0.0,0.0,0.0,-5.4142,-5.4546,-5.495,0.0,0.0,0.0,0.0,0.0,0.0,-5.7152,-5.7556,0.0,0.0,0.0,0.0,0.0,0.0,0.0,0.0,0.0,0.0,0.0,0.0,0.0,0.0,0.0,0.0,0.0,0.0,0.0,0.0,0.0,0.0,0.0,0.0,0.0,0.0,0.0,0.0,0.0,0.0,0.0,0.0,0.0,0.0,0.0,0.0,0.0,0.0,0.0,0.0,0.0,0.0,0.0,0.0,0.0,0.0,0.0,0.0,0.0,0.0,0.0,0.0,0.0,0.0,0.0,-4.3756,-4.4378,-4.4711,-4.4821,-4.5406,-4.5367,-4.456,-4.4378,-4.4014,0.0,0.0,0.0,0.0,0.0,0.0,0.0,0.0,0.0,0.0,0.0,0.0,0.0,0.0,0.0,0.0,0.0,0.0,0.0,0.0,0.0,0.0,0.0,0.0,0.0,0.0,0.0,0.0,0.0,0.0,0.0,0.0,0.0,0.0,0.0,0.0,0.0,0.0,0.0,0.0,0.0,-5.4913,-5.5721,-5.5978,0.0,0.0,0.0,0.0,-5.7079,-5.7593,0.0,0.0,0.0,0.0,0.0,0.0,0.0,0.0,0.0,0.0,0.0,0.0,0.0,0.0,0.0,0.0,0.0,0.0,0.0,0.0,0.0,0.0,0.0,0.0,0.0,0.0,0.0,0.0,0.0,0.0,0.0,0.0,0.0,0.0,0.0,0.0,0.0,0.0,0.0,0.0,0.0,0.0,0.0,0.0,0.0,0.0,0.0,0.0,0.0,0.0,0.0,0.0,0.0,0.0,0.0,0.0,-4.4528,-4.4673,-4.4931,-4.5477,-4.5548,-4.5433,-4.5007,-4.4393,-4.396,0.0,0.0,0.0,0.0,0.0,0.0,0.0,0.0,0.0,0.0,0.0,0.0,0.0,0.0,0.0,0.0,0.0,0.0,0.0,0.0,0.0,0.0,0.0,0.0,0.0,0.0,0.0,0.0,0.0,0.0,0.0,0.0,0.0,0.0,0.0,0.0,0.0,0.0,0.0,0.0,0.0,-5.5757,-5.6565,-5.7299,-5.7703,0.0,0.0,-5.7886,-5.785,-5.7923,0.0,0.0,0.0,0.0,0.0,0.0,0.0,0.0,0.0,0.0,0.0,0.0,0.0,0.0,0.0,0.0,0.0,0.0,0.0,0.0,0.0,0.0,0.0,0.0,0.0,0.0,0.0,0.0,0.0,0.0,0.0,0.0,0.0,0.0,0.0,0.0,0.0,0.0,0.0,0.0,0.0,0.0,0.0,0.0,0.0,0.0,0.0,0.0,0.0,0.0,0.0,0.0,0.0,0.0,0.0,-4.4343,-4.4711,-4.5553,-4.6102,-4.6278,-4.6633,-4.6472,-4.5797,-4.4998,-4.4345,0.0,0.0,0.0,0.0,0.0,0.0,0.0,0.0,0.0,0.0,0.0,0.0,0.0,0.0,0.0,0.0,0.0,0.0,0.0,0.0,0.0,0.0,0.0,0.0,0.0,0.0,0.0,0.0,0.0,0.0,0.0,0.0,0.0,0.0,0.0,0.0,0.0,0.0,0.0,0.0,0.0,0.0,-5.7373,-5.7776,0.0,0.0,0.0,-5.7997,-5.7997,0.0,0.0,0.0,0.0,0.0,0.0,0.0,0.0,0.0,0.0,0.0,0.0,0.0,0.0,0.0,0.0,0.0,0.0,0.0,0.0,0.0,0.0,0.0,0.0,0.0,0.0,0.0,0.0,0.0,0.0,0.0,0.0,0.0,0.0,0.0,0.0,0.0,0.0,0.0,0.0,0.0,0.0,0.0,0.0,0.0,0.0,0.0,0.0,0.0,0.0,0.0,0.0,0.0,0.0,0.0,0.0,0.0,-4.5297,-4.6431,-4.7051,-4.7117,-4.7497,-4.7325,-4.6549,-4.5666,0.0,0.0,0.0,0.0,0.0,0.0,0.0,0.0,0.0,0.0,0.0,0.0,0.0,0.0,0.0,0.0,0.0,0.0,0.0,0.0,0.0,0.0,0.0,0.0,0.0,0.0,0.0,-4.8753,0.0,0.0,0.0,0.0,0.0,0.0,0.0,0.0,0.0,0.0,0.0,0.0,0.0,0.0,-5.7116,-5.7886,-5.7997,-5.7997,0.0,0.0,-5.7997,-5.7997,-5.7997,-5.7997,0.0,0.0,0.0,0.0,0.0,0.0,0.0,0.0,0.0,0.0,0.0,0.0,0.0,0.0,0.0,0.0,0.0,0.0,0.0,0.0,0.0,0.0,0.0,0.0,0.0,0.0,0.0,0.0,0.0,0.0,0.0,0.0,0.0,0.0,0.0,0.0,0.0,0.0,0.0,0.0,0.0,0.0,0.0,0.0,0.0,0.0,0.0,0.0,0.0,0.0,0.0,0.0,0.0,0.0,0.0,-4.687,-4.698,-4.7307,-4.7882,-4.7788,-4.7536,-4.7212,-4.6275,-4.5356,0.0,0.0,0.0,0.0,0.0,0.0,0.0,0.0,0.0,0.0,0.0,0.0,0.0,0.0,0.0,0.0,0.0,0.0,0.0,0.0,0.0,0.0,0.0,0.0,0.0,0.0,0.0,0.0,0.0,0.0,0.0,0.0,0.0,0.0,0.0,0.0,0.0,0.0,0.0,0.0,0.0,-5.7079,-5.7886,-5.7997,-5.7997,0.0,0.0,-5.7997,-5.7997,-5.7997,-5.7997,-5.7997,0.0,0.0,0.0,0.0,0.0,0.0,0.0,0.0,0.0,0.0,0.0,0.0,0.0,0.0,0.0,0.0,0.0,0.0,0.0,0.0,0.0,0.0,0.0,0.0,0.0,0.0,0.0,0.0,0.0,0.0,0.0,0.0,0.0,0.0,0.0,0.0,0.0,0.0,0.0,0.0,0.0,0.0,0.0,0.0,0.0,0.0,0.0,0.0,0.0,0.0,0.0,0.0,0.0,-4.647,-4.709,-4.7414,-4.774,-4.7992,-4.7621,-4.7407,-4.732,-4.6257,-4.5508,0.0,0.0,0.0,0.0,0.0,0.0,0.0,0.0,0.0,0.0,0.0,0.0,0.0,0.0,0.0,0.0,0.0,0.0,0.0,0.0,0.0,0.0,0.0,0.0,0.0,0.0,0.0,0.0,-4.8636,-4.8306,-4.8306,0.0,0.0,0.0,0.0,0.0,0.0,0.0,0.0,0.0,0.0,-5.7666,-5.796,-5.7997,0.0,0.0,-5.7997,-5.7997,-5.7997,-5.7997,-5.7997,-5.7997,-5.7997,0.0,0.0,0.0,0.0,0.0,0.0,0.0,0.0,0.0,0.0,0.0,0.0,0.0,0.0,0.0,0.0,0.0,0.0,0.0,0.0,0.0,0.0,0.0,0.0,0.0,0.0,0.0,0.0,0.0,0.0,0.0,0.0,0.0,0.0,0.0,0.0,0.0,0.0,0.0,0.0,0.0,0.0,0.0,0.0,0.0,0.0,0.0,0.0,0.0,0.0,0.0,0.0,-4.7241,-4.7457,-4.7855,-4.8032,-4.7992,-4.7578,-4.732,-4.7276,-4.6381,-4.5762,0.0,0.0,0.0,0.0,0.0,0.0,0.0,0.0,0.0,0.0,0.0,0.0,0.0,0.0,0.0,0.0,0.0,0.0,0.0,0.0,0.0,0.0,0.0,0.0,0.0,0.0,0.0,0.0,-4.9407,-4.893,-4.871,0.0,0.0,0.0,0.0,0.0,0.0,0.0,0.0,0.0,0.0,-5.7997,-5.7997,-5.7997,-5.7997,-5.7997,-5.7997,-5.7997,-5.7997,-5.7997,-5.807,-5.8327,0.0,0.0,0.0,0.0,0.0,0.0,0.0,0.0,0.0,0.0,0.0,0.0,0.0,0.0,0.0,0.0,0.0,0.0,0.0,0.0,0.0,0.0,0.0,0.0,0.0,0.0,0.0,0.0,0.0,0.0,-5.3225,0.0,0.0,0.0,0.0,0.0,0.0,0.0,0.0,0.0,0.0,0.0,0.0,0.0,0.0,0.0,0.0,0.0,0.0,0.0,0.0,0.0,0.0,-4.7498,-4.8269,-4.8226,-4.8148,-4.7992,-4.7663,-4.7363,-4.7223,-4.6824,-4.6141,-4.5115,0.0,0.0,0.0,0.0,0.0,0.0,0.0,0.0,0.0,0.0,0.0,0.0,0.0,0.0,0.0,0.0,0.0,0.0,0.0,0.0,0.0,0.0,0.0,0.0,0.0,0.0,-5.0839,-5.0765,-5.0398,0.0,0.0,0.0,0.0,0.0,0.0,0.0,0.0,0.0,0.0,-5.6969,-5.7997,-5.7997,-5.7997,-5.7997,-5.7997,-5.7997,-5.7997,-5.7997,-5.7997,-5.829,0.0,0.0,0.0,0.0,0.0,0.0,0.0,0.0,0.0,0.0,0.0,0.0,0.0,0.0,0.0,0.0,0.0,0.0,0.0,0.0,0.0,0.0,0.0,0.0,0.0,0.0,0.0,-5.3225,-5.3225,0.0,0.0,0.0,0.0,0.0,0.0,0.0,0.0,0.0,0.0,0.0,-5.3225,-5.3225,0.0,0.0,0.0,0.0,0.0,0.0,0.0,0.0,0.0,0.0,0.0,0.0,-4.8049,-4.8306,-4.8226,-4.8148,-4.7992,-4.7663,-4.7407,-4.7312,-4.6824,-4.6094,-4.5019,0.0,0.0,0.0,0.0,0.0,0.0,0.0,0.0,0.0,0.0,0.0,0.0,0.0,0.0,0.0,0.0,0.0,0.0,0.0,0.0,0.0,0.0,0.0,0.0,0.0,-5.1683,0.0,0.0,0.0,0.0,0.0,0.0,0.0,0.0,0.0,0.0,0.0,-5.5794,-5.6345,-5.7336,-5.7997,-5.7997,-5.7997,-5.7997,0.0,0.0,0.0,0.0,0.0,0.0,0.0,0.0,0.0,0.0,0.0,0.0,0.0,0.0,-6.407,-6.2144,-6.2104,-6.2672,-6.352,0.0,0.0,0.0,0.0,0.0,0.0,0.0,0.0,0.0,0.0,0.0,0.0,0.0,0.0,-5.3885,0.0,-5.3628,0.0,0.0,0.0,0.0,0.0,0.0,0.0,0.0,-5.3225,-5.3225,-5.3225,-5.3225,-5.2931,0.0,-5.2123,-5.1463,0.0,0.0,0.0,0.0,0.0,0.0,0.0,0.0,-4.8306,-4.8306,-4.8229,-4.8151,-4.7992,-4.7747,-4.7493,-4.7276,-4.6742,-4.609,-4.5257,-4.5117,-4.5117,0.0,0.0,0.0,0.0,0.0,0.0,0.0,0.0,0.0,0.0,0.0,0.0,0.0,0.0,0.0,0.0,0.0,0.0,0.0,0.0,0.0,0.0,0.0,-5.2123,0.0,0.0,0.0,0.0,0.0,0.0,0.0,0.0,0.0,-5.4363,-5.5097,-5.5868,-5.6712,-5.7483,-5.7997,-5.7997,0.0,0.0,0.0,0.0,0.0,0.0,0.0,-5.9391,-5.9942,-6.0456,-6.119,-6.2254,-6.3518,-6.4475,-6.4783,0.0,0.0,-6.3869,-6.3841,-6.4381,-6.5238,-6.6021,-6.6737,-6.741,-6.8013,-6.8398,0.0,0.0,0.0,0.0,0.0,0.0,0.0,0.0,-5.5251,-5.5104,0.0,-5.4442,0.0,0.0,0.0,0.0,0.0,-5.3261,0.0,0.0,-5.3335,-5.3298,-5.3298,-5.3298,-5.3261,-5.3188,-5.2454,-5.2013,-5.1903,-5.0398,0.0,0.0,0.0,0.0,0.0,0.0,-4.8306,-4.8306,-4.8306,-4.819,-4.8032,-4.7875,-4.7621,-4.7178,-4.659,-4.6105,-4.5803,-4.5784,-4.5734,-4.5632,-4.5955,0.0,0.0,0.0,0.0,0.0,0.0,0.0,0.0,0.0,0.0,0.0,0.0,0.0,0.0,0.0,0.0,0.0,0.0,0.0,0.0,-5.3225,0.0,0.0,0.0,0.0,0.0,0.0,0.0,0.0,0.0,0.0,-5.4546,-5.517,-5.5941,-5.6748,0.0,0.0,0.0,0.0,-5.7997,-5.7997,-5.7997,-5.8327,-5.9098,-5.9281,-5.9832,-6.1337,0.0,0.0,-6.3796,-6.4154,-6.4598,-6.5558,-6.6118,-6.6366,-6.6721,-6.6899,-6.7271,-6.7719,-6.7974,-6.8272,-6.8421,-6.8667,-6.8744,-5.5757,0.0,0.0,0.0,0.0,-5.5133,-5.5251,-5.53,-5.5508,-5.5464,-5.5236,-5.5244,0.0,0.0,0.0,0.0,0.0,0.0,-5.4363,-5.4876,-5.4913,-5.4913,-5.4876,-5.4326,-5.4032,-5.4032,-5.3225,-5.2564,-5.1977,-5.1536,-5.0582,-4.9224,0.0,0.0,0.0,0.0,-4.8306,-4.8306,-4.8306,-4.8229,-4.8148,-4.7951,-4.7542,-4.7088,-4.6684,-4.635,-4.6105,-4.5822,-4.5667,-4.5736,-4.5754,0.0,0.0,0.0,0.0,0.0,0.0,0.0,0.0,0.0,0.0,0.0,0.0,0.0,0.0,0.0,0.0,0.0,0.0,0.0,-5.3225,-5.3225,-5.3115,0.0,0.0,0.0,0.0,0.0,0.0,0.0,0.0,0.0,-5.5978,-5.6308,-5.6748,0.0,0.0,-5.7997,-5.7997,-5.7997,-5.7997,-5.7997,-5.851,0.0,-5.9171,-6.0162,-6.108,-6.152,-6.2071,-6.2842,-6.3906,-6.4669,-6.5446,-6.6408,-6.7343,-6.8091,-6.8372,-6.7805,-6.7498,-6.7833,-6.848,-6.9309,-7.0025,-7.0667,-7.1283,-5.7005,-5.6492,-5.5868,-5.5611,-5.5611,-5.5941,-5.6059,-5.611,-5.6426,-5.6373,-5.6071,-5.608,-5.5904,-5.5574,-5.5097,0.0,0.0,0.0,-5.5133,-5.5611,-5.5611,-5.5611,-5.5537,-5.5097,-5.4693,-5.4399,-5.3922,-5.3261,-5.2491,-5.216,-5.1499,-5.0508,0.0,0.0,-4.8343,-4.8306,-4.8306,-4.8306,-4.8306,-4.8267,-4.8187,-4.7911,-4.7536,-4.7088,-4.6906,-4.659,-4.6253,-4.5974,-4.5805,-4.5736,-4.5684,-4.5787,0.0,0.0,0.0,0.0,0.0,0.0,0.0,0.0,0.0,0.0,0.0,-5.3225,0.0,0.0,0.0,0.0,-5.3225,-5.3225,-5.3225,-5.3225,0.0,0.0,0.0,0.0,0.0,0.0,0.0,-5.4326,-5.495,-5.5721,-5.6675,-5.7079,-5.7446,-5.7923,-5.7997,-5.7997,-5.7997,0.0,-5.8107,-5.8437,-5.8877,-5.9428,-6.0089,-6.097,-6.1704,-6.2034,-6.2475,-6.3246,-6.4383,-6.5059,-6.5874,-6.711,-6.8074,-6.8754,-6.916,-6.8711,-6.8561,-6.9246,-6.9934,-7.0767,-7.1717,-7.236,-7.286,-5.7997,-5.785,-5.6381,-5.5794,-5.5868,-5.6602,-5.6904,-5.6956,-5.7675,-5.7584,-5.6905,-5.6887,-5.6455,-5.5684,-5.5684,0.0,-5.5684,-5.5684,-5.5721,-5.5757,-5.5757,-5.5794,-5.5757,-5.5721,-5.528,-5.4583,-5.4473,-5.4032,-5.3298,-5.2491,-5.205,-5.194,-5.0508,-4.9334,-4.8453,-4.8416,-4.8379,-4.8306,-4.8306,-4.8304,-4.8187,-4.7866,-4.7572,-4.7259,-4.7088,-4.6778,-4.6266,-4.6204,-4.604,-4.5649,-4.5734,-4.5784,-4.5803,0.0,0.0,0.0,0.0,0.0,0.0,0.0,0.0,0.0,0.0,0.0,0.0,0.0,0.0,0.0,-5.3225,0.0,-5.3225,-5.3225,0.0,0.0,0.0,-5.3298,-5.3298,-5.3995,-5.4509,-5.4583,0.0,0.0,-5.6895,-5.7556,-5.7997,-5.7997,-5.7997,-5.7997,-5.7997,-5.7997,-5.829,-5.9061,-5.9281,-5.9869,-6.119,-6.163,-6.1961,-6.2622,-6.2805,-6.3429,-6.4897,-6.5264,-6.6029,-6.7686,-6.8321,-6.866,-6.9078,-6.9466,-7.0194,-7.1345,-7.1772,-7.2234,-7.3226,-7.3591,-7.3668,-5.7997,-5.796,-5.7593,-5.7409,-5.7446,-5.7629,-5.7703,-5.7749,-5.7886,-5.7886,-5.7694,-5.774,-5.7262,-5.6528,-5.6528,-5.6528,-5.6528,-5.6528,-5.6859,-5.7409,-5.7409,-5.7446,-5.7409,-5.6822,-5.6418,-5.6161,-5.4987,-5.4289,-5.4069,-5.3298,-5.2601,-5.2013,-5.161,-5.0692,-4.9334,-4.926,-4.8967,-4.8306,-4.8306,-4.8267,-4.8187,-4.8028,-4.7824,-4.7572,-4.7312,-4.7043,-4.6824,-4.6398,-4.6154,-4.6055,-4.5885,-4.5835,-4.5955,-4.6005,0.0,0.0,0.0,0.0,0.0,0.0,0.0,0.0,0.0,-5.3103,-5.3225,0.0,-5.3225,0.0,-5.3225,-5.3225,-5.3225,-5.3225,0.0,0.0,-5.3739,-5.4106,-5.4106,-5.484,-5.5537,-5.6161,-5.6565,-5.7042,-5.7666,-5.7886,-5.7997,-5.7997,-5.7997,-5.7997,-5.7997,-5.7997,-5.829,-5.9098,-5.9722,-6.0456,-6.1447,-6.2144,-6.2548,-6.2768,-6.2805,-6.3392,-6.5044,-6.5338,-6.5919,-6.7649,-6.8321,-6.866,-6.9078,-6.9542,-7.0232,-7.1353,-7.1816,-7.2464,-7.3974,-7.4341,-7.463,-5.8327,-5.7997,-5.7997,-5.7997,-5.7997,-5.7997,-5.7997,-5.7997,-5.7997,-5.7997,-5.7997,-5.7997,-5.774,-5.7336,-5.7336,-5.7336,-5.7336,-5.7336,-5.7593,-5.7997,-5.7997,-5.7997,-5.796,-5.7556,-5.7152,-5.6785,-5.5904,-5.5097,-5.4399,-5.3959,-5.3335,-5.2564,-5.2527,-5.1903,-5.0692,-5.0288,-4.9884,-4.9444,-4.9077,-4.8671,-4.8187,-4.8148,-4.7988,-4.7699,-4.7529,-4.7312,-4.7088,-4.6766,-4.6495,-4.6398,-4.6168,-4.6119,-4.6154,-4.6505,-4.6864,0.0,0.0,0.0,0.0,0.0,0.0,0.0,0.0,0.0,0.0,0.0,-5.3225,-5.3225,-5.3225,-5.3225,-5.3225,-5.3225,-5.3371,-5.3702,-5.4142,-5.4509,-5.4876,-5.5647,-5.6308,-5.6748,-5.7116,-5.7483,-5.7923,-5.7997,-5.7997,-5.7997,-5.7997,-5.7997,-5.7997,-5.7997,-5.84,-5.9585,-6.0089,-6.0823,-6.1961,-6.2511,-6.2805,-6.2805,-6.2805,-6.3282,-6.453,-6.5081,-6.5809,-6.7243,-6.8099,-6.866,-6.9078,-6.9542,-7.0157,-7.1172,-7.1784,-7.2625,-7.4243,-7.4956,-7.5476,-5.8951,-5.829,-5.8327,-5.8327,-5.8327,-5.829,-5.818,-5.7997,-5.7997,-5.7997,-5.7997,-5.7997,-5.7997,-5.7997,-5.7997,-5.7997,-5.7997,-5.7997,-5.7997,-5.7997,-5.7997,-5.7997,-5.7997,-5.7997,-5.7629,-5.6969,-5.6859,-5.6088,-5.473,-5.462,-5.4142,-5.3408,-5.3371,-5.2931,-5.216,-5.1463,-5.1022,-5.0802,-5.0105,-4.9368,-4.8593,-4.8517,-4.8324,-4.7964,-4.7844,-4.768,-4.7267,-4.7088,-4.6952,-4.6684,-4.6613,-4.6636,-4.6636,-4.7413,-4.7922,0.0,-4.8971,0.0,0.0,0.0,0.0,0.0,0.0,0.0,0.0,-5.3225,-5.3225,-5.3225,-5.3225,-5.3225,-5.3225,-5.3298,-5.3628,-5.4326,-5.4583,-5.4987,-5.5684,-5.6455,-5.6969,-5.6969,-5.7556,-5.7997,-5.7997,-5.7997,-5.7997,-5.7997,-5.7997,-5.7997,-5.7997,-5.7997,-5.851,-6.0026,-6.0419,-6.1141,-6.2401,-6.2805,-6.2805,-6.2805,-6.2805,-6.3135,-6.398,-6.4677,-6.5551,-6.669,-6.7679,-6.8464,-6.9041,-6.9542,-7.0119,-7.1024,-7.1636,-7.2579,-7.4136,-7.5148,-7.5822,-6.0089,-5.9942,-5.9979,-5.9942,-5.9942,-5.9942,-5.9208,-5.7997,-5.7997,-5.7997,-5.7997,-5.7997,-5.7997,-5.7997,-5.7997,-5.7997,-5.7997,-5.7997,-5.7997,-5.7997,-5.7997,-5.7997,-5.7997,-5.7997,-5.7923,-5.774,-5.7116,-5.6638,-5.6345,-5.5684,-5.495,-5.4179,-5.4179,-5.3775,-5.3004,0.0,0.0,0.0,-5.0655,-5.0508,-5.0321,-5.0204,-4.9793,-4.909,-4.881,0.0,-4.7651,-4.7312,-4.7133,-4.7124,-4.7604,0.0,0.0,0.0,0.0,0.0,0.0,0.0,0.0,0.0,0.0,0.0,-5.2937,-5.3023,-5.3146,-5.3225,-5.3225,-5.3225,-5.3225,-5.3225,-5.3225,-5.3775,-5.4216,-5.4399,-5.5537,-5.6418,-5.6602,-5.7262,-5.7776,-5.7776,-5.7886,-5.7997,-5.7997,-5.7997,-5.7997,-5.7997,-5.7997,-5.7997,-5.7997,-5.7997,-5.8364,-5.9318,-6.0518,-6.1679,-6.2658,-6.2805,-6.2805,-6.2805,-6.2805,-6.3135,-6.387,-6.42,-6.4963,-6.6468,-6.7222,-6.7848,-6.8966,-6.9542,-6.9967,-7.0378,-7.1292,-7.251,-7.4152,-7.4734,-7.5168,-6.075,0.0,-6.0419,-6.0419,0.0,-6.0419,-5.9942,-5.9171,-5.8767,-5.8364,-5.7997,-5.7997,-5.7997,-5.7997,-5.7997,-5.8217,-5.8621,-5.8584,-5.8804,-5.9171,-5.8777,-5.8593,-5.8584,-5.818,-5.7997,-5.796,-5.7593,-5.7189,-5.6785,-5.6381,-5.5794,-5.4987,-5.4987,-5.4803,-5.4399,-5.3995,-5.3004,-5.1389,-5.1389,-5.1206,-5.0802,-5.0725,-5.046,-5.0017,-4.9815,0.0,0.0,0.0,0.0,0.0,0.0,0.0,0.0,0.0,0.0,-5.021,-5.107,-5.1633,-5.1808,-5.2363,-5.2798,-5.293,-5.3017,-5.3103,-5.3225,-5.3225,-5.3225,-5.3225,-5.3225,-5.3371,-5.3775,-5.4179,-5.473,-5.55,-5.6308,-5.6932,-5.7336,-5.774,-5.7997,-5.7997,-5.7997,-5.7997,-5.7997,-5.7997,-5.7997,-5.7997,-5.7997,-5.7997,-5.7997,-5.7997,-5.84,-5.9601,-6.0762,-6.1898,-6.2608,-6.2805,-6.2805,-6.2805,-6.2805,-6.2989,-6.3392,-6.3796,-6.4485,-6.5546,-6.647,-6.7503,-6.8403,-6.924,-6.9891,-7.0187,-7.0834,-7.1743,-7.3047,-7.4013,-7.4822,-6.141,-6.0823,-6.0823,-6.0823,-6.0823,-6.0823,-6.075,-6.0566,0.0,0.0,0.0,-5.8437,-5.8437,-5.8437,-5.8437,-5.8804,-5.9428,-5.9428,-5.9758,-6.0382,-5.9742,-5.9402,-5.9391,-5.8584,-5.818,-5.8217,-5.807,-5.7666,-5.7042,-5.7042,-5.6602,-5.5868,-5.5794,-5.5721,-5.5537,-5.495,-5.3959,-5.2674,-5.2344,-5.1903,-5.1279,-5.1206,-5.1092,-5.0863,-5.0863,-5.067,-5.0441,-5.0356,-5.0264,-5.0177,-5.0198,-5.0137,-5.0046,-5.0803,-5.1236,-5.1272,-5.2072,-5.2572,-5.2572,-5.2806,-5.3017,-5.3023,-5.3146,-5.3225,-5.3225,-5.3225,-5.3225,-5.3225,-5.3225,-5.3555,-5.4326,-5.4546,-5.5207,-5.6638,-5.6932,-5.7299,-5.7886,-5.7997,-5.7997,-5.7997,-5.7997,-5.7997,-5.7997,-5.7997,-5.7997,-5.7997,-5.7997,-5.7997,-5.7997,-5.8189,-5.8777,-6.0089,-6.1056,-6.1898,-6.2572,-6.2805,-6.2805,-6.2805,-6.2805,-6.2805,-6.2915,-6.3392,-6.3934,-6.4475,-6.5841,-6.7077,-6.7916,-6.9015,-6.9815,-7.0149,-7.049,-7.0899,-7.1735,-7.3206,-7.4476,-6.2585,-6.2475,-6.2475,-6.2475,-6.2475,-6.2475,-6.2071,-6.1374,-6.0566,-6.0162,-6.0052,-6.0052,-6.0052,-6.0052,-6.0052,-6.0126,-6.0236,-6.0236,-6.0309,-6.0419,-6.0272,-6.0199,-6.0199,-5.9412,-5.9044,-5.8988,-5.8327,-5.7923,-5.785,-5.7813,-5.7409,-5.6712,-5.6638,-5.6308,-5.5647,-5.5464,-5.5317,-5.506,-5.3739,-5.2968,-5.2894,-5.2858,-5.2527,-5.1867,-5.171,-5.1297,-5.0602,-5.0477,-5.0399,-5.0356,-5.1012,-5.1333,-5.137,-5.2098,-5.2535,-5.2571,-5.2644,-5.2761,-5.2761,-5.2893,-5.306,-5.3182,-5.3188,-5.3225,-5.3225,-5.3225,-5.3225,-5.3225,-5.3225,-5.3555,-5.4326,-5.5023,-5.5794,-5.6712,-5.7409,-5.7886,-5.7997,-5.7997,-5.7997,-5.7997,-5.7997,-5.7997,-5.7997,-5.7997,-5.7997,-5.7997,-5.7997,-5.7997,-5.8143,-5.864,-5.9375,-6.0236,-6.1092,-6.1898,-6.2572,-6.2805,-6.2805,-6.2805,-6.2805,-6.2805,-6.2805,-6.2952,-6.3382,-6.4217,-6.5371,-6.6519,-6.7691,-6.8981,-6.9735,-7.0144,-7.049,-7.0784,-7.1044,-7.2467,-7.3899,-6.4163,-6.4163,-6.4163,-6.4163,-6.4127,-6.3686,-6.3025,-6.2254,-6.1887,-6.1227,-6.0419,-6.0419,-6.0419,-6.0419,-6.0419,-6.0639,-6.1043,-6.1043,-6.13,-6.1667,-6.1288,-6.1031,-6.097,-6.0224,-5.9858,-5.9795,-5.9024,-5.8657,-5.8621,-5.8217,-5.7813,-5.7483,-5.7483,-5.7262,-5.6895,-5.6455,-5.6235,-5.6235,-5.5097,-5.4289,-5.3885,-5.3849,-5.3482,-5.2674,-5.2595,-5.2407,-5.2004,-5.1962,-5.1883,-5.1798,-5.2163,-5.2346,-5.2258,-5.2623,-5.2806,-5.2806,-5.285,-5.2893,-5.2893,-5.306,-5.3146,-5.3225,-5.3225,-5.3225,-5.3225,-5.3225,-5.3225,-5.3225,-5.3592,-5.4179,-5.495,-5.5757,-5.6565,-5.7373,-5.7813,-5.796,-5.7997,-5.7997,-5.7997,-5.7997,-5.7997,-5.7997,-5.7997,-5.7997,-5.7997,-5.7997,-5.7997,-5.8143,-5.8584,-5.9348,-5.9973,-6.0382,-6.1056,-6.1898,-6.2608,-6.2805,-6.2805,-6.2805,-6.2805,-6.2805,-6.2805,-6.2855,-6.3149,-6.3664,-6.4705,-6.5849,-6.7091,-6.8338,-6.9277,-7.0175,-7.0522,-7.0708,-7.092,-7.2198,-7.3822,-6.5338,-6.5338,-6.5338,-6.5338,-6.5264,-6.464,-6.398,-6.3392,-6.3356,-6.2658,-6.1557,-6.1117,-6.0933,-6.0933,-6.0933,-6.13,-6.1814,-6.1851,-6.2218,-6.2695,-6.2155,-6.1862,-6.1814,-6.108,-6.0677,-6.0603,-5.9869,-5.9465,-5.9391,-5.8657,-5.818,-5.7997,-5.7997,-5.7997,-5.7997,-5.7373,-5.7079,-5.7042,-5.6455,-5.5647,-5.4693,-5.4656,-5.4363,-5.3812,-5.3592,-5.3482,-5.3482,-5.3298,-5.3146,-5.306,-5.306,-5.3017,-5.2893,-5.2893,-5.293,-5.2893,-5.298,-5.306,-5.306,-5.3146,-5.3225,-5.3225,-5.3225,-5.3225,-5.3225,-5.3225,-5.3225,-5.3298,-5.3922,-5.4693,-5.5464,-5.6308,-5.7116,-5.785,-5.7997,-5.7997,-5.7997,-5.7997,-5.7997,-5.7997,-5.7997,-5.7997,-5.7997,-5.7997,-5.7997,-5.7997,-5.8143,-5.8547,-5.9171,-6.001,-6.0599,-6.0834,-6.1361,-6.2082,-6.2732,-6.2805,-6.2805,-6.2805,-6.2805,-6.2805,-6.2805,-6.2904,-6.3051,-6.3379,-6.4251,-6.5477,-6.6612,-6.7808,-6.9011,-7.0057,-7.0515,-7.0776,-7.1199,-7.2381,-7.4014,-6.5338,-6.5338,-6.5375,-6.5338,-6.5338,-6.5228,-6.5118,-6.5007,-6.5081,-6.5007,-6.4567,-6.3282,-6.2585,-6.2585,-6.2585,-6.2658,-6.2732,-6.2695,-6.2805,-6.2879,-6.2732,-6.2732,-6.2622,-6.1887,-6.1484,-6.141,-6.0676,-6.0309,-6.0272,-5.9501,-5.8731,-5.807,-5.7997,-5.7997,-5.7997,-5.7923,-5.7886,-5.7886,-5.7813,-5.7042,-5.5611,-5.55,-5.5464,-5.539,-5.4656,-5.4289,-5.4289,-5.3592,-5.3225,-5.3182,-5.3182,-5.3182,-5.3182,-5.3182,-5.3182,-5.3182,-5.3146,-5.3146,-5.3182,-5.3225,-5.3225,-5.3225,-5.3225,-5.3225,-5.3261,-5.3261,-5.3225,-5.3408,-5.3995,-5.4803,-5.55,-5.6381,-5.7189,-5.7886,-5.7997,-5.7997,-5.7997,-5.7997,-5.7997,-5.7997,-5.7997,-5.7997,-5.7997,-5.7997,-5.7997,-5.8107,-5.8621,-5.9098,-5.9538,-6.0515,-6.1445,-6.1606,-6.2181,-6.2572,-6.2805,-6.2805,-6.2805,-6.2805,-6.2805,-6.2805,-6.2855,-6.2953,-6.3099,-6.34,-6.4197,-6.5419,-6.6657,-6.7996,-6.9043,-6.9933,-7.054,-7.0959,-7.1842,-7.2822,-7.4053,-6.6696,-6.6696,-6.6733,-6.6439,-6.6072,-6.5999,-6.5742,-6.5338,-6.5338,-6.5338,-6.5264,-6.4604,-6.431,-6.4273,-6.431,-6.4273,-6.4273,-6.4273,-6.431,-6.4273,-6.4288,-6.403,-6.3539,-6.3246,-6.2842,-6.2254,-6.1484,-6.1117,-6.097,-6.0309,-5.9758,-5.9391,-5.8988,-5.8731,-5.8694,-5.8253,-5.7997,-5.7997,-5.7997,-5.7666,-5.7042,-5.6528,-5.6051,-5.5611,-5.5244,-5.5097,-5.5097,-5.4766,-5.462,-5.4583,-5.4179,-5.3922,-5.3922,-5.3482,-5.3225,-5.3225,-5.3225,-5.3225,-5.3225,-5.3225,-5.3225,-5.3225,-5.3225,-5.3366,-5.3836,-5.3916,-5.4069,-5.4583,-5.4913,-5.5427,-5.6235,-5.7042,-5.7666,-5.7923,-5.7997,-5.7997,-5.7997,-5.7997,-5.7997,-5.7997,-5.7997,-5.7997,-5.7997,-5.7997,-5.8217,-5.8584,-5.9061,-5.9538,-6.0419,-6.1213,-6.1728,-6.2181,-6.2622,-6.2768,-6.2805,-6.2805,-6.2805,-6.2805,-6.2805,-6.2805,-6.2904,-6.3002,-6.3194,-6.3465,-6.4085,-6.4955,-6.6026,-6.7273,-6.8345,-6.9489,-7.0516,-7.1112,-7.2014,-7.2899,-7.3937,-6.8017,-6.7981,-6.7797,-6.7357,-6.6843,-6.6806,-6.6512,-6.5999,-6.5962,-6.5962,-6.5962,-6.5962,-6.5962,-6.5888,-6.5521,-6.5338,-6.5338,-6.5338,-6.5338,-6.5301,-6.5316,-6.4985,-6.4457,-6.4457,-6.3965,-6.3209,-6.2585,-6.2034,-6.1594,-6.1043,-6.0639,-6.0346,-5.9832,-5.9538,-5.9428,-5.8731,-5.829,-5.83,-5.8107,-5.7997,-5.7886,-5.7446,-5.6859,-5.6271,-5.6014,-5.5904,-5.5904,-5.5684,-5.5611,-5.5574,-5.5023,-5.473,-5.4693,-5.4179,-5.3849,-5.3885,-5.3885,-5.3849,-5.3849,-5.3849,-5.3849,-5.3849,-5.3849,-5.4099,-5.4569,-5.4723,-5.5097,-5.5794,-5.5941,-5.6198,-5.6748,-5.7519,-5.796,-5.7997,-5.7997,-5.7997,-5.7997,-5.7997,-5.7997,-5.7997,-5.7997,-5.7997,-5.8033,-5.8217,-5.8584,-5.9061,-5.9612,-6.0162,-6.1337,-6.1753,-6.2157,-6.2695,-6.2805,-6.2805,-6.2805,-6.2805,-6.2805,-6.2805,-6.2805,-6.2855,-6.3002,-6.3147,-6.3373,-6.3602,-6.3935,-6.4612,-6.588,-6.6885,-6.8165,-6.9383,-7.0374,-7.1091,-7.1591,-7.2552,-7.336,-6.8862,-6.8752,-6.8017,-6.776,-6.765,-6.7687,-6.765,-6.7577,-6.7577,-6.7577,-6.7577,-6.7577,-6.7577,-6.7467,-6.6219,-6.5411,-6.5375,-6.5448,-6.5448,-6.5485,-6.5411,-6.5338,-6.5264,-6.5228,-6.4824,-6.409,-6.3943,-6.3135,-6.1777,-6.1594,-6.1153,-6.0493,-6.0419,-6.0357,-6.021,-5.9538,-5.9181,-5.9081,-5.852,-5.807,-5.8033,-5.7997,-5.7923,-5.7776,-5.7152,-5.6748,-5.6675,-5.6014,-5.5647,-5.5611,-5.5574,-5.5537,-5.5537,-5.5464,-5.539,-5.539,-5.5427,-5.5427,-5.539,-5.5354,-5.5397,-5.5441,-5.5287,-5.55,-5.5522,-5.553,-5.5904,-5.6675,-5.6748,-5.6822,-5.6932,-5.7593,-5.796,-5.7997,-5.7997,-5.7997,-5.7997,-5.7997,-5.7997,-5.7997,-5.7997,-5.7997,-5.7997,-5.8694,-5.9061,-5.9538,-6.0493,-6.1484,-6.1704,-6.2254,-6.2658,-6.2768,-6.2805,-6.2805,-6.2805,-6.2805,-6.2805,-6.2805,-6.2805,-6.2855,-6.3051,-6.3194,-6.3511,-6.3766,-6.4091,-6.4807,-6.5915,-6.7169,-6.8556,-6.9692,-7.0469,-7.1091,-7.1245,-7.1783,-7.2629,-6.9669,-6.9633,-6.9376,-6.9229,-6.9229,-6.9229,-6.9229,-6.9229,-6.9229,-6.9229,-6.9229,-6.9229,-6.9229,-6.9192,-6.8641,-6.7797,-6.688,-6.6843,-6.6843,-6.6806,-6.6806,-6.6549,-6.6109,-6.6072,-6.5668,-6.4971,-6.4861,-6.431,-6.3246,-6.2658,-6.2254,-6.1887,-6.141,-6.1153,-6.1018,-6.0346,-5.9989,-5.9926,-5.9659,-5.9538,-5.9428,-5.9061,-5.8767,-5.8731,-5.7997,-5.7593,-5.7556,-5.7299,-5.7116,-5.7116,-5.6638,-5.6381,-5.6308,-5.5868,-5.5611,-5.5611,-5.5611,-5.5611,-5.5611,-5.5611,-5.5611,-5.5611,-5.5611,-5.586,-5.6255,-5.641,-5.6675,-5.7336,-5.7556,-5.7593,-5.7629,-5.785,-5.7997,-5.7997,-5.7997,-5.7997,-5.7997,-5.7997,-5.7997,-5.7997,-5.7997,-5.7997,-5.818,-5.8731,-5.9391,-5.9979,-6.0896,-6.1704,-6.2291,-6.2658,-6.2805,-6.2805,-6.2805,-6.2805,-6.2805,-6.2805,-6.2805,-6.2805,-6.2855,-6.3002,-6.3147,-6.3336,-6.3602,-6.3947,-6.4299,-6.4853,-6.5872,-6.7337,-6.879,-7.0134,-7.0871,-7.0898,-7.0898,-7.1629,-7.2437,-7.033,-7.011,-7.011,-7.011,-7.011,-7.011,-7.011,-7.011,-7.011,-7.011,-7.011,-7.011,-7.011,-7.011,-7.011,-6.9559,-6.8531,-6.8458,-6.8348,-6.8091,-6.8091,-6.765,-6.699,-6.688,-6.6439,-6.5742,-6.5411,-6.5007,-6.4494,-6.3906,-6.3503,-6.3172,-6.2658,-6.2254,-6.1887,-6.119,-6.0786,-6.075,-6.0529,-6.0382,-6.0346,-5.9905,-5.9575,-5.9538,-5.9061,-5.851,-5.8033,-5.7997,-5.7997,-5.7923,-5.7483,-5.7189,-5.7152,-5.6675,-5.6381,-5.6345,-5.6381,-5.6381,-5.6381,-5.6381,-5.6381,-5.6373,-5.6418,-5.663,-5.7134,-5.718,-5.7483,-5.785,-5.7997,-5.7997,-5.7997,-5.7997,-5.7997,-5.7997,-5.7997,-5.7997,-5.7997,-5.7997,-5.7997,-5.8033,-5.829,-5.8364,-5.8547,-5.9391,-6.0162,-6.075,-6.1484,-6.2218,-6.2658,-6.2805,-6.2805,-6.2805,-6.2805,-6.2805,-6.2805,-6.2805,-6.2805,-6.2805,-6.2904,-6.3051,-6.3242,-6.3511,-6.378,-6.4075,-6.4552,-6.5049,-6.6053,-6.75,-6.8973,-7.0441,-7.0843,-7.0898,-7.1168,-7.1629,-7.2437,-7.0881,-7.0293,-7.0146,-7.0293,-7.033,-7.033,-7.0183,-7.0293,-7.0257,-7.0367,-7.044,-7.0257,-7.0367,-7.0257,-7.0403,-7.0183,-7.011,-7.011,-6.9669,-6.8972,-6.8898,-6.8531,-6.7834,-6.7724,-6.7283,-6.6476,-6.5742,-6.5375,-6.5301,-6.5118,-6.4714,-6.42,-6.4016,-6.3576,-6.2842,-6.2218,-6.1728,-6.1569,-6.1105,-6.0639,-6.0419,-6.0456,-6.0419,-6.0419,-6.0272,-5.9575,-5.818,-5.807,-5.807,-5.7997,-5.796,-5.796,-5.7886,-5.7813,-5.7886,-5.7776,-5.7886,-5.7923,-5.7886,-5.7813,-5.7703,-5.774,-5.7886,-5.7776,-5.7813,-5.7886,-5.7923,-5.796,-5.7997,-5.7997,-5.7997,-5.7997,-5.7997,-5.7997,-5.7997,-5.7997,-5.7997,-5.7997,-5.7997,-5.818,-5.8657,-5.9171,-5.9501,-6.0382,-6.1263,-6.152,-6.2144,-6.2658,-6.2768,-6.2805,-6.2805,-6.2805,-6.2805,-6.2805,-6.2805,-6.2805,-6.2805,-6.2805,-6.2953,-6.3099,-6.3336,-6.3602,-6.3915,-6.4281,-6.5011,-6.5603,-6.7261,-6.8589,-6.9376,-7.0536,-7.0679,-7.0898,-7.1168,-7.1591,-7.2476,-7.1982,-7.1762,-7.1762,-7.1762,-7.1762,-7.1762,-7.1762,-7.1762,-7.1762,-7.1762,-7.1762,-7.1762,-7.1762,-7.1762,-7.1762,-7.1725,-7.1762,-7.1725,-7.1027,-6.9926,-6.9743,-6.9596,-6.9265,-6.8788,-6.8091,-6.7283,-6.6512,-6.6145,-6.6072,-6.5632,-6.5154,-6.4971,-6.4934,-6.4765,-6.4462,-6.4251,-6.3906,-6.3369,-6.3062,-6.2695,-6.2071,-6.152,-6.1227,-6.1153,-6.0713,-6.0126,-5.9685,-5.9134,-5.8584,-5.8033,-5.7997,-5.7997,-5.7997,-5.7997,-5.7997,-5.7997,-5.7997,-5.7997,-5.7997,-5.7997,-5.7997,-5.7997,-5.7997,-5.7997,-5.7997,-5.7997,-5.7997,-5.7997,-5.7997,-5.7997,-5.7997,-5.7997,-5.7997,-5.7997,-5.7997,-5.7997,-5.807,-5.8033,-5.8253,-5.8731,-5.9061,-5.9428,-6.0052,-6.108,-6.163,-6.1704,-6.2328,-6.2805,-6.2805,-6.2805,-6.2805,-6.2805,-6.2805,-6.2805,-6.2842,-6.2952,-6.3062,-6.3038,-6.3113,-6.3379,-6.3613,-6.3885,-6.4192,-6.4897,-6.5571,-6.6668,-6.8339,-6.9393,-7.0113,-7.0525,-7.0821,-7.0937,-7.1014,-7.1668,-7.2668,-7.2532,-7.2532,-7.2532,-7.2532,-7.2532,-7.2532,-7.2532,-7.2532,-7.2532,-7.2532,-7.2496,-7.2496,-7.2532,-7.2532,-7.2532,-7.2532,-7.2532,-7.2496,-7.1982,-7.1027,-7.0624,-7.0403,-7.011,-6.9596,-6.9119,-6.8605,-6.8091,-6.765,-6.7357,-6.688,-6.6366,-6.5852,-6.5778,-6.5573,-6.5382,-6.5279,-6.4971,-6.4618,-6.4494,-6.4273,-6.3759,-6.3246,-6.2842,-6.2511,-6.2034,-6.1484,-6.0896,-6.0346,-5.9575,-5.8621,-5.818,-5.7997,-5.7997,-5.7997,-5.7997,-5.7997,-5.7997,-5.7997,-5.7997,-5.7997,-5.7997,-5.7997,-5.7997,-5.7997,-5.7997,-5.7997,-5.7997,-5.7997,-5.7997,-5.7997,-5.7997,-5.7997,-5.7997,-5.7997,-5.7997,-5.8143,-5.8327,-5.8427,-5.8794,-5.9417,-5.9942,-6.0346,-6.0823,-6.152,-6.1998,-6.2144,-6.2475,-6.2805,-6.2805,-6.2805,-6.2805,-6.2842,-6.2805,-6.2842,-6.2842,-6.3025,-6.3319,-6.3358,-6.3309,-6.3648,-6.3993,-6.4464,-6.4841,-6.6068,-6.695,-6.7713,-6.9165,-6.9816,-7.0448,-7.0679,-7.0937,-7.1168,-7.1398,-7.2206,-7.3168,-7.2532,-7.2532,-7.2532,-7.2532,-7.2532,-7.2532,-7.2532,-7.2532,-7.2532,-7.2532,-7.2532,-7.2532,-7.2569,-7.2569,-7.2716,-7.2753,-7.2679,-7.2826,-7.2863,-7.2496,-7.1982,-7.1321,-7.0367,-7.022,-7.0036,-6.9889,-6.9853,-6.9559,-6.8862,-6.8752,-6.8201,-6.7026,-6.6916,-6.6366,-6.5999,-6.5595,-6.5668,-6.5396,-6.5375,-6.5338,-6.5154,-6.5154,-6.4824,-6.4127,-6.398,-6.3319,-6.2071,-6.152,-6.075,-5.9391,-5.8584,-5.818,-5.8107,-5.8033,-5.7997,-5.7997,-5.7997,-5.7997,-5.7997,-5.7997,-5.7997,-5.7997,-5.7997,-5.7997,-5.7997,-5.7997,-5.7997,-5.7997,-5.7997,-5.7997,-5.7997,-5.7997,-5.7997,-5.807,-5.8217,-5.8474,-5.9051,-5.9187,-5.9626,-6.0334,-6.1117,-6.1594,-6.163,-6.2291,-6.2622,-6.2732,-6.2768,-6.2805,-6.2805,-6.2842,-6.2842,-6.2952,-6.3135,-6.3392,-6.3613,-6.3906,-6.4177,-6.4204,-6.4168,-6.4446,-6.4762,-6.5234,-6.595,-6.7157,-6.8106,-6.8939,-6.9625,-7.0239,-7.0602,-7.0821,-7.1091,-7.1398,-7.2014,-7.2783,-7.3591,-7.2532,-7.2532,-7.2532,-7.2532,-7.2532,-7.2532,-7.2532,-7.2532,-7.2532,-7.2532,-7.2532,-7.2532,-7.2863,-7.334,-7.3377,-7.367,-7.4074,-7.4221,-7.4294,-7.4258,-7.4111,-7.2753,-7.1321,-7.0991,-7.0697,-7.0257,-7.0257,-7.0,-6.9816,-6.9779,-6.9522,-6.9192,-6.8935,-6.8696,-6.8035,-6.7834,-6.7283,-6.6329,-6.6219,-6.5925,-6.5485,-6.5411,-6.5228,-6.5044,-6.4971,-6.4457,-6.3392,-6.2218,-6.119,-6.0162,-5.9318,-5.8914,-5.8841,-5.84,-5.8143,-5.8107,-5.8033,-5.7997,-5.7997,-5.7997,-5.7997,-5.7997,-5.7997,-5.7997,-5.7997,-5.7997,-5.7997,-5.7997,-5.7997,-5.7997,-5.7997,-5.7997,-5.8253,-5.8804,-5.8951,-5.9014,-5.9307,-5.9736,-6.0396,-6.1153,-6.1484,-6.1887,-6.2328,-6.2622,-6.2805,-6.2805,-6.2879,-6.2915,-6.2989,-6.3135,-6.3282,-6.3649,-6.3906,-6.4237,-6.453,-6.4824,-6.5022,-6.5124,-6.5251,-6.5493,-6.5911,-6.6428,-6.7316,-6.8379,-6.8846,-6.9528,-7.0105,-7.0717,-7.086,-7.0975,-7.1437,-7.1898,-7.2476,-7.3206,-7.4014,-7.2532,-7.2532,-7.2532,-7.2532,-7.2532,-7.2532,-7.2532,-7.2532,-7.2532,-7.2716,-7.2936,-7.301,-7.345,-7.4147,-7.4221,-7.4441,-7.4882,-7.4918,-7.4882,-7.4882,-7.4845,-7.3854,-7.2642,-7.2312,-7.1908,-7.1174,-7.1101,-7.0917,-7.066,-7.0624,-7.044,-7.0073,-7.011,-6.9871,-6.9357,-6.9394,-6.8972,-6.8091,-6.7724,-6.7247,-6.6843,-6.6476,-6.6109,-6.5925,-6.5778,-6.5411,-6.453,-6.3319,-6.2144,-6.1043,-6.0162,-5.9722,-5.9685,-5.9281,-5.9024,-5.8988,-5.8731,-5.851,-5.8437,-5.8217,-5.7997,-5.7997,-5.7997,-5.7997,-5.7997,-5.7997,-5.7997,-5.7997,-5.7997,-5.7997,-5.807,-5.829,-5.8877,-5.9575,-5.9968,-6.0199,-6.0199,-6.0616,-6.1239,-6.1801,-6.2144,-6.2254,-6.2768,-6.2805,-6.2842,-6.2915,-6.3246,-6.3319,-6.3429,-6.3613,-6.3906,-6.4347,-6.464,-6.4846,-6.5228,-6.5521,-6.5934,-6.6036,-6.6568,-6.676,-6.703,-6.7573,-6.845,-6.9218,-6.9635,-7.0047,-7.0508,-7.0937,-7.1168,-7.1437,-7.1937,-7.2591,-7.3245,-7.3745,-7.4591,-7.2532,-7.2532,-7.2532,-7.2532,-7.2532,-7.2532,-7.2532,-7.2532,-7.2642,-7.3046,-7.356,-7.3744,-7.4294,-7.5028,-7.5028,-7.5102,-7.5249,-7.5432,-7.5322,-7.5359,-7.5285,-7.4808,-7.4037,-7.3707,-7.334,-7.2826,-7.2753,-7.2422,-7.2055,-7.1798,-7.1248,-7.0917,-7.066,-7.033,-7.022,-7.022,-7.0183,-6.9743,-6.9155,-6.8862,-6.8641,-6.8201,-6.7724,-6.7247,-6.6696,-6.6256,-6.5448,-6.4494,-6.3466,-6.2071,-6.1043,-6.0566,-6.0493,-6.0456,-6.0309,-6.0162,-5.9648,-5.9318,-5.9245,-5.8767,-5.8253,-5.829,-5.8217,-5.8033,-5.8033,-5.7997,-5.807,-5.8253,-5.8143,-5.829,-5.8584,-5.9061,-5.9758,-6.0493,-6.119,-6.163,-6.1741,-6.1715,-6.2008,-6.2645,-6.2805,-6.2805,-6.2915,-6.2952,-6.3025,-6.3759,-6.398,-6.4127,-6.4273,-6.442,-6.4824,-6.5301,-6.5485,-6.5469,-6.5888,-6.6219,-6.6648,-6.7036,-6.781,-6.8211,-6.8184,-6.8711,-6.9474,-7.0099,-7.0171,-7.0354,-7.07,-7.1063,-7.1475,-7.1975,-7.2514,-7.336,-7.4207,-7.4591,-7.5245,-7.2532,-7.2532,-7.2532,-7.2532,-7.2532,-7.2532,-7.2532,-7.2569,-7.3156,-7.3523,-7.3817,-7.4368,-7.5102,-7.5836,-7.5873,-7.6166,-7.6644,-7.668,-7.679,-7.679,-7.679,-7.635,-7.5579,-7.4992,-7.4551,-7.4294,-7.4368,-7.4258,-7.3964,-7.334,-7.3083,-7.2826,-7.2092,-7.1688,-7.1174,-7.1064,-7.0697,-7.0183,-6.9926,-6.9853,-6.9816,-6.9596,-6.9339,-6.9009,-6.8054,-6.7063,-6.6219,-6.5353,-6.4626,-6.3914,-6.2522,-6.1508,-6.1325,-6.0811,-6.0554,-6.0481,-6.0298,-6.0162,-6.0089,-5.9905,-5.9575,-5.9024,-5.8914,-5.8694,-5.8033,-5.8107,-5.8364,-5.8767,-5.8951,-5.9208,-5.9758,-6.0603,-6.1043,-6.141,-6.1998,-6.2511,-6.2548,-6.2535,-6.2572,-6.2805,-6.2915,-6.3099,-6.3723,-6.3796,-6.4053,-6.4604,-6.4861,-6.5007,-6.5154,-6.5301,-6.5742,-6.6219,-6.6256,-6.6329,-6.6623,-6.6932,-6.7215,-6.7617,-6.8436,-6.9072,-6.9073,-6.9321,-6.9889,-7.0247,-7.0508,-7.0776,-7.1122,-7.1678,-7.2168,-7.2668,-7.3206,-7.4014,-7.4745,-7.5284,-7.5822,-7.2826,-7.2532,-7.2532,-7.2532,-7.2532,-7.2532,-7.2679,-7.3104,-7.3487,-7.4111,-7.4771,-7.5322,-7.5909,-7.6644,-7.668,-7.6937,-7.7231,-7.7341,-7.7304,-7.7268,-7.7268,-7.7047,-7.6754,-7.6166,-7.5763,-7.5102,-7.4882,-7.4918,-7.4771,-7.4551,-7.4221,-7.4184,-7.345,-7.2899,-7.2386,-7.2055,-7.1688,-7.1284,-7.0844,-7.066,-7.066,-7.0293,-7.011,-6.9926,-6.888,-6.7909,-6.7506,-6.6186,-6.562,-6.5057,-6.3892,-6.2814,-6.2457,-6.1762,-6.1396,-6.1323,-6.092,-6.086,-6.0787,-6.0506,-6.0114,-5.9832,-5.9795,-5.9538,-5.9245,-5.9134,-5.9281,-5.9648,-5.9832,-6.0089,-6.086,-6.1227,-6.1667,-6.2181,-6.2548,-6.2952,-6.3246,-6.3099,-6.3025,-6.3246,-6.3466,-6.3906,-6.431,-6.4604,-6.4751,-6.5154,-6.5705,-6.5888,-6.6072,-6.6256,-6.6659,-6.699,-6.7026,-6.7173,-6.7484,-6.77,-6.7834,-6.8136,-6.8558,-6.9078,-6.9306,-6.9625,-7.0038,-7.0396,-7.0846,-7.1343,-7.1766,-7.2332,-7.2976,-7.363,-7.4207,-7.4745,-7.5361,-7.6015,-7.6515,-7.323,-7.2532,-7.2532,-7.2532,-7.2532,-7.2642,-7.3067,-7.3639,-7.3986,-7.4882,-7.5909,-7.6203,-7.668,-7.7157,-7.7268,-7.7304,-7.7341,-7.7341,-7.7341,-7.7341,-7.7341,-7.7268,-7.7157,-7.7011,-7.657,-7.5359,-7.5432,-7.5432,-7.5395,-7.5139,-7.5102,-7.4955,-7.4294,-7.3854,-7.367,-7.312,-7.2642,-7.2496,-7.1835,-7.1505,-7.1431,-7.0861,-7.0604,-7.0108,-6.9592,-6.884,-6.8255,-6.7158,-6.6245,-6.6041,-6.5156,-6.4432,-6.3729,-6.2983,-6.2526,-6.249,-6.1813,-6.1463,-6.1455,-6.1017,-6.0664,-6.0591,-6.0554,-6.0456,-6.0346,-6.0199,-6.0346,-6.0566,-6.0786,-6.1117,-6.1704,-6.1887,-6.2254,-6.2805,-6.3025,-6.3429,-6.3906,-6.3613,-6.3759,-6.409,-6.431,-6.464,-6.5118,-6.5485,-6.5558,-6.5705,-6.6292,-6.6696,-6.688,-6.7026,-6.7283,-6.743,-6.7393,-6.7393,-6.7667,-6.7936,-6.8144,-6.8531,-6.8791,-6.9347,-6.9728,-7.0271,-7.0677,-7.0916,-7.1298,-7.1871,-7.2496,-7.314,-7.3822,-7.4553,-7.5053,-7.5438,-7.6053,-7.6784,-7.7246,-7.323,-7.2532,-7.2532,-7.2532,-7.2606,-7.3193,-7.3545,-7.3934,-7.5051,-7.5799,-7.613,-7.679,-7.7157,-7.7304,-7.7341,-7.7341,-7.7341,-7.7341,-7.7341,-7.7341,-7.7341,-7.7341,-7.7341,-7.7304,-7.7084,-7.7047,-7.679,-7.6717,-7.657,-7.6313,-7.5946,-7.5726,-7.5102,-7.4735,-7.4478,-7.3927,-7.3487,-7.3355,-7.2731,-7.2401,-7.2291,-7.1955,-7.1421,-7.0792,-7.0369,-6.9595,-6.8553,-6.7903,-6.7243,-6.6415,-6.5502,-6.495,-6.4459,-6.3574,-6.3128,-6.2967,-6.2422,-6.2003,-6.2089,-6.2032,-6.1697,-6.1432,-6.1263,-6.0946,-6.0628,-6.0529,-6.0933,-6.141,-6.1924,-6.2401,-6.2585,-6.2622,-6.3062,-6.3576,-6.3943,-6.42,-6.4824,-6.4934,-6.4861,-6.5228,-6.5264,-6.5375,-6.5925,-6.6366,-6.6439,-6.6586,-6.6953,-6.721,-6.732,-6.7393,-6.754,-6.7614,-6.7614,-6.7614,-6.7687,-6.7989,-6.8319,-6.8729,-6.9183,-7.0084,-7.0531,-7.1065,-7.1464,-7.1931,-7.2172,-7.2524,-7.3197,-7.3947,-7.4437,-7.4976,-7.5515,-7.6053,-7.6707,-7.7361,-7.8169,-7.3634,-7.2532,-7.2532,-7.2532,-7.2569,-7.2899,-7.356,-7.439,-7.5139,-7.5983,-7.6644,-7.7157,-7.7341,-7.7341,-7.7341,-7.7341,-7.7341,-7.7341,-7.7341,-7.7341,-7.7341,-7.7341,-7.7341,-7.7341,-7.7341,-7.7304,-7.7304,-7.7341,-7.7304,-7.6937,-7.6717,-7.657,-7.5946,-7.5482,-7.5238,-7.4652,-7.4189,-7.3946,-7.369,-7.3433,-7.3397,-7.3021,-7.2206,-7.1466,-7.0762,-7.0023,-6.9285,-6.7933,-6.7342,-6.6746,-6.5867,-6.5347,-6.4876,-6.4286,-6.3597,-6.3401,-6.2831,-6.2474,-6.2531,-6.2422,-6.202,-6.1922,-6.1953,-6.1871,-6.1679,-6.1691,-6.1814,-6.2181,-6.2475,-6.3025,-6.3392,-6.3466,-6.3906,-6.4494,-6.4714,-6.5118,-6.5668,-6.5888,-6.6072,-6.6256,-6.6145,-6.6329,-6.688,-6.721,-6.732,-6.7504,-6.765,-6.7724,-6.7724,-6.7797,-6.7871,-6.7981,-6.8017,-6.8071,-6.8145,-6.8505,-6.8851,-6.9186,-6.9752,-7.0616,-7.1367,-7.1937,-7.2677,-7.3259,-7.3392,-7.3513,-7.3995,-7.4784,-7.5091,-7.5438,-7.6092,-7.6746,-7.7284,-7.7938,-7.8784,-7.3964,-7.2532,-7.2532,-7.2532,-7.2532,-7.2679,-7.345,-7.4515,-7.5065,-7.5909,-7.6974,-7.7231,-7.7341,-7.7341,-7.7341,-7.7341,-7.7341,-7.7341,-7.7341,-7.7341,-7.7341,-7.7341,-7.7341,-7.7341,-7.7341,-7.7341,-7.7341,-7.7341,-7.7341,-7.7231,-7.7243,-7.7023,-7.6509,-7.6228,-7.5958,-7.5176,-7.4822,-7.4613,-7.4306,-7.4269,-7.4024,-7.3442,-7.2689,-7.1847,-7.0925,-7.0265,-6.9605,-6.855,-6.7497,-6.6845,-6.6124,-6.5502,-6.5212,-6.4579,-6.4008,-6.3716,-6.3046,-6.2856,-6.2839,-6.2723,-6.2529,-6.2422,-6.2599,-6.2647,-6.2654,-6.2631,-6.3025,-6.3099,-6.3356,-6.3649,-6.4237,-6.4347,-6.4751,-6.5301,-6.5595,-6.5815,-6.6439,-6.6806,-6.6953,-6.7026,-6.6916,-6.71,-6.754,-6.7504,-6.754,-6.754,-6.7687,-6.8017,-6.8054,-6.8128,-6.8238,-6.8385,-6.8495,-6.8549,-6.875,-6.9278,-6.9628,-7.0053,-7.0658,-7.1444,-7.2162,-7.2887,-7.3594,-7.4248,-7.4674,-7.4802,-7.5216,-7.5476,-7.5745,-7.6207,-7.6861,-7.7553,-7.8246,-7.8784,-7.9477,-7.3964,-7.2532,-7.2532,-7.2532,-7.2606,-7.3193,-7.3618,-7.4007,-7.5249,-7.6019,-7.6387,-7.7011,-7.7341,-7.7341,-7.7341,-7.7341,-7.7341,-7.7341,-7.7341,-7.7341,-7.7341,-7.7341,-7.7341,-7.7341,-7.7243,-7.7279,-7.7279,-7.7341,-7.7243,-7.7243,-7.7181,-7.7082,-7.6946,-7.6846,-7.6437,-7.5625,-7.5261,-7.5051,-7.445,-7.3928,-7.3652,-7.3038,-7.2575,-7.1873,-7.1134,-7.0284,-6.9582,-6.8738,-6.7966,-6.6527,-6.6214,-6.5549,-6.4708,-6.4463,-6.4393,-6.4072,-6.3624,-6.3173,-6.3417,-6.3251,-6.3105,-6.2996,-6.3111,-6.293,-6.3085,-6.3511,-6.3943,-6.398,-6.4457,-6.4897,-6.5081,-6.5154,-6.5595,-6.6035,-6.6366,-6.6769,-6.732,-6.7577,-6.776,-6.7981,-6.7944,-6.7797,-6.7944,-6.7797,-6.765,-6.7687,-6.7797,-6.8201,-6.8495,-6.8641,-6.8825,-6.9045,-6.9155,-6.9155,-6.9429,-6.9958,-7.0443,-7.0871,-7.164,-7.2347,-7.3033,-7.3801,-7.4393,-7.5047,-7.5472,-7.5793,-7.5976,-7.6207,-7.6476,-7.6976,-7.763,-7.8477,-7.9361,-7.9823,-8.0169,-7.356,-7.2532,-7.2532,-7.2532,-7.2569,-7.2899,-7.3288,-7.3897,-7.4941,-7.5689,-7.6166,-7.6937,-7.7341,-7.7341,-7.7341,-7.7341,-7.7341,-7.7341,-7.7341,-7.7304,-7.7304,-7.7304,-7.7279,-7.7217,-7.7155,-7.7155,-7.7092,-7.7029,-7.7056,-7.7118,-7.7092,-7.6929,-7.6838,-7.6672,-7.6475,-7.5846,-7.5566,-7.5253,-7.4863,-7.4329,-7.3864,-7.3434,-7.2791,-7.1761,-7.1124,-7.038,-6.9566,-6.8682,-6.8115,-6.688,-6.6316,-6.5297,-6.47,-6.428,-6.3895,-6.3898,-6.3764,-6.3647,-6.3648,-6.3476,-6.3392,-6.3477,-6.3625,-6.3966,-6.3998,-6.4302,-6.4699,-6.4787,-6.5081,-6.5485,-6.5888,-6.5999,-6.6439,-6.688,-6.7173,-6.7687,-6.8128,-6.8274,-6.8495,-6.8752,-6.8972,-6.8862,-6.8752,-6.8678,-6.8715,-6.8825,-6.8935,-6.9192,-6.9412,-6.9541,-6.9688,-6.9816,-6.9889,-6.9926,-7.0238,-7.0622,-7.1309,-7.1852,-7.2763,-7.3439,-7.4017,-7.4714,-7.5306,-7.5808,-7.6271,-7.6524,-7.6707,-7.6899,-7.713,-7.7707,-7.8361,-7.9131,-7.99,-8.04,-8.0708,-7.3046,-7.2532,-7.2532,-7.2532,-7.2532,-7.2532,-7.2847,-7.3435,-7.4478,-7.5249,-7.5946,-7.679,-7.7341,-7.7341,-7.7341,-7.7341,-7.7341,-7.7341,-7.7279,-7.7243,-7.7243,-7.7206,-7.7118,-7.7029,-7.7029,-7.7029,-7.6838,-7.6773,-7.6737,-7.6737,-7.6672,-7.6672,-7.6445,-7.6311,-7.6039,-7.5654,-7.5335,-7.5046,-7.4755,-7.4432,-7.3967,-7.3721,-7.2687,-7.1726,-7.0943,-7.0373,-6.9487,-6.8628,-6.8055,-6.7278,-6.6393,-6.5544,-6.5054,-6.4284,-6.3864,-6.3801,-6.3639,-6.362,-6.3692,-6.3674,-6.357,-6.376,-6.4027,-6.4419,-6.4785,-6.5075,-6.5401,-6.5595,-6.5962,-6.6292,-6.6623,-6.6806,-6.721,-6.765,-6.7981,-6.8531,-6.8972,-6.9119,-6.9229,-6.9376,-6.9669,-7.0036,-6.9889,-6.9743,-6.9779,-6.9963,-7.0146,-7.022,-7.033,-7.0459,-7.0753,-7.0917,-7.0954,-7.1047,-7.1416,-7.1726,-7.2303,-7.2833,-7.3747,-7.4463,-7.5046,-7.5551,-7.6105,-7.6574,-7.707,-7.76,-7.8054,-7.79,-7.7861,-7.8515,-7.9169,-7.9669,-8.0246,-8.0785,-8.1054,-7.2569,-7.2532,-7.2532,-7.2532,-7.2532,-7.2532,-7.2532,-7.2826,-7.4258,-7.5028,-7.5542,-7.6533,-7.7279,-7.7279,-7.7243,-7.7243,-7.7243,-7.7304,-7.7217,-7.7118,-7.7107,-7.6983,-7.6893,-7.6829,-7.6765,-7.6737,-7.6578,-7.6445,-7.6311,-7.6072,-7.6208,-7.6311,-7.5934,-7.5726,-7.5442,-7.508,-7.4709,-7.4405,-7.4174,-7.3983,-7.3667,-7.3245,-7.2472,-7.1622,-7.0699,-6.9922,-6.9078,-6.8489,-6.7904,-6.723,-6.6548,-6.598,-6.5275,-6.4512,-6.4093,-6.4034,-6.3768,-6.3686,-6.382,-6.4114,-6.4344,-6.433,-6.4447,-6.4779,-6.5186,-6.5806,-6.617,-6.6423,-6.6916,-6.7357,-6.7577,-6.7687,-6.8201,-6.8495,-6.8898,-6.9302,-6.9706,-6.9926,-7.0036,-7.0073,-7.0367,-7.0844,-7.1027,-7.0881,-7.0697,-7.0881,-7.0844,-7.0954,-7.1321,-7.1468,-7.1872,-7.2092,-7.2129,-7.2372,-7.2706,-7.3071,-7.3372,-7.3927,-7.4685,-7.5393,-7.6,-7.6503,-7.6939,-7.7527,-7.8039,-7.8715,-7.9246,-7.9054,-7.9054,-7.9477,-7.99,-8.0285,-8.0554,-8.09,-8.1054,-7.2532,-7.2532,-7.2532,-7.2532,-7.2532,-7.2532,-7.2532,-7.2789,-7.4221,-7.5482,-7.624,-7.6862,-7.7155,-7.6993,-7.6993,-7.6993,-7.6993,-7.6993,-7.6929,-7.6929,-7.6893,-7.6765,-7.6708,-7.6518,-7.6456,-7.6244,-7.6108,-7.5901,-7.5762,-7.5514,-7.5298,-7.519,-7.5298,-7.5153,-7.4858,-7.4405,-7.394,-7.3622,-7.338,-7.3299,-7.3031,-7.2858,-7.2302,-7.1573,-7.0649,-6.9727,-6.9036,-6.8245,-6.7742,-6.7239,-6.6702,-6.6165,-6.5663,-6.4903,-6.4483,-6.4461,-6.4166,-6.4264,-6.4332,-6.452,-6.453,-6.5255,-6.533,-6.5501,-6.5949,-6.659,-6.6957,-6.7359,-6.7981,-6.8421,-6.8458,-6.8862,-6.9376,-6.9559,-6.9816,-7.011,-7.0513,-7.0807,-7.1174,-7.1358,-7.1541,-7.1835,-7.1945,-7.1982,-7.1835,-7.1725,-7.1651,-7.1725,-7.2165,-7.2422,-7.2753,-7.2957,-7.3014,-7.3312,-7.3647,-7.403,-7.4369,-7.5009,-7.566,-7.6322,-7.6958,-7.734,-7.7816,-7.8404,-7.8884,-7.9408,-7.9785,-8.0015,-8.0169,-8.0323,-8.0516,-8.0746,-8.0977,-8.1093,-8.117,-7.2532,-7.2532,-7.2532,-7.2532,-7.2532,-7.2532,-7.2642,-7.3083,-7.4235,-7.5654,-7.6993,-7.7029,-7.6966,-7.6838,-7.6838,-7.6773,-7.6773,-7.6773,-7.6672,-7.6599,-7.6526,-7.6469,-7.6248,-7.6084,-7.5944,-7.5692,-7.5371,-7.5153,-7.5153,-7.4784,-7.4558,-7.4446,-7.4482,-7.437,-7.4216,-7.3702,-7.3135,-7.2887,-7.2755,-7.2636,-7.2432,-7.2398,-7.202,-7.14,-7.0614,-6.9825,-6.8953,-6.8173,-6.7749,-6.7243,-6.6787,-6.635,-6.5929,-6.5508,-6.5019,-6.4932,-6.4877,-6.4937,-6.4957,-6.4996,-6.5023,-6.5703,-6.5895,-6.6283,-6.6903,-6.7336,-6.7743,-6.8073,-6.8752,-6.9265,-6.9265,-6.9633,-7.011,-7.0257,-7.044,-7.077,-7.1468,-7.1945,-7.2349,-7.2679,-7.2936,-7.323,-7.323,-7.3303,-7.301,-7.2826,-7.2679,-7.2863,-7.334,-7.3545,-7.3508,-7.3639,-7.3717,-7.4108,-7.4534,-7.4933,-7.5357,-7.5887,-7.6564,-7.7286,-7.7836,-7.8252,-7.8807,-7.9479,-7.9915,-8.0131,-8.0285,-8.0516,-8.0746,-8.0977,-8.1054,-8.0977,-8.1016,-8.1131,-8.1362,-7.2532,-7.2532,-7.2532,-7.2496,-7.2496,-7.2532,-7.2936,-7.3575,-7.4445,-7.5505,-7.6728,-7.6838,-7.6737,-7.6737,-7.6643,-7.6578,-7.6445,-7.6481,-7.6378,-7.6068,-7.598,-7.5851,-7.5657,-7.5472,-7.532,-7.5078,-7.4748,-7.4522,-7.4522,-7.4139,-7.3826,-7.3587,-7.3507,-7.3426,-7.3507,-7.297,-7.2586,-7.2296,-7.2159,-7.2072,-7.1985,-7.1985,-7.1541,-7.1165,-7.0755,-6.9919,-6.9202,-6.8402,-6.7826,-6.7418,-6.6946,-6.6693,-6.6508,-6.6,-6.5696,-6.5628,-6.5087,-6.5026,-6.5255,-6.5417,-6.5899,-6.635,-6.6459,-6.67,-6.7193,-6.781,-6.8491,-6.8825,-6.9596,-7.0,-7.0073,-7.022,-7.0734,-7.1211,-7.1431,-7.1798,-7.2569,-7.3046,-7.345,-7.3612,-7.4235,-7.4771,-7.4771,-7.4661,-7.4258,-7.4001,-7.3744,-7.3927,-7.4368,-7.4427,-7.4243,-7.4264,-7.4343,-7.4883,-7.5329,-7.5872,-7.6356,-7.6873,-7.7576,-7.8324,-7.8866,-7.9239,-7.9872,-8.0542,-8.0645,-8.0631,-8.0823,-8.1054,-8.1093,-8.1093,-8.1093,-8.1054,-8.1093,-8.1285,-8.167,-7.2532,-7.2532,-7.2532,-7.2438,-7.2416,-7.2438,-7.2915,-7.3713,-7.4738,-7.5753,-7.6294,-7.6475,-7.6311,-7.6176,-7.6108,-7.6039,-7.5901,-7.5832,-7.5691,-7.5442,-7.54,-7.512,-7.4894,-7.4787,-7.4624,-7.428,-7.3983,-7.3905,-7.3905,-7.3507,-7.3217,-7.297,-7.272,-7.2552,-7.2636,-7.2416,-7.2072,-7.1864,-7.1776,-7.1722,-7.158,-7.1546,-7.141,-7.1104,-7.0731,-7.0153,-6.9508,-6.8744,-6.8099,-6.7624,-6.7184,-6.688,-6.6846,-6.6406,-6.6406,-6.6406,-6.6068,-6.6234,-6.6553,-6.6781,-6.6799,-6.6989,-6.7181,-6.7509,-6.8222,-6.8786,-6.9237,-6.9685,-7.0384,-7.0807,-7.0917,-7.1468,-7.2055,-7.2716,-7.3046,-7.3413,-7.3986,-7.4221,-7.4515,-7.4492,-7.4859,-7.5065,-7.5139,-7.5432,-7.5249,-7.5139,-7.4918,-7.4698,-7.4955,-7.4845,-7.4698,-7.4794,-7.4985,-7.5621,-7.6162,-7.6797,-7.7516,-7.8171,-7.8836,-7.9508,-7.9934,-8.0148,-8.0438,-8.0805,-8.0984,-8.1093,-8.1131,-8.1131,-8.1093,-8.1093,-8.1362,-8.1554,-8.167,-8.1939,-8.2324,-7.2438,-7.2438,-7.2475,-7.2321,-7.2204,-7.238,-7.2848,-7.3811,-7.5179,-7.5937,-7.6,-7.6039,-7.5901,-7.5621,-7.555,-7.5478,-7.5262,-7.5189,-7.508,-7.4823,-7.4684,-7.4421,-7.428,-7.4077,-7.388,-7.3566,-7.3264,-7.3101,-7.3101,-7.2804,-7.2552,-7.2296,-7.2072,-7.1985,-7.1985,-7.181,-7.181,-7.1634,-7.1457,-7.1457,-7.1401,-7.1312,-7.1312,-7.1142,-7.0872,-7.0432,-6.9992,-6.9282,-6.8402,-6.7996,-6.7489,-6.7049,-6.6948,-6.6812,-6.6812,-6.6812,-6.6896,-6.7112,-6.7317,-6.7669,-6.7695,-6.7931,-6.8077,-6.832,-6.9002,-6.9503,-6.9982,-7.0506,-7.117,-7.1704,-7.2129,-7.2753,-7.3193,-7.3817,-7.4184,-7.4515,-7.4698,-7.4992,-7.5299,-7.5335,-7.5555,-7.5555,-7.5652,-7.5909,-7.6093,-7.6093,-7.6093,-7.5836,-7.5579,-7.5542,-7.5506,-7.5698,-7.5927,-7.6585,-7.7273,-7.7812,-7.8553,-7.9358,-7.9827,-8.0237,-8.0467,-8.0524,-8.0849,-8.1061,-8.1061,-8.1131,-8.1208,-8.1246,-8.1477,-8.1747,-8.2054,-8.2208,-8.2324,-8.267,-8.3054,-7.238,-7.2299,-7.2299,-7.2144,-7.1988,-7.2157,-7.2849,-7.3993,-7.5551,-7.5934,-7.5478,-7.5478,-7.5298,-7.5118,-7.5044,-7.4933,-7.4784,-7.4522,-7.4405,-7.4174,-7.4026,-7.3747,-7.3531,-7.34,-7.3199,-7.2858,-7.2636,-7.2467,-7.2331,-7.221,-7.1951,-7.1688,-7.16,-7.1546,-7.1546,-7.1546,-7.1457,-7.1367,-7.1401,-7.1312,-7.1312,-7.1312,-7.1312,-7.1244,-7.1142,-7.0838,-7.0466,-6.9958,-6.9214,-6.8571,-6.7895,-6.7455,-6.7117,-6.6846,-6.6812,-6.6812,-6.7014,-6.7263,-6.7475,-6.7866,-6.8405,-6.8513,-6.8505,-6.8582,-6.9228,-7.0168,-7.0725,-7.129,-7.194,-7.2731,-7.3413,-7.3707,-7.4037,-7.4515,-7.4882,-7.5139,-7.5285,-7.5616,-7.5996,-7.6289,-7.6692,-7.6864,-7.679,-7.6937,-7.668,-7.679,-7.6754,-7.6754,-7.6607,-7.668,-7.6741,-7.6958,-7.7282,-7.7718,-7.8255,-7.8513,-7.8962,-7.9562,-7.9996,-8.0316,-8.0614,-8.086,-8.0926,-8.1023,-8.1061,-8.1208,-8.1477,-8.1823,-8.217,-8.2477,-8.2862,-8.3131,-8.3324,-8.3478,-8.3862,-7.2263,-7.2084,-7.2084,-7.1927,-7.1729,-7.1882,-7.2617,-7.3632,-7.5043,-7.5478,-7.5042,-7.4858,-7.4709,-7.4482,-7.4329,-7.4139,-7.3983,-7.3826,-7.3622,-7.3496,-7.3322,-7.304,-7.2774,-7.2657,-7.245,-7.2348,-7.2159,-7.2072,-7.2072,-7.181,-7.1634,-7.1457,-7.1367,-7.1401,-7.1401,-7.1367,-7.1312,-7.1312,-7.1312,-7.1312,-7.1312,-7.1312,-7.1312,-7.1312,-7.1312,-7.1075,-7.0906,-7.0466,-6.9823,-6.9553,-6.8402,-6.776,-6.7658,-6.7151,-6.6812,-6.6812,-6.6896,-6.7063,-6.7475,-6.7799,-6.8231,-6.892,-6.9104,-6.9693,-7.0246,-7.0832,-7.1502,-7.2034,-7.2636,-7.3413,-7.4037,-7.4441,-7.4918,-7.5469,-7.5763,-7.5946,-7.6093,-7.6387,-7.6729,-7.6803,-7.7268,-7.7268,-7.7304,-7.7268,-7.7047,-7.7231,-7.7341,-7.7341,-7.7341,-7.7341,-7.7463,-7.7584,-7.7789,-7.8053,-7.8421,-7.8714,-7.9198,-7.9734,-8.0078,-8.0392,-8.065,-8.086,-8.0959,-8.11,-8.1246,-8.1593,-8.1946,-8.2369,-8.2939,-8.3401,-8.3824,-8.4093,-8.4324,-8.4593,-8.4863,-7.2024,-7.1805,-7.1805,-7.1557,-7.1189,-7.1437,-7.1978,-7.2798,-7.4082,-7.4538,-7.4482,-7.4216,-7.4061,-7.3896,-7.3702,-7.3461,-7.338,-7.3101,-7.297,-7.2838,-7.2689,-7.2485,-7.2261,-7.2034,-7.2,-7.1844,-7.1722,-7.1668,-7.1722,-7.1634,-7.1401,-7.1312,-7.1312,-7.1312,-7.1312,-7.1312,-7.1312,-7.1312,-7.1312,-7.1312,-7.1312,-7.1312,-7.1312,-7.1312,-7.1312,-7.1312,-7.1278,-7.0737,-7.0534,-7.0263,-6.9045,-6.8673,-6.8402,-6.7692,-6.7015,-6.6948,-6.6812,-6.7063,-6.7394,-6.7719,-6.8187,-6.8844,-6.9519,-7.0166,-7.0806,-7.1395,-7.1998,-7.2498,-7.3237,-7.3927,-7.4515,-7.5102,-7.5799,-7.6497,-7.6644,-7.679,-7.7011,-7.7231,-7.7304,-7.7268,-7.7304,-7.7304,-7.7341,-7.7341,-7.7341,-7.7341,-7.7341,-7.7341,-7.7341,-7.7341,-7.7463,-7.7703,-7.7886,-7.8085,-7.8484,-7.8929,-7.9378,-7.9784,-8.0199,-8.0542,-8.072,-8.0932,-8.1068,-8.1253,-8.1439,-8.19,-8.2446,-8.3208,-8.3785,-8.4324,-8.4978,-8.5555,-8.5863,-8.5978,-8.6286,-7.1744,-7.1431,-7.1368,-7.0979,-7.0517,-7.0878,-7.1219,-7.1693,-7.2806,-7.3546,-7.3791,-7.3622,-7.3461,-7.3334,-7.3088,-7.2922,-7.2838,-7.2552,-7.2382,-7.2245,-7.2159,-7.1985,-7.181,-7.1722,-7.1668,-7.1546,-7.1457,-7.1491,-7.1312,-7.1312,-7.1312,-7.1312,-7.1312,-7.1312,-7.1312,-7.1312,-7.1312,-7.1312,-7.1312,-7.1312,-7.1312,-7.1312,-7.1312,-7.1312,-7.1312,-7.1312,-7.1312,-7.1176,-7.1007,-7.0534,-7.006,-6.9722,-6.8977,-6.8402,-6.7692,-6.7218,-6.7083,-6.7335,-6.7584,-6.783,-6.8383,-6.8933,-6.9402,-7.0558,-7.1434,-7.1846,-7.2309,-7.3202,-7.4019,-7.4712,-7.5359,-7.5873,-7.6533,-7.6864,-7.7011,-7.7084,-7.7194,-7.7341,-7.7341,-7.7341,-7.7341,-7.7341,-7.7341,-7.7341,-7.7341,-7.7341,-7.7341,-7.7341,-7.7341,-7.7341,-7.7524,-7.7762,-7.7924,-7.8155,-7.8677,-7.909,-7.9471,-7.9912,-8.0316,-8.0578,-8.0758,-8.1003,-8.1246,-8.1593,-8.1977,-8.2439,-8.2945,-8.3785,-8.4632,-8.5401,-8.6132,-8.7055,-8.7401,-8.744,-8.744,-7.1276,-7.0847,-7.0443,-7.0166,-7.0097,-7.0297,-7.0692,-7.115,-7.1677,-7.2522,-7.3229,-7.3088,-7.2922,-7.2838,-7.2416,-7.2331,-7.2245,-7.2159,-7.1951,-7.1864,-7.1722,-7.1634,-7.1457,-7.1457,-7.1367,-7.1367,-7.1312,-7.1312,-7.1312,-7.1312,-7.1312,-7.1312,-7.1312,-7.1312,-7.1312,-7.1312,-7.1312,-7.1312,-7.1312,-7.1312,-7.1312,-7.1312,-7.1312,-7.1312,-7.1312,-7.1312,-7.1312,-7.1278,-7.121,-7.1007,-7.0432,-6.9857,-6.9147,-6.891,-6.8436,-6.7827,-6.7624,-6.7828,-6.808,-6.8364,-6.8957,-6.9862,-7.0699,-7.1511,-7.2154,-7.2269,-7.2834,-7.3905,-7.4799,-7.5434,-7.6069,-7.6644,-7.7011,-7.7194,-7.7341,-7.7341,-7.7341,-7.7341,-7.7341,-7.7341,-7.7341,-7.7341,-7.7341,-7.7341,-7.7341,-7.7341,-7.7341,-7.7341,-7.7378,-7.7414,-7.756,-7.7783,-7.7905,-7.8208,-7.8779,-7.9236,-7.9607,-7.9996,-8.0354,-8.0578,-8.0831,-8.1464,-8.2054,-8.2285,-8.2663,-8.3247,-8.383,-8.4439,-8.5286,-8.6324,-8.7132,-8.794,-8.8556,-8.8709,-8.8632,-7.0427,-7.0305,-6.9742,-6.9452,-6.9446,-6.9617,-7.007,-7.0591,-7.1022,-7.1779,-7.2602,-7.2501,-7.2416,-7.2331,-7.1985,-7.181,-7.181,-7.1756,-7.1634,-7.1546,-7.1457,-7.1367,-7.1312,-7.1312,-7.1312,-7.1312,-7.1312,-7.1312,-7.1312,-7.1312,-7.1312,-7.1312,-7.1312,-7.1312,-7.1312,-7.1312,-7.1312,-7.1312,-7.1312,-7.1312,-7.1312,-7.1312,-7.1312,-7.1312,-7.1312,-7.1312,-7.1312,-7.1312,-7.1312,-7.1278,-7.0906,-7.0364,-6.9857,-6.9586,-6.918,-6.8673,-6.8436,-6.8522,-6.8778,-6.9066,-6.9584,-7.058,-7.1202,-7.1784,-7.2976,-7.3252,-7.379,-7.4797,-7.5249,-7.5873,-7.6509,-7.7084,-7.7194,-7.7304,-7.7341,-7.7341,-7.7341,-7.7341,-7.7341,-7.7341,-7.7341,-7.7341,-7.7341,-7.7341,-7.7341,-7.7341,-7.7341,-7.7341,-7.7378,-7.7512,-7.7634,-7.7842,-7.8052,-7.8387,-7.8904,-7.9331,-7.974,-8.0078,-8.043,-8.103,-8.1508,-8.2336,-8.2939,-8.3131,-8.3593,-8.4368,-8.4945,-8.5555,-8.644,-8.7555,-8.8209,-8.8786,-8.9325,-8.9863,-8.994,-6.9422,-6.9635,-6.9157,-6.8781,-6.869,-6.9129,-6.9529,-7.005,-7.0619,-7.125,-7.183,-7.1898,-7.1898,-7.1898,-7.1688,-7.16,-7.1546,-7.1491,-7.1401,-7.1312,-7.1312,-7.1312,-7.1312,-7.1312,-7.1312,-7.1312,-7.1312,-7.1312,-7.1312,-7.1312,-7.1312,-7.1312,-7.1312,-7.1312,-7.1312,-7.1312,-7.1312,-7.1312,-7.1312,-7.1312,-7.1312,-7.1312,-7.1312,-7.1312,-7.1312,-7.1312,-7.1312,-7.1312,-7.1312,-7.1278,-7.1244,-7.0872,-7.0567,-7.0297,-6.9857,-6.9451,-6.9214,-6.9301,-6.9474,-6.9731,-7.0305,-7.0868,-7.128,-7.2149,-7.3503,-7.4297,-7.4853,-7.5422,-7.588,-7.6313,-7.6888,-7.7268,-7.7304,-7.7341,-7.7341,-7.7341,-7.7341,-7.7341,-7.7341,-7.7341,-7.7341,-7.7341,-7.7341,-7.7341,-7.7341,-7.7341,-7.7341,-7.7341,-7.7341,-7.7549,-7.7707,-7.8031,-7.8272,-7.8663,-7.9029,-7.95,-7.9903,-8.0311,-8.0734,-8.1483,-8.2259,-8.3138,-8.3747,-8.3978,-8.4516,-8.5522,-8.6214,-8.6791,-8.7786,-8.8671,-8.8979,-8.944,-9.0133,-9.0671,-9.1133,-6.8603,-6.8898,-6.8474,-6.8162,-6.8131,-6.9159,-6.9594,-6.9714,-7.0905,-7.1498,-7.1423,-7.1491,-7.1457,-7.1688,-7.1457,-7.1401,-7.1367,-7.1312,-7.1312,-7.1312,-7.1312,-7.1312,-7.1312,-7.1312,-7.1312,-7.1312,-7.1312,-7.1312,-7.1312,-7.1312,-7.1312,-7.1312,-7.1312,-7.1312,-7.1312,-7.1312,-7.1312,-7.1312,-7.1312,-7.1312,-7.1312,-7.1312,-7.1312,-7.1312,-7.1312,-7.1312,-7.1312,-7.1312,-7.1312,-7.1312,-7.1312,-7.1176,-7.1075,-7.0906,-7.0567,-7.0195,-6.9992,-6.9992,-7.0168,-7.0481,-7.0976,-7.1891,-7.2464,-7.328,-7.4244,-7.4869,-7.5505,-7.6046,-7.6473,-7.6726,-7.7181,-7.7243,-7.7341,-7.7341,-7.7341,-7.7341,-7.7341,-7.7341,-7.7341,-7.7341,-7.7341,-7.7341,-7.7341,-7.7341,-7.7341,-7.7341,-7.7341,-7.7341,-7.7378,-7.761,-7.7855,-7.8293,-7.864,-7.8752,-7.9079,-7.9706,-8.014,-8.0543,-8.1267,-8.2318,-8.3259,-8.4061,-8.4593,-8.4978,-8.5863,-8.6901,-8.7555,-8.7983,-8.8709,-8.944,-8.9594,-9.0017,-9.0787,-9.1518,-9.2018]}]]